<?xml version="1.0" encoding="UTF-8" standalone="no" ?>
<gpx xmlns="http://www.topografix.com/GPX/1/1" xmlns:xsi="http://www.w3.org/2001/XMLSchema-instance" xsi:schemaLocation="http://www.topografix.com/GPX/1/1 http://www.topografix.com/GPX/1/1/gpx.xsd" version="1.1" creator="VisuGPX - https://www.visugpx.com">
  <metadata>
    <name>Randonnée BPM - Bréançon</name>
    <desc><![CDATA[Le Vexin]]></desc>
  </metadata>
  <trk>
    <name><![CDATA[Randonnée BPM - Bréançon_1]]></name>
    <trkseg>
      <trkpt lat="49.1427" lon="2.02176">
        <ele>147.4</ele>
        <time>2017-04-02T07:52:25Z</time>
      </trkpt>
      <trkpt lat="49.14269" lon="2.02176">
        <ele>149.8</ele>
        <time>2017-04-02T07:52:26Z</time>
      </trkpt>
      <trkpt lat="49.14261" lon="2.02171">
        <ele>149.8</ele>
        <time>2017-04-02T07:52:33Z</time>
      </trkpt>
      <trkpt lat="49.14255" lon="2.02164">
        <ele>147.5</ele>
        <time>2017-04-02T07:52:39Z</time>
      </trkpt>
      <trkpt lat="49.14251" lon="2.02157">
        <ele>149.8</ele>
        <time>2017-04-02T07:52:46Z</time>
      </trkpt>
      <trkpt lat="49.14245" lon="2.02153">
        <ele>150.5</ele>
        <time>2017-04-02T07:52:53Z</time>
      </trkpt>
      <trkpt lat="49.14239" lon="2.02145">
        <ele>150.9</ele>
        <time>2017-04-02T07:53:00Z</time>
      </trkpt>
      <trkpt lat="49.14234" lon="2.02137">
        <ele>150.6</ele>
        <time>2017-04-02T07:53:07Z</time>
      </trkpt>
      <trkpt lat="49.14233" lon="2.02125">
        <ele>151.1</ele>
        <time>2017-04-02T07:53:14Z</time>
      </trkpt>
      <trkpt lat="49.14234" lon="2.02114">
        <ele>151.9</ele>
        <time>2017-04-02T07:53:21Z</time>
      </trkpt>
      <trkpt lat="49.14234" lon="2.02104">
        <ele>152.2</ele>
        <time>2017-04-02T07:53:28Z</time>
      </trkpt>
      <trkpt lat="49.14235" lon="2.02096">
        <ele>152</ele>
        <time>2017-04-02T07:53:35Z</time>
      </trkpt>
      <trkpt lat="49.14238" lon="2.02086">
        <ele>151.4</ele>
        <time>2017-04-02T07:53:42Z</time>
      </trkpt>
      <trkpt lat="49.14243" lon="2.02079">
        <ele>150.7</ele>
        <time>2017-04-02T07:53:48Z</time>
      </trkpt>
      <trkpt lat="49.14248" lon="2.0207">
        <ele>149.8</ele>
        <time>2017-04-02T07:53:55Z</time>
      </trkpt>
      <trkpt lat="49.14252" lon="2.02062">
        <ele>149.2</ele>
        <time>2017-04-02T07:54:02Z</time>
      </trkpt>
      <trkpt lat="49.14256" lon="2.02053">
        <ele>148.5</ele>
        <time>2017-04-02T07:54:08Z</time>
      </trkpt>
      <trkpt lat="49.1426" lon="2.02043">
        <ele>148.3</ele>
        <time>2017-04-02T07:54:13Z</time>
      </trkpt>
      <trkpt lat="49.14264" lon="2.02033">
        <ele>148.4</ele>
        <time>2017-04-02T07:54:18Z</time>
      </trkpt>
      <trkpt lat="49.14268" lon="2.02024">
        <ele>148.2</ele>
        <time>2017-04-02T07:54:23Z</time>
      </trkpt>
      <trkpt lat="49.14274" lon="2.02017">
        <ele>148.3</ele>
        <time>2017-04-02T07:54:28Z</time>
      </trkpt>
      <trkpt lat="49.14279" lon="2.02009">
        <ele>147.5</ele>
        <time>2017-04-02T07:54:34Z</time>
      </trkpt>
      <trkpt lat="49.14285" lon="2.02005">
        <ele>146.6</ele>
        <time>2017-04-02T07:54:41Z</time>
      </trkpt>
      <trkpt lat="49.1429" lon="2.01997">
        <ele>146.2</ele>
        <time>2017-04-02T07:54:46Z</time>
      </trkpt>
      <trkpt lat="49.14296" lon="2.01989">
        <ele>145.9</ele>
        <time>2017-04-02T07:54:52Z</time>
      </trkpt>
      <trkpt lat="49.14302" lon="2.01982">
        <ele>144.7</ele>
        <time>2017-04-02T07:54:58Z</time>
      </trkpt>
      <trkpt lat="49.14306" lon="2.01971">
        <ele>143.7</ele>
        <time>2017-04-02T07:55:04Z</time>
      </trkpt>
      <trkpt lat="49.14309" lon="2.0196">
        <ele>142.3</ele>
        <time>2017-04-02T07:55:11Z</time>
      </trkpt>
      <trkpt lat="49.14313" lon="2.01951">
        <ele>140.9</ele>
        <time>2017-04-02T07:55:17Z</time>
      </trkpt>
      <trkpt lat="49.14317" lon="2.0194">
        <ele>140</ele>
        <time>2017-04-02T07:55:22Z</time>
      </trkpt>
      <trkpt lat="49.14319" lon="2.0193">
        <ele>138.4</ele>
        <time>2017-04-02T07:55:29Z</time>
      </trkpt>
      <trkpt lat="49.14319" lon="2.01919">
        <ele>137.1</ele>
        <time>2017-04-02T07:55:36Z</time>
      </trkpt>
      <trkpt lat="49.1432" lon="2.01909">
        <ele>136</ele>
        <time>2017-04-02T07:55:43Z</time>
      </trkpt>
      <trkpt lat="49.14317" lon="2.01898">
        <ele>135.8</ele>
        <time>2017-04-02T07:55:47Z</time>
      </trkpt>
      <trkpt lat="49.14315" lon="2.01886">
        <ele>135.6</ele>
        <time>2017-04-02T07:55:53Z</time>
      </trkpt>
      <trkpt lat="49.14314" lon="2.01875">
        <ele>135.5</ele>
        <time>2017-04-02T07:55:58Z</time>
      </trkpt>
      <trkpt lat="49.1431" lon="2.01863">
        <ele>135.8</ele>
        <time>2017-04-02T07:56:04Z</time>
      </trkpt>
      <trkpt lat="49.14307" lon="2.01854">
        <ele>136</ele>
        <time>2017-04-02T07:56:11Z</time>
      </trkpt>
      <trkpt lat="49.14304" lon="2.01841">
        <ele>136.4</ele>
        <time>2017-04-02T07:56:18Z</time>
      </trkpt>
      <trkpt lat="49.14303" lon="2.0183">
        <ele>137.3</ele>
        <time>2017-04-02T07:56:24Z</time>
      </trkpt>
      <trkpt lat="49.14302" lon="2.0182">
        <ele>138.3</ele>
        <time>2017-04-02T07:56:30Z</time>
      </trkpt>
      <trkpt lat="49.14298" lon="2.01809">
        <ele>139.5</ele>
        <time>2017-04-02T07:56:36Z</time>
      </trkpt>
      <trkpt lat="49.14298" lon="2.01798">
        <ele>140.1</ele>
        <time>2017-04-02T07:56:41Z</time>
      </trkpt>
      <trkpt lat="49.14303" lon="2.01791">
        <ele>140.6</ele>
        <time>2017-04-02T07:56:48Z</time>
      </trkpt>
      <trkpt lat="49.14306" lon="2.01779">
        <ele>141.2</ele>
        <time>2017-04-02T07:56:55Z</time>
      </trkpt>
      <trkpt lat="49.14309" lon="2.01768">
        <ele>141.6</ele>
        <time>2017-04-02T07:57:01Z</time>
      </trkpt>
      <trkpt lat="49.14314" lon="2.01759">
        <ele>142</ele>
        <time>2017-04-02T07:57:06Z</time>
      </trkpt>
      <trkpt lat="49.14318" lon="2.01748">
        <ele>143.1</ele>
        <time>2017-04-02T07:57:13Z</time>
      </trkpt>
      <trkpt lat="49.14322" lon="2.01738">
        <ele>143.6</ele>
        <time>2017-04-02T07:57:19Z</time>
      </trkpt>
      <trkpt lat="49.14325" lon="2.01727">
        <ele>144.5</ele>
        <time>2017-04-02T07:57:25Z</time>
      </trkpt>
      <trkpt lat="49.14329" lon="2.01716">
        <ele>145</ele>
        <time>2017-04-02T07:57:31Z</time>
      </trkpt>
      <trkpt lat="49.14333" lon="2.01706">
        <ele>144.9</ele>
        <time>2017-04-02T07:57:37Z</time>
      </trkpt>
      <trkpt lat="49.14338" lon="2.01697">
        <ele>144.6</ele>
        <time>2017-04-02T07:57:43Z</time>
      </trkpt>
      <trkpt lat="49.14342" lon="2.01687">
        <ele>145.2</ele>
        <time>2017-04-02T07:57:49Z</time>
      </trkpt>
      <trkpt lat="49.14347" lon="2.01676">
        <ele>146.1</ele>
        <time>2017-04-02T07:57:56Z</time>
      </trkpt>
      <trkpt lat="49.14351" lon="2.01667">
        <ele>145.7</ele>
        <time>2017-04-02T07:58:03Z</time>
      </trkpt>
      <trkpt lat="49.14356" lon="2.01659">
        <ele>145.2</ele>
        <time>2017-04-02T07:58:09Z</time>
      </trkpt>
      <trkpt lat="49.14362" lon="2.0165">
        <ele>145.7</ele>
        <time>2017-04-02T07:58:15Z</time>
      </trkpt>
      <trkpt lat="49.14367" lon="2.01641">
        <ele>145.6</ele>
        <time>2017-04-02T07:58:20Z</time>
      </trkpt>
      <trkpt lat="49.14372" lon="2.01634">
        <ele>145.2</ele>
        <time>2017-04-02T07:58:27Z</time>
      </trkpt>
      <trkpt lat="49.14378" lon="2.01625">
        <ele>144.7</ele>
        <time>2017-04-02T07:58:33Z</time>
      </trkpt>
      <trkpt lat="49.14382" lon="2.01617">
        <ele>144</ele>
        <time>2017-04-02T07:58:38Z</time>
      </trkpt>
      <trkpt lat="49.14388" lon="2.01607">
        <ele>144.4</ele>
        <time>2017-04-02T07:58:45Z</time>
      </trkpt>
      <trkpt lat="49.14394" lon="2.016">
        <ele>144.1</ele>
        <time>2017-04-02T07:58:51Z</time>
      </trkpt>
      <trkpt lat="49.144" lon="2.01592">
        <ele>146.4</ele>
        <time>2017-04-02T07:58:57Z</time>
      </trkpt>
      <trkpt lat="49.14405" lon="2.01585">
        <ele>146</ele>
        <time>2017-04-02T07:59:03Z</time>
      </trkpt>
      <trkpt lat="49.14411" lon="2.01577">
        <ele>146.6</ele>
        <time>2017-04-02T07:59:09Z</time>
      </trkpt>
      <trkpt lat="49.14417" lon="2.01569">
        <ele>148.7</ele>
        <time>2017-04-02T07:59:15Z</time>
      </trkpt>
      <trkpt lat="49.14424" lon="2.01562">
        <ele>150.5</ele>
        <time>2017-04-02T07:59:21Z</time>
      </trkpt>
      <trkpt lat="49.14431" lon="2.01553">
        <ele>150.8</ele>
        <time>2017-04-02T07:59:27Z</time>
      </trkpt>
      <trkpt lat="49.14436" lon="2.01545">
        <ele>148.4</ele>
        <time>2017-04-02T07:59:33Z</time>
      </trkpt>
      <trkpt lat="49.14441" lon="2.01536">
        <ele>148.7</ele>
        <time>2017-04-02T07:59:39Z</time>
      </trkpt>
      <trkpt lat="49.14447" lon="2.01526">
        <ele>148.3</ele>
        <time>2017-04-02T07:59:45Z</time>
      </trkpt>
      <trkpt lat="49.14454" lon="2.01517">
        <ele>150.5</ele>
        <time>2017-04-02T07:59:51Z</time>
      </trkpt>
      <trkpt lat="49.14459" lon="2.01508">
        <ele>152.5</ele>
        <time>2017-04-02T07:59:57Z</time>
      </trkpt>
      <trkpt lat="49.14465" lon="2.01502">
        <ele>153.2</ele>
        <time>2017-04-02T08:00:02Z</time>
      </trkpt>
      <trkpt lat="49.14472" lon="2.01494">
        <ele>154.9</ele>
        <time>2017-04-02T08:00:08Z</time>
      </trkpt>
      <trkpt lat="49.14479" lon="2.01487">
        <ele>156.1</ele>
        <time>2017-04-02T08:00:14Z</time>
      </trkpt>
      <trkpt lat="49.14485" lon="2.01479">
        <ele>155.3</ele>
        <time>2017-04-02T08:00:20Z</time>
      </trkpt>
      <trkpt lat="49.14491" lon="2.0147">
        <ele>154.8</ele>
        <time>2017-04-02T08:00:27Z</time>
      </trkpt>
      <trkpt lat="49.14495" lon="2.01461">
        <ele>153.1</ele>
        <time>2017-04-02T08:00:33Z</time>
      </trkpt>
      <trkpt lat="49.145" lon="2.01453">
        <ele>150.9</ele>
        <time>2017-04-02T08:00:39Z</time>
      </trkpt>
      <trkpt lat="49.14507" lon="2.01444">
        <ele>151.4</ele>
        <time>2017-04-02T08:00:45Z</time>
      </trkpt>
      <trkpt lat="49.14513" lon="2.01437">
        <ele>151.6</ele>
        <time>2017-04-02T08:00:51Z</time>
      </trkpt>
      <trkpt lat="49.14519" lon="2.01427">
        <ele>151.8</ele>
        <time>2017-04-02T08:00:57Z</time>
      </trkpt>
      <trkpt lat="49.14522" lon="2.01416">
        <ele>150.8</ele>
        <time>2017-04-02T08:01:04Z</time>
      </trkpt>
      <trkpt lat="49.14527" lon="2.01406">
        <ele>151.9</ele>
        <time>2017-04-02T08:01:10Z</time>
      </trkpt>
      <trkpt lat="49.14531" lon="2.01396">
        <ele>151.4</ele>
        <time>2017-04-02T08:01:16Z</time>
      </trkpt>
      <trkpt lat="49.14534" lon="2.01385">
        <ele>151.1</ele>
        <time>2017-04-02T08:01:23Z</time>
      </trkpt>
      <trkpt lat="49.14538" lon="2.01375">
        <ele>151.6</ele>
        <time>2017-04-02T08:01:29Z</time>
      </trkpt>
      <trkpt lat="49.14541" lon="2.01366">
        <ele>151.3</ele>
        <time>2017-04-02T08:01:35Z</time>
      </trkpt>
      <trkpt lat="49.14543" lon="2.01353">
        <ele>150.1</ele>
        <time>2017-04-02T08:01:42Z</time>
      </trkpt>
      <trkpt lat="49.14546" lon="2.01342">
        <ele>150</ele>
        <time>2017-04-02T08:01:49Z</time>
      </trkpt>
      <trkpt lat="49.1455" lon="2.01333">
        <ele>151.3</ele>
        <time>2017-04-02T08:01:55Z</time>
      </trkpt>
      <trkpt lat="49.14554" lon="2.01322">
        <ele>151.9</ele>
        <time>2017-04-02T08:02:02Z</time>
      </trkpt>
      <trkpt lat="49.14559" lon="2.01312">
        <ele>154.2</ele>
        <time>2017-04-02T08:02:09Z</time>
      </trkpt>
      <trkpt lat="49.14563" lon="2.01302">
        <ele>156.3</ele>
        <time>2017-04-02T08:02:16Z</time>
      </trkpt>
      <trkpt lat="49.14568" lon="2.01293">
        <ele>158</ele>
        <time>2017-04-02T08:02:22Z</time>
      </trkpt>
      <trkpt lat="49.14572" lon="2.01283">
        <ele>160</ele>
        <time>2017-04-02T08:02:28Z</time>
      </trkpt>
      <trkpt lat="49.14576" lon="2.01273">
        <ele>160.3</ele>
        <time>2017-04-02T08:02:35Z</time>
      </trkpt>
      <trkpt lat="49.1458" lon="2.01262">
        <ele>161.4</ele>
        <time>2017-04-02T08:02:42Z</time>
      </trkpt>
      <trkpt lat="49.14583" lon="2.01252">
        <ele>160.6</ele>
        <time>2017-04-02T08:02:49Z</time>
      </trkpt>
      <trkpt lat="49.14586" lon="2.01242">
        <ele>161.3</ele>
        <time>2017-04-02T08:02:56Z</time>
      </trkpt>
      <trkpt lat="49.14589" lon="2.01234">
        <ele>161.3</ele>
        <time>2017-04-02T08:03:03Z</time>
      </trkpt>
      <trkpt lat="49.14593" lon="2.01231">
        <ele>160.5</ele>
        <time>2017-04-02T08:03:10Z</time>
      </trkpt>
      <trkpt lat="49.14598" lon="2.01225">
        <ele>158.5</ele>
        <time>2017-04-02T08:03:17Z</time>
      </trkpt>
      <trkpt lat="49.14603" lon="2.0122">
        <ele>158.9</ele>
        <time>2017-04-02T08:03:24Z</time>
      </trkpt>
      <trkpt lat="49.14609" lon="2.01213">
        <ele>159.5</ele>
        <time>2017-04-02T08:03:31Z</time>
      </trkpt>
      <trkpt lat="49.14616" lon="2.01204">
        <ele>158.4</ele>
        <time>2017-04-02T08:03:38Z</time>
      </trkpt>
      <trkpt lat="49.14621" lon="2.01198">
        <ele>157.8</ele>
        <time>2017-04-02T08:03:44Z</time>
      </trkpt>
      <trkpt lat="49.14627" lon="2.01191">
        <ele>158.6</ele>
        <time>2017-04-02T08:03:50Z</time>
      </trkpt>
      <trkpt lat="49.14634" lon="2.01186">
        <ele>158.8</ele>
        <time>2017-04-02T08:03:56Z</time>
      </trkpt>
      <trkpt lat="49.14641" lon="2.0118">
        <ele>159</ele>
        <time>2017-04-02T08:04:02Z</time>
      </trkpt>
      <trkpt lat="49.14647" lon="2.01172">
        <ele>159.6</ele>
        <time>2017-04-02T08:04:08Z</time>
      </trkpt>
      <trkpt lat="49.14654" lon="2.01166">
        <ele>159.6</ele>
        <time>2017-04-02T08:04:15Z</time>
      </trkpt>
      <trkpt lat="49.14661" lon="2.01161">
        <ele>158.4</ele>
        <time>2017-04-02T08:04:22Z</time>
      </trkpt>
      <trkpt lat="49.14669" lon="2.01156">
        <ele>158.6</ele>
        <time>2017-04-02T08:04:29Z</time>
      </trkpt>
      <trkpt lat="49.14677" lon="2.01151">
        <ele>159</ele>
        <time>2017-04-02T08:04:36Z</time>
      </trkpt>
      <trkpt lat="49.14683" lon="2.01144">
        <ele>158.5</ele>
        <time>2017-04-02T08:04:43Z</time>
      </trkpt>
      <trkpt lat="49.14686" lon="2.01137">
        <ele>159.1</ele>
        <time>2017-04-02T08:04:50Z</time>
      </trkpt>
      <trkpt lat="49.14693" lon="2.01131">
        <ele>156.6</ele>
        <time>2017-04-02T08:04:57Z</time>
      </trkpt>
      <trkpt lat="49.14698" lon="2.01124">
        <ele>156.1</ele>
        <time>2017-04-02T08:05:04Z</time>
      </trkpt>
      <trkpt lat="49.14704" lon="2.01119">
        <ele>156.1</ele>
        <time>2017-04-02T08:05:11Z</time>
      </trkpt>
      <trkpt lat="49.14707" lon="2.01112">
        <ele>157.4</ele>
        <time>2017-04-02T08:05:18Z</time>
      </trkpt>
      <trkpt lat="49.14714" lon="2.01106">
        <ele>158.9</ele>
        <time>2017-04-02T08:05:25Z</time>
      </trkpt>
      <trkpt lat="49.14719" lon="2.01097">
        <ele>160.5</ele>
        <time>2017-04-02T08:05:32Z</time>
      </trkpt>
      <trkpt lat="49.14722" lon="2.01091">
        <ele>160.8</ele>
        <time>2017-04-02T08:05:39Z</time>
      </trkpt>
      <trkpt lat="49.14727" lon="2.01084">
        <ele>164.3</ele>
        <time>2017-04-02T08:05:46Z</time>
      </trkpt>
      <trkpt lat="49.14733" lon="2.01077">
        <ele>165.2</ele>
        <time>2017-04-02T08:05:53Z</time>
      </trkpt>
      <trkpt lat="49.14739" lon="2.01069">
        <ele>167.2</ele>
        <time>2017-04-02T08:05:59Z</time>
      </trkpt>
      <trkpt lat="49.14746" lon="2.01064">
        <ele>166.9</ele>
        <time>2017-04-02T08:06:06Z</time>
      </trkpt>
      <trkpt lat="49.14752" lon="2.0106">
        <ele>166.5</ele>
        <time>2017-04-02T08:06:13Z</time>
      </trkpt>
      <trkpt lat="49.14758" lon="2.01056">
        <ele>167.2</ele>
        <time>2017-04-02T08:06:20Z</time>
      </trkpt>
      <trkpt lat="49.14765" lon="2.01051">
        <ele>168.5</ele>
        <time>2017-04-02T08:06:27Z</time>
      </trkpt>
      <trkpt lat="49.1477" lon="2.01045">
        <ele>170.7</ele>
        <time>2017-04-02T08:06:34Z</time>
      </trkpt>
      <trkpt lat="49.14775" lon="2.0104">
        <ele>171.9</ele>
        <time>2017-04-02T08:06:41Z</time>
      </trkpt>
      <trkpt lat="49.1478" lon="2.01034">
        <ele>171.4</ele>
        <time>2017-04-02T08:06:48Z</time>
      </trkpt>
      <trkpt lat="49.14786" lon="2.01025">
        <ele>170.6</ele>
        <time>2017-04-02T08:06:55Z</time>
      </trkpt>
      <trkpt lat="49.1479" lon="2.01016">
        <ele>171.5</ele>
        <time>2017-04-02T08:07:02Z</time>
      </trkpt>
      <trkpt lat="49.14795" lon="2.01007">
        <ele>174.3</ele>
        <time>2017-04-02T08:07:09Z</time>
      </trkpt>
      <trkpt lat="49.14801" lon="2.00999">
        <ele>175.2</ele>
        <time>2017-04-02T08:07:16Z</time>
      </trkpt>
      <trkpt lat="49.14806" lon="2.00991">
        <ele>174.5</ele>
        <time>2017-04-02T08:07:23Z</time>
      </trkpt>
      <trkpt lat="49.14811" lon="2.00984">
        <ele>174</ele>
        <time>2017-04-02T08:07:30Z</time>
      </trkpt>
      <trkpt lat="49.14814" lon="2.00978">
        <ele>173.9</ele>
        <time>2017-04-02T08:07:37Z</time>
      </trkpt>
      <trkpt lat="49.14818" lon="2.0097">
        <ele>177.4</ele>
        <time>2017-04-02T08:07:44Z</time>
      </trkpt>
      <trkpt lat="49.14822" lon="2.00963">
        <ele>180.4</ele>
        <time>2017-04-02T08:07:51Z</time>
      </trkpt>
      <trkpt lat="49.14828" lon="2.00956">
        <ele>181.4</ele>
        <time>2017-04-02T08:07:57Z</time>
      </trkpt>
      <trkpt lat="49.14835" lon="2.00949">
        <ele>180.6</ele>
        <time>2017-04-02T08:08:04Z</time>
      </trkpt>
      <trkpt lat="49.1484" lon="2.00942">
        <ele>181.5</ele>
        <time>2017-04-02T08:08:11Z</time>
      </trkpt>
      <trkpt lat="49.14843" lon="2.0094">
        <ele>183.3</ele>
        <time>2017-04-02T08:08:18Z</time>
      </trkpt>
      <trkpt lat="49.14855" lon="2.00913">
        <ele>180</ele>
        <time>2017-04-02T08:10:07Z</time>
      </trkpt>
      <trkpt lat="49.14858" lon="2.00908">
        <ele>178.7</ele>
        <time>2017-04-02T08:10:14Z</time>
      </trkpt>
      <trkpt lat="49.14862" lon="2.00901">
        <ele>179.2</ele>
        <time>2017-04-02T08:10:21Z</time>
      </trkpt>
      <trkpt lat="49.14867" lon="2.00893">
        <ele>181</ele>
        <time>2017-04-02T08:10:27Z</time>
      </trkpt>
      <trkpt lat="49.14873" lon="2.00885">
        <ele>181.6</ele>
        <time>2017-04-02T08:10:34Z</time>
      </trkpt>
      <trkpt lat="49.14877" lon="2.00878">
        <ele>182</ele>
        <time>2017-04-02T08:10:41Z</time>
      </trkpt>
      <trkpt lat="49.14882" lon="2.00873">
        <ele>182.4</ele>
        <time>2017-04-02T08:10:48Z</time>
      </trkpt>
      <trkpt lat="49.14885" lon="2.00865">
        <ele>182.9</ele>
        <time>2017-04-02T08:10:55Z</time>
      </trkpt>
      <trkpt lat="49.1489" lon="2.00858">
        <ele>183.4</ele>
        <time>2017-04-02T08:11:02Z</time>
      </trkpt>
      <trkpt lat="49.14894" lon="2.00851">
        <ele>182.5</ele>
        <time>2017-04-02T08:11:09Z</time>
      </trkpt>
      <trkpt lat="49.14899" lon="2.00843">
        <ele>181.2</ele>
        <time>2017-04-02T08:11:16Z</time>
      </trkpt>
      <trkpt lat="49.14903" lon="2.00834">
        <ele>183.6</ele>
        <time>2017-04-02T08:11:23Z</time>
      </trkpt>
      <trkpt lat="49.14909" lon="2.00825">
        <ele>184.8</ele>
        <time>2017-04-02T08:11:30Z</time>
      </trkpt>
      <trkpt lat="49.14914" lon="2.00818">
        <ele>183.5</ele>
        <time>2017-04-02T08:11:37Z</time>
      </trkpt>
      <trkpt lat="49.14918" lon="2.00813">
        <ele>183.9</ele>
        <time>2017-04-02T08:11:44Z</time>
      </trkpt>
      <trkpt lat="49.14923" lon="2.00809">
        <ele>182.8</ele>
        <time>2017-04-02T08:11:51Z</time>
      </trkpt>
      <trkpt lat="49.1493" lon="2.00802">
        <ele>183.1</ele>
        <time>2017-04-02T08:11:56Z</time>
      </trkpt>
      <trkpt lat="49.14936" lon="2.00798">
        <ele>183.7</ele>
        <time>2017-04-02T08:12:03Z</time>
      </trkpt>
      <trkpt lat="49.14944" lon="2.00794">
        <ele>183.9</ele>
        <time>2017-04-02T08:12:10Z</time>
      </trkpt>
      <trkpt lat="49.14951" lon="2.00789">
        <ele>185.1</ele>
        <time>2017-04-02T08:12:16Z</time>
      </trkpt>
      <trkpt lat="49.14957" lon="2.00783">
        <ele>188.8</ele>
        <time>2017-04-02T08:12:23Z</time>
      </trkpt>
      <trkpt lat="49.14964" lon="2.00779">
        <ele>190.5</ele>
        <time>2017-04-02T08:12:28Z</time>
      </trkpt>
      <trkpt lat="49.1497" lon="2.00777">
        <ele>189.6</ele>
        <time>2017-04-02T08:12:35Z</time>
      </trkpt>
      <trkpt lat="49.14977" lon="2.00773">
        <ele>189</ele>
        <time>2017-04-02T08:12:42Z</time>
      </trkpt>
      <trkpt lat="49.14984" lon="2.00768">
        <ele>188.6</ele>
        <time>2017-04-02T08:12:49Z</time>
      </trkpt>
      <trkpt lat="49.14991" lon="2.00762">
        <ele>187.3</ele>
        <time>2017-04-02T08:12:56Z</time>
      </trkpt>
      <trkpt lat="49.14998" lon="2.00758">
        <ele>187.4</ele>
        <time>2017-04-02T08:13:01Z</time>
      </trkpt>
      <trkpt lat="49.15006" lon="2.00754">
        <ele>186.9</ele>
        <time>2017-04-02T08:13:08Z</time>
      </trkpt>
      <trkpt lat="49.15012" lon="2.00747">
        <ele>186</ele>
        <time>2017-04-02T08:13:15Z</time>
      </trkpt>
      <trkpt lat="49.15017" lon="2.0074">
        <ele>186.9</ele>
        <time>2017-04-02T08:13:22Z</time>
      </trkpt>
      <trkpt lat="49.15022" lon="2.00731">
        <ele>185.7</ele>
        <time>2017-04-02T08:13:28Z</time>
      </trkpt>
      <trkpt lat="49.15025" lon="2.0072">
        <ele>186.8</ele>
        <time>2017-04-02T08:13:35Z</time>
      </trkpt>
      <trkpt lat="49.15031" lon="2.00711">
        <ele>186.6</ele>
        <time>2017-04-02T08:13:41Z</time>
      </trkpt>
      <trkpt lat="49.15036" lon="2.00702">
        <ele>186.7</ele>
        <time>2017-04-02T08:13:46Z</time>
      </trkpt>
      <trkpt lat="49.15042" lon="2.00693">
        <ele>186.8</ele>
        <time>2017-04-02T08:13:54Z</time>
      </trkpt>
      <trkpt lat="49.15046" lon="2.00686">
        <ele>186.5</ele>
        <time>2017-04-02T08:14:00Z</time>
      </trkpt>
      <trkpt lat="49.15053" lon="2.00681">
        <ele>187.8</ele>
        <time>2017-04-02T08:14:07Z</time>
      </trkpt>
      <trkpt lat="49.15059" lon="2.00674">
        <ele>190.8</ele>
        <time>2017-04-02T08:14:14Z</time>
      </trkpt>
      <trkpt lat="49.15066" lon="2.00669">
        <ele>191.5</ele>
        <time>2017-04-02T08:14:20Z</time>
      </trkpt>
      <trkpt lat="49.15072" lon="2.00664">
        <ele>193</ele>
        <time>2017-04-02T08:14:27Z</time>
      </trkpt>
      <trkpt lat="49.15079" lon="2.00657">
        <ele>193.7</ele>
        <time>2017-04-02T08:14:34Z</time>
      </trkpt>
      <trkpt lat="49.15084" lon="2.00653">
        <ele>195</ele>
        <time>2017-04-02T08:14:41Z</time>
      </trkpt>
      <trkpt lat="49.15091" lon="2.00646">
        <ele>195.4</ele>
        <time>2017-04-02T08:14:47Z</time>
      </trkpt>
      <trkpt lat="49.15098" lon="2.00638">
        <ele>194.7</ele>
        <time>2017-04-02T08:14:53Z</time>
      </trkpt>
      <trkpt lat="49.15105" lon="2.00631">
        <ele>194.4</ele>
        <time>2017-04-02T08:14:59Z</time>
      </trkpt>
      <trkpt lat="49.1511" lon="2.00623">
        <ele>194.2</ele>
        <time>2017-04-02T08:15:05Z</time>
      </trkpt>
      <trkpt lat="49.15116" lon="2.00619">
        <ele>195.1</ele>
        <time>2017-04-02T08:15:12Z</time>
      </trkpt>
      <trkpt lat="49.15122" lon="2.00611">
        <ele>195</ele>
        <time>2017-04-02T08:15:18Z</time>
      </trkpt>
      <trkpt lat="49.15128" lon="2.00604">
        <ele>194.8</ele>
        <time>2017-04-02T08:15:24Z</time>
      </trkpt>
      <trkpt lat="49.15133" lon="2.00594">
        <ele>193.3</ele>
        <time>2017-04-02T08:15:31Z</time>
      </trkpt>
      <trkpt lat="49.15136" lon="2.00587">
        <ele>192.5</ele>
        <time>2017-04-02T08:15:38Z</time>
      </trkpt>
      <trkpt lat="49.15143" lon="2.00581">
        <ele>191.4</ele>
        <time>2017-04-02T08:15:44Z</time>
      </trkpt>
      <trkpt lat="49.15148" lon="2.00572">
        <ele>189</ele>
        <time>2017-04-02T08:15:51Z</time>
      </trkpt>
      <trkpt lat="49.15156" lon="2.00565">
        <ele>187.7</ele>
        <time>2017-04-02T08:15:56Z</time>
      </trkpt>
      <trkpt lat="49.15161" lon="2.00556">
        <ele>186.2</ele>
        <time>2017-04-02T08:16:03Z</time>
      </trkpt>
      <trkpt lat="49.15167" lon="2.00548">
        <ele>188</ele>
        <time>2017-04-02T08:16:10Z</time>
      </trkpt>
      <trkpt lat="49.15173" lon="2.00542">
        <ele>190.8</ele>
        <time>2017-04-02T08:16:14Z</time>
      </trkpt>
      <trkpt lat="49.1518" lon="2.00534">
        <ele>191.9</ele>
        <time>2017-04-02T08:16:20Z</time>
      </trkpt>
      <trkpt lat="49.15186" lon="2.00527">
        <ele>192.6</ele>
        <time>2017-04-02T08:16:24Z</time>
      </trkpt>
      <trkpt lat="49.1519" lon="2.00518">
        <ele>194.7</ele>
        <time>2017-04-02T08:16:30Z</time>
      </trkpt>
      <trkpt lat="49.15194" lon="2.00507">
        <ele>192.7</ele>
        <time>2017-04-02T08:16:36Z</time>
      </trkpt>
      <trkpt lat="49.15198" lon="2.00496">
        <ele>191.7</ele>
        <time>2017-04-02T08:16:43Z</time>
      </trkpt>
      <trkpt lat="49.15201" lon="2.00487">
        <ele>191.4</ele>
        <time>2017-04-02T08:16:50Z</time>
      </trkpt>
      <trkpt lat="49.15205" lon="2.00478">
        <ele>191.3</ele>
        <time>2017-04-02T08:16:57Z</time>
      </trkpt>
      <trkpt lat="49.15206" lon="2.00468">
        <ele>190.5</ele>
        <time>2017-04-02T08:17:05Z</time>
      </trkpt>
      <trkpt lat="49.15212" lon="2.00459">
        <ele>191.8</ele>
        <time>2017-04-02T08:17:11Z</time>
      </trkpt>
      <trkpt lat="49.15218" lon="2.00449">
        <ele>191.3</ele>
        <time>2017-04-02T08:17:17Z</time>
      </trkpt>
      <trkpt lat="49.15224" lon="2.00441">
        <ele>190.3</ele>
        <time>2017-04-02T08:17:21Z</time>
      </trkpt>
      <trkpt lat="49.1523" lon="2.00434">
        <ele>189.4</ele>
        <time>2017-04-02T08:17:27Z</time>
      </trkpt>
      <trkpt lat="49.15236" lon="2.00427">
        <ele>190.2</ele>
        <time>2017-04-02T08:17:34Z</time>
      </trkpt>
      <trkpt lat="49.15242" lon="2.00421">
        <ele>189.2</ele>
        <time>2017-04-02T08:17:39Z</time>
      </trkpt>
      <trkpt lat="49.15247" lon="2.00412">
        <ele>190</ele>
        <time>2017-04-02T08:17:46Z</time>
      </trkpt>
      <trkpt lat="49.15253" lon="2.00404">
        <ele>190.2</ele>
        <time>2017-04-02T08:17:53Z</time>
      </trkpt>
      <trkpt lat="49.15259" lon="2.00396">
        <ele>191.2</ele>
        <time>2017-04-02T08:18:00Z</time>
      </trkpt>
      <trkpt lat="49.15266" lon="2.00389">
        <ele>192.1</ele>
        <time>2017-04-02T08:18:06Z</time>
      </trkpt>
      <trkpt lat="49.15271" lon="2.0038">
        <ele>193.7</ele>
        <time>2017-04-02T08:18:13Z</time>
      </trkpt>
      <trkpt lat="49.15277" lon="2.00372">
        <ele>195.3</ele>
        <time>2017-04-02T08:18:20Z</time>
      </trkpt>
      <trkpt lat="49.15281" lon="2.00364">
        <ele>196.1</ele>
        <time>2017-04-02T08:18:26Z</time>
      </trkpt>
      <trkpt lat="49.15285" lon="2.00354">
        <ele>198.1</ele>
        <time>2017-04-02T08:18:32Z</time>
      </trkpt>
      <trkpt lat="49.1529" lon="2.00345">
        <ele>198.6</ele>
        <time>2017-04-02T08:18:38Z</time>
      </trkpt>
      <trkpt lat="49.15295" lon="2.00337">
        <ele>200.6</ele>
        <time>2017-04-02T08:18:45Z</time>
      </trkpt>
      <trkpt lat="49.15301" lon="2.00325">
        <ele>206.1</ele>
        <time>2017-04-02T08:18:50Z</time>
      </trkpt>
      <trkpt lat="49.15302" lon="2.00316">
        <ele>208.3</ele>
        <time>2017-04-02T08:18:57Z</time>
      </trkpt>
      <trkpt lat="49.15303" lon="2.0031">
        <ele>207.9</ele>
        <time>2017-04-02T08:19:04Z</time>
      </trkpt>
      <trkpt lat="49.15305" lon="2.00298">
        <ele>206.9</ele>
        <time>2017-04-02T08:19:11Z</time>
      </trkpt>
      <trkpt lat="49.1531" lon="2.0029">
        <ele>203.3</ele>
        <time>2017-04-02T08:19:17Z</time>
      </trkpt>
      <trkpt lat="49.15315" lon="2.0028">
        <ele>200.2</ele>
        <time>2017-04-02T08:19:24Z</time>
      </trkpt>
      <trkpt lat="49.15319" lon="2.00271">
        <ele>201.4</ele>
        <time>2017-04-02T08:19:31Z</time>
      </trkpt>
      <trkpt lat="49.15326" lon="2.00262">
        <ele>199.8</ele>
        <time>2017-04-02T08:19:37Z</time>
      </trkpt>
      <trkpt lat="49.1533" lon="2.00253">
        <ele>201</ele>
        <time>2017-04-02T08:19:43Z</time>
      </trkpt>
      <trkpt lat="49.15335" lon="2.00244">
        <ele>200.6</ele>
        <time>2017-04-02T08:19:50Z</time>
      </trkpt>
      <trkpt lat="49.1534" lon="2.00235">
        <ele>199.8</ele>
        <time>2017-04-02T08:19:56Z</time>
      </trkpt>
      <trkpt lat="49.15345" lon="2.00227">
        <ele>199.9</ele>
        <time>2017-04-02T08:20:02Z</time>
      </trkpt>
      <trkpt lat="49.15348" lon="2.00216">
        <ele>200.2</ele>
        <time>2017-04-02T08:20:08Z</time>
      </trkpt>
      <trkpt lat="49.15353" lon="2.00209">
        <ele>199.2</ele>
        <time>2017-04-02T08:20:14Z</time>
      </trkpt>
      <trkpt lat="49.15359" lon="2.002">
        <ele>198.8</ele>
        <time>2017-04-02T08:20:21Z</time>
      </trkpt>
      <trkpt lat="49.15363" lon="2.00192">
        <ele>198.9</ele>
        <time>2017-04-02T08:20:28Z</time>
      </trkpt>
      <trkpt lat="49.15367" lon="2.00186">
        <ele>200.2</ele>
        <time>2017-04-02T08:20:35Z</time>
      </trkpt>
      <trkpt lat="49.15374" lon="2.0018">
        <ele>199.9</ele>
        <time>2017-04-02T08:20:42Z</time>
      </trkpt>
      <trkpt lat="49.15378" lon="2.0017">
        <ele>200.8</ele>
        <time>2017-04-02T08:20:49Z</time>
      </trkpt>
      <trkpt lat="49.15385" lon="2.00162">
        <ele>202.3</ele>
        <time>2017-04-02T08:20:56Z</time>
      </trkpt>
      <trkpt lat="49.15392" lon="2.00156">
        <ele>202.9</ele>
        <time>2017-04-02T08:21:00Z</time>
      </trkpt>
      <trkpt lat="49.15399" lon="2.00153">
        <ele>203.3</ele>
        <time>2017-04-02T08:21:07Z</time>
      </trkpt>
      <trkpt lat="49.15407" lon="2.00154">
        <ele>203.3</ele>
        <time>2017-04-02T08:21:13Z</time>
      </trkpt>
      <trkpt lat="49.15411" lon="2.00157">
        <ele>203.7</ele>
        <time>2017-04-02T08:21:20Z</time>
      </trkpt>
      <trkpt lat="49.15416" lon="2.00162">
        <ele>201.7</ele>
        <time>2017-04-02T08:21:40Z</time>
      </trkpt>
      <trkpt lat="49.15416" lon="2.00167">
        <ele>203.3</ele>
        <time>2017-04-02T08:21:47Z</time>
      </trkpt>
      <trkpt lat="49.15425" lon="2.00182">
        <ele>207.9</ele>
        <time>2017-04-02T08:21:26Z</time>
      </trkpt>
      <trkpt lat="49.15425" lon="2.00189">
        <ele>204.2</ele>
        <time>2017-04-02T08:22:38Z</time>
      </trkpt>
      <trkpt lat="49.15428" lon="2.00195">
        <ele>199.2</ele>
        <time>2017-04-02T08:22:45Z</time>
      </trkpt>
      <trkpt lat="49.15426" lon="2.00203">
        <ele>195.1</ele>
        <time>2017-04-02T08:22:52Z</time>
      </trkpt>
      <trkpt lat="49.15427" lon="2.00205">
        <ele>194.8</ele>
        <time>2017-04-02T08:22:59Z</time>
      </trkpt>
      <trkpt lat="49.15432" lon="2.00214">
        <ele>189.4</ele>
        <time>2017-04-02T08:23:03Z</time>
      </trkpt>
      <trkpt lat="49.15435" lon="2.00222">
        <ele>187.4</ele>
        <time>2017-04-02T08:23:10Z</time>
      </trkpt>
      <trkpt lat="49.15442" lon="2.00229">
        <ele>185.6</ele>
        <time>2017-04-02T08:23:17Z</time>
      </trkpt>
      <trkpt lat="49.15449" lon="2.00237">
        <ele>186.1</ele>
        <time>2017-04-02T08:23:23Z</time>
      </trkpt>
      <trkpt lat="49.15452" lon="2.00245">
        <ele>184.3</ele>
        <time>2017-04-02T08:23:30Z</time>
      </trkpt>
      <trkpt lat="49.15455" lon="2.00255">
        <ele>183.7</ele>
        <time>2017-04-02T08:23:37Z</time>
      </trkpt>
      <trkpt lat="49.15458" lon="2.00262">
        <ele>182.3</ele>
        <time>2017-04-02T08:23:44Z</time>
      </trkpt>
      <trkpt lat="49.15464" lon="2.00268">
        <ele>181.1</ele>
        <time>2017-04-02T08:23:50Z</time>
      </trkpt>
      <trkpt lat="49.1547" lon="2.00278">
        <ele>180.5</ele>
        <time>2017-04-02T08:23:57Z</time>
      </trkpt>
      <trkpt lat="49.15474" lon="2.00288">
        <ele>179.5</ele>
        <time>2017-04-02T08:24:03Z</time>
      </trkpt>
      <trkpt lat="49.15476" lon="2.00298">
        <ele>179.5</ele>
        <time>2017-04-02T08:24:09Z</time>
      </trkpt>
      <trkpt lat="49.15477" lon="2.00308">
        <ele>178.3</ele>
        <time>2017-04-02T08:24:16Z</time>
      </trkpt>
      <trkpt lat="49.15477" lon="2.0032">
        <ele>176.2</ele>
        <time>2017-04-02T08:24:23Z</time>
      </trkpt>
      <trkpt lat="49.15479" lon="2.0033">
        <ele>174.9</ele>
        <time>2017-04-02T08:24:30Z</time>
      </trkpt>
      <trkpt lat="49.15483" lon="2.00341">
        <ele>174.8</ele>
        <time>2017-04-02T08:24:37Z</time>
      </trkpt>
      <trkpt lat="49.15485" lon="2.00351">
        <ele>173.1</ele>
        <time>2017-04-02T08:24:44Z</time>
      </trkpt>
      <trkpt lat="49.15487" lon="2.00359">
        <ele>171.3</ele>
        <time>2017-04-02T08:24:51Z</time>
      </trkpt>
      <trkpt lat="49.15493" lon="2.00369">
        <ele>170.9</ele>
        <time>2017-04-02T08:24:58Z</time>
      </trkpt>
      <trkpt lat="49.15495" lon="2.00381">
        <ele>174.2</ele>
        <time>2017-04-02T08:25:05Z</time>
      </trkpt>
      <trkpt lat="49.15498" lon="2.00392">
        <ele>175</ele>
        <time>2017-04-02T08:25:11Z</time>
      </trkpt>
      <trkpt lat="49.155" lon="2.00403">
        <ele>175.7</ele>
        <time>2017-04-02T08:25:17Z</time>
      </trkpt>
      <trkpt lat="49.15504" lon="2.00413">
        <ele>177.1</ele>
        <time>2017-04-02T08:25:24Z</time>
      </trkpt>
      <trkpt lat="49.1551" lon="2.0042">
        <ele>175.7</ele>
        <time>2017-04-02T08:25:29Z</time>
      </trkpt>
      <trkpt lat="49.15514" lon="2.0043">
        <ele>177.5</ele>
        <time>2017-04-02T08:25:34Z</time>
      </trkpt>
      <trkpt lat="49.15516" lon="2.00441">
        <ele>176.2</ele>
        <time>2017-04-02T08:25:41Z</time>
      </trkpt>
      <trkpt lat="49.15521" lon="2.00449">
        <ele>175.5</ele>
        <time>2017-04-02T08:25:48Z</time>
      </trkpt>
      <trkpt lat="49.15526" lon="2.00459">
        <ele>171.6</ele>
        <time>2017-04-02T08:25:55Z</time>
      </trkpt>
      <trkpt lat="49.15533" lon="2.00466">
        <ele>169.8</ele>
        <time>2017-04-02T08:26:00Z</time>
      </trkpt>
      <trkpt lat="49.1554" lon="2.00473">
        <ele>165.2</ele>
        <time>2017-04-02T08:26:05Z</time>
      </trkpt>
      <trkpt lat="49.15547" lon="2.00481">
        <ele>161.2</ele>
        <time>2017-04-02T08:26:11Z</time>
      </trkpt>
      <trkpt lat="49.15552" lon="2.00489">
        <ele>157.9</ele>
        <time>2017-04-02T08:26:18Z</time>
      </trkpt>
      <trkpt lat="49.15556" lon="2.00499">
        <ele>155.4</ele>
        <time>2017-04-02T08:26:25Z</time>
      </trkpt>
      <trkpt lat="49.1556" lon="2.00507">
        <ele>154.4</ele>
        <time>2017-04-02T08:26:32Z</time>
      </trkpt>
      <trkpt lat="49.15565" lon="2.00513">
        <ele>153.6</ele>
        <time>2017-04-02T08:26:39Z</time>
      </trkpt>
      <trkpt lat="49.15572" lon="2.00519">
        <ele>153.6</ele>
        <time>2017-04-02T08:26:44Z</time>
      </trkpt>
      <trkpt lat="49.15578" lon="2.00527">
        <ele>153.4</ele>
        <time>2017-04-02T08:26:50Z</time>
      </trkpt>
      <trkpt lat="49.15584" lon="2.00534">
        <ele>151</ele>
        <time>2017-04-02T08:26:57Z</time>
      </trkpt>
      <trkpt lat="49.15589" lon="2.00543">
        <ele>146.9</ele>
        <time>2017-04-02T08:27:04Z</time>
      </trkpt>
      <trkpt lat="49.15591" lon="2.00554">
        <ele>143.9</ele>
        <time>2017-04-02T08:27:11Z</time>
      </trkpt>
      <trkpt lat="49.15596" lon="2.00562">
        <ele>139.1</ele>
        <time>2017-04-02T08:27:18Z</time>
      </trkpt>
      <trkpt lat="49.15597" lon="2.00572">
        <ele>137.4</ele>
        <time>2017-04-02T08:27:25Z</time>
      </trkpt>
      <trkpt lat="49.15601" lon="2.00582">
        <ele>136.5</ele>
        <time>2017-04-02T08:27:32Z</time>
      </trkpt>
      <trkpt lat="49.15603" lon="2.00593">
        <ele>136.4</ele>
        <time>2017-04-02T08:27:39Z</time>
      </trkpt>
      <trkpt lat="49.15608" lon="2.00603">
        <ele>132.7</ele>
        <time>2017-04-02T08:27:45Z</time>
      </trkpt>
      <trkpt lat="49.15611" lon="2.00613">
        <ele>131.2</ele>
        <time>2017-04-02T08:27:51Z</time>
      </trkpt>
      <trkpt lat="49.15616" lon="2.0062">
        <ele>130.7</ele>
        <time>2017-04-02T08:27:58Z</time>
      </trkpt>
      <trkpt lat="49.1562" lon="2.00623">
        <ele>136.5</ele>
        <time>2017-04-02T08:28:05Z</time>
      </trkpt>
      <trkpt lat="49.15622" lon="2.00626">
        <ele>138.6</ele>
        <time>2017-04-02T08:28:12Z</time>
      </trkpt>
      <trkpt lat="49.15627" lon="2.00628">
        <ele>141.1</ele>
        <time>2017-04-02T08:28:19Z</time>
      </trkpt>
      <trkpt lat="49.15632" lon="2.00627">
        <ele>142.4</ele>
        <time>2017-04-02T08:28:26Z</time>
      </trkpt>
      <trkpt lat="49.15639" lon="2.00623">
        <ele>144.7</ele>
        <time>2017-04-02T08:28:33Z</time>
      </trkpt>
      <trkpt lat="49.15646" lon="2.00618">
        <ele>144</ele>
        <time>2017-04-02T08:28:40Z</time>
      </trkpt>
      <trkpt lat="49.15648" lon="2.00614">
        <ele>141.8</ele>
        <time>2017-04-02T08:28:47Z</time>
      </trkpt>
      <trkpt lat="49.15654" lon="2.00607">
        <ele>146.2</ele>
        <time>2017-04-02T08:28:54Z</time>
      </trkpt>
      <trkpt lat="49.15658" lon="2.006">
        <ele>143.3</ele>
        <time>2017-04-02T08:29:01Z</time>
      </trkpt>
      <trkpt lat="49.15664" lon="2.00593">
        <ele>145.8</ele>
        <time>2017-04-02T08:29:07Z</time>
      </trkpt>
      <trkpt lat="49.15668" lon="2.00585">
        <ele>148.2</ele>
        <time>2017-04-02T08:29:14Z</time>
      </trkpt>
      <trkpt lat="49.1567" lon="2.00575">
        <ele>145.6</ele>
        <time>2017-04-02T08:29:21Z</time>
      </trkpt>
      <trkpt lat="49.15671" lon="2.00564">
        <ele>143.6</ele>
        <time>2017-04-02T08:29:28Z</time>
      </trkpt>
      <trkpt lat="49.15672" lon="2.00554">
        <ele>145.3</ele>
        <time>2017-04-02T08:29:35Z</time>
      </trkpt>
      <trkpt lat="49.15673" lon="2.00543">
        <ele>146.5</ele>
        <time>2017-04-02T08:29:42Z</time>
      </trkpt>
      <trkpt lat="49.15675" lon="2.00533">
        <ele>149.7</ele>
        <time>2017-04-02T08:29:49Z</time>
      </trkpt>
      <trkpt lat="49.15678" lon="2.00522">
        <ele>149</ele>
        <time>2017-04-02T08:29:54Z</time>
      </trkpt>
      <trkpt lat="49.1568" lon="2.00512">
        <ele>149</ele>
        <time>2017-04-02T08:30:00Z</time>
      </trkpt>
      <trkpt lat="49.15682" lon="2.005">
        <ele>147.8</ele>
        <time>2017-04-02T08:30:05Z</time>
      </trkpt>
      <trkpt lat="49.15685" lon="2.00488">
        <ele>144.3</ele>
        <time>2017-04-02T08:30:11Z</time>
      </trkpt>
      <trkpt lat="49.15686" lon="2.00476">
        <ele>141.7</ele>
        <time>2017-04-02T08:30:17Z</time>
      </trkpt>
      <trkpt lat="49.1569" lon="2.00465">
        <ele>140.6</ele>
        <time>2017-04-02T08:30:23Z</time>
      </trkpt>
      <trkpt lat="49.15695" lon="2.00455">
        <ele>145</ele>
        <time>2017-04-02T08:30:28Z</time>
      </trkpt>
      <trkpt lat="49.15699" lon="2.00445">
        <ele>149.1</ele>
        <time>2017-04-02T08:30:33Z</time>
      </trkpt>
      <trkpt lat="49.15704" lon="2.00434">
        <ele>151.3</ele>
        <time>2017-04-02T08:30:39Z</time>
      </trkpt>
      <trkpt lat="49.15708" lon="2.00425">
        <ele>151.6</ele>
        <time>2017-04-02T08:30:45Z</time>
      </trkpt>
      <trkpt lat="49.15713" lon="2.00418">
        <ele>151.9</ele>
        <time>2017-04-02T08:30:51Z</time>
      </trkpt>
      <trkpt lat="49.1572" lon="2.00412">
        <ele>150.4</ele>
        <time>2017-04-02T08:30:57Z</time>
      </trkpt>
      <trkpt lat="49.15727" lon="2.00406">
        <ele>146.7</ele>
        <time>2017-04-02T08:31:03Z</time>
      </trkpt>
      <trkpt lat="49.15734" lon="2.00399">
        <ele>144.1</ele>
        <time>2017-04-02T08:31:10Z</time>
      </trkpt>
      <trkpt lat="49.15741" lon="2.00392">
        <ele>142.2</ele>
        <time>2017-04-02T08:31:17Z</time>
      </trkpt>
      <trkpt lat="49.15746" lon="2.00384">
        <ele>139.4</ele>
        <time>2017-04-02T08:31:23Z</time>
      </trkpt>
      <trkpt lat="49.1575" lon="2.00374">
        <ele>138</ele>
        <time>2017-04-02T08:31:29Z</time>
      </trkpt>
      <trkpt lat="49.15755" lon="2.00365">
        <ele>136.1</ele>
        <time>2017-04-02T08:31:35Z</time>
      </trkpt>
      <trkpt lat="49.1576" lon="2.00355">
        <ele>135.2</ele>
        <time>2017-04-02T08:31:41Z</time>
      </trkpt>
      <trkpt lat="49.15764" lon="2.00346">
        <ele>135.8</ele>
        <time>2017-04-02T08:31:47Z</time>
      </trkpt>
      <trkpt lat="49.15771" lon="2.00339">
        <ele>139.9</ele>
        <time>2017-04-02T08:31:53Z</time>
      </trkpt>
      <trkpt lat="49.15773" lon="2.00339">
        <ele>141.5</ele>
        <time>2017-04-02T08:32:00Z</time>
      </trkpt>
      <trkpt lat="49.15778" lon="2.00329">
        <ele>142.9</ele>
        <time>2017-04-02T08:32:09Z</time>
      </trkpt>
      <trkpt lat="49.15782" lon="2.00321">
        <ele>143.6</ele>
        <time>2017-04-02T08:32:14Z</time>
      </trkpt>
      <trkpt lat="49.15787" lon="2.0031">
        <ele>144.8</ele>
        <time>2017-04-02T08:32:20Z</time>
      </trkpt>
      <trkpt lat="49.15791" lon="2.003">
        <ele>144.7</ele>
        <time>2017-04-02T08:32:26Z</time>
      </trkpt>
      <trkpt lat="49.15793" lon="2.00289">
        <ele>144</ele>
        <time>2017-04-02T08:32:33Z</time>
      </trkpt>
      <trkpt lat="49.15799" lon="2.00279">
        <ele>143.7</ele>
        <time>2017-04-02T08:32:39Z</time>
      </trkpt>
      <trkpt lat="49.15804" lon="2.0027">
        <ele>146.2</ele>
        <time>2017-04-02T08:32:45Z</time>
      </trkpt>
      <trkpt lat="49.1581" lon="2.00262">
        <ele>146.7</ele>
        <time>2017-04-02T08:32:51Z</time>
      </trkpt>
      <trkpt lat="49.15816" lon="2.00253">
        <ele>147.4</ele>
        <time>2017-04-02T08:32:57Z</time>
      </trkpt>
      <trkpt lat="49.15821" lon="2.00245">
        <ele>147.7</ele>
        <time>2017-04-02T08:33:03Z</time>
      </trkpt>
      <trkpt lat="49.15827" lon="2.00239">
        <ele>147.7</ele>
        <time>2017-04-02T08:33:08Z</time>
      </trkpt>
      <trkpt lat="49.15834" lon="2.00233">
        <ele>146.9</ele>
        <time>2017-04-02T08:33:13Z</time>
      </trkpt>
      <trkpt lat="49.1584" lon="2.00224">
        <ele>145.8</ele>
        <time>2017-04-02T08:33:20Z</time>
      </trkpt>
      <trkpt lat="49.15846" lon="2.00216">
        <ele>144.7</ele>
        <time>2017-04-02T08:33:27Z</time>
      </trkpt>
      <trkpt lat="49.15852" lon="2.00209">
        <ele>144.3</ele>
        <time>2017-04-02T08:33:33Z</time>
      </trkpt>
      <trkpt lat="49.15859" lon="2.00203">
        <ele>143.5</ele>
        <time>2017-04-02T08:33:39Z</time>
      </trkpt>
      <trkpt lat="49.15865" lon="2.00199">
        <ele>144</ele>
        <time>2017-04-02T08:33:44Z</time>
      </trkpt>
      <trkpt lat="49.15872" lon="2.00192">
        <ele>144.6</ele>
        <time>2017-04-02T08:33:51Z</time>
      </trkpt>
      <trkpt lat="49.15879" lon="2.00187">
        <ele>144.6</ele>
        <time>2017-04-02T08:33:57Z</time>
      </trkpt>
      <trkpt lat="49.15885" lon="2.00181">
        <ele>144.2</ele>
        <time>2017-04-02T08:34:04Z</time>
      </trkpt>
      <trkpt lat="49.15893" lon="2.0018">
        <ele>141.7</ele>
        <time>2017-04-02T08:34:18Z</time>
      </trkpt>
      <trkpt lat="49.15894" lon="2.00176">
        <ele>142.1</ele>
        <time>2017-04-02T08:34:25Z</time>
      </trkpt>
      <trkpt lat="49.15903" lon="2.00173">
        <ele>143.1</ele>
        <time>2017-04-02T08:34:31Z</time>
      </trkpt>
      <trkpt lat="49.1591" lon="2.00168">
        <ele>142.8</ele>
        <time>2017-04-02T08:34:36Z</time>
      </trkpt>
      <trkpt lat="49.15917" lon="2.00163">
        <ele>142.3</ele>
        <time>2017-04-02T08:34:41Z</time>
      </trkpt>
      <trkpt lat="49.15924" lon="2.00161">
        <ele>141.7</ele>
        <time>2017-04-02T08:34:45Z</time>
      </trkpt>
      <trkpt lat="49.15932" lon="2.00156">
        <ele>141.5</ele>
        <time>2017-04-02T08:34:50Z</time>
      </trkpt>
      <trkpt lat="49.1594" lon="2.00154">
        <ele>140.8</ele>
        <time>2017-04-02T08:34:55Z</time>
      </trkpt>
      <trkpt lat="49.15947" lon="2.0015">
        <ele>140.5</ele>
        <time>2017-04-02T08:35:00Z</time>
      </trkpt>
      <trkpt lat="49.15955" lon="2.00147">
        <ele>141.3</ele>
        <time>2017-04-02T08:35:05Z</time>
      </trkpt>
      <trkpt lat="49.15963" lon="2.00145">
        <ele>141.5</ele>
        <time>2017-04-02T08:35:10Z</time>
      </trkpt>
      <trkpt lat="49.15971" lon="2.00145">
        <ele>143</ele>
        <time>2017-04-02T08:35:15Z</time>
      </trkpt>
      <trkpt lat="49.15979" lon="2.00144">
        <ele>143.6</ele>
        <time>2017-04-02T08:35:20Z</time>
      </trkpt>
      <trkpt lat="49.15987" lon="2.00144">
        <ele>143.3</ele>
        <time>2017-04-02T08:35:25Z</time>
      </trkpt>
      <trkpt lat="49.15994" lon="2.00142">
        <ele>141.1</ele>
        <time>2017-04-02T08:35:29Z</time>
      </trkpt>
      <trkpt lat="49.16003" lon="2.00142">
        <ele>141.5</ele>
        <time>2017-04-02T08:35:36Z</time>
      </trkpt>
      <trkpt lat="49.1601" lon="2.00143">
        <ele>141.8</ele>
        <time>2017-04-02T08:35:43Z</time>
      </trkpt>
      <trkpt lat="49.16012" lon="2.00141">
        <ele>140.5</ele>
        <time>2017-04-02T08:35:50Z</time>
      </trkpt>
      <trkpt lat="49.16012" lon="2.00144">
        <ele>145.6</ele>
        <time>2017-04-02T08:37:43Z</time>
      </trkpt>
      <trkpt lat="49.1602" lon="2.00146">
        <ele>145.6</ele>
        <time>2017-04-02T08:38:58Z</time>
      </trkpt>
      <trkpt lat="49.16026" lon="2.00148">
        <ele>145</ele>
        <time>2017-04-02T08:39:05Z</time>
      </trkpt>
      <trkpt lat="49.16034" lon="2.00152">
        <ele>142.3</ele>
        <time>2017-04-02T08:39:12Z</time>
      </trkpt>
      <trkpt lat="49.16038" lon="2.00151">
        <ele>141.4</ele>
        <time>2017-04-02T08:39:19Z</time>
      </trkpt>
      <trkpt lat="49.16044" lon="2.00151">
        <ele>141.3</ele>
        <time>2017-04-02T08:39:26Z</time>
      </trkpt>
      <trkpt lat="49.1605" lon="2.00151">
        <ele>140.7</ele>
        <time>2017-04-02T08:39:33Z</time>
      </trkpt>
      <trkpt lat="49.16055" lon="2.00151">
        <ele>141.8</ele>
        <time>2017-04-02T08:39:40Z</time>
      </trkpt>
      <trkpt lat="49.16059" lon="2.0015">
        <ele>142.5</ele>
        <time>2017-04-02T08:39:47Z</time>
      </trkpt>
      <trkpt lat="49.16065" lon="2.00148">
        <ele>142.6</ele>
        <time>2017-04-02T08:39:54Z</time>
      </trkpt>
      <trkpt lat="49.16071" lon="2.00145">
        <ele>144</ele>
        <time>2017-04-02T08:40:01Z</time>
      </trkpt>
      <trkpt lat="49.16076" lon="2.00141">
        <ele>145</ele>
        <time>2017-04-02T08:40:08Z</time>
      </trkpt>
      <trkpt lat="49.16078" lon="2.00139">
        <ele>146.6</ele>
        <time>2017-04-02T08:40:15Z</time>
      </trkpt>
      <trkpt lat="49.16084" lon="2.00137">
        <ele>149</ele>
        <time>2017-04-02T08:40:22Z</time>
      </trkpt>
      <trkpt lat="49.16091" lon="2.00136">
        <ele>151.9</ele>
        <time>2017-04-02T08:40:29Z</time>
      </trkpt>
      <trkpt lat="49.16096" lon="2.00135">
        <ele>154</ele>
        <time>2017-04-02T08:40:36Z</time>
      </trkpt>
      <trkpt lat="49.16102" lon="2.00135">
        <ele>157.1</ele>
        <time>2017-04-02T08:40:43Z</time>
      </trkpt>
      <trkpt lat="49.16108" lon="2.00134">
        <ele>157.1</ele>
        <time>2017-04-02T08:40:50Z</time>
      </trkpt>
      <trkpt lat="49.16113" lon="2.00132">
        <ele>156.6</ele>
        <time>2017-04-02T08:40:57Z</time>
      </trkpt>
      <trkpt lat="49.16117" lon="2.00128">
        <ele>155.8</ele>
        <time>2017-04-02T08:41:04Z</time>
      </trkpt>
      <trkpt lat="49.16124" lon="2.00125">
        <ele>156</ele>
        <time>2017-04-02T08:41:11Z</time>
      </trkpt>
      <trkpt lat="49.16131" lon="2.00125">
        <ele>159.2</ele>
        <time>2017-04-02T08:41:18Z</time>
      </trkpt>
      <trkpt lat="49.16138" lon="2.00123">
        <ele>158.5</ele>
        <time>2017-04-02T08:41:25Z</time>
      </trkpt>
      <trkpt lat="49.16145" lon="2.00121">
        <ele>158.6</ele>
        <time>2017-04-02T08:41:31Z</time>
      </trkpt>
      <trkpt lat="49.16151" lon="2.00119">
        <ele>159.7</ele>
        <time>2017-04-02T08:41:38Z</time>
      </trkpt>
      <trkpt lat="49.16158" lon="2.00114">
        <ele>157.9</ele>
        <time>2017-04-02T08:41:45Z</time>
      </trkpt>
      <trkpt lat="49.16163" lon="2.0011">
        <ele>156.4</ele>
        <time>2017-04-02T08:41:52Z</time>
      </trkpt>
      <trkpt lat="49.16168" lon="2.00107">
        <ele>156.1</ele>
        <time>2017-04-02T08:41:59Z</time>
      </trkpt>
      <trkpt lat="49.16175" lon="2.00102">
        <ele>157.3</ele>
        <time>2017-04-02T08:42:06Z</time>
      </trkpt>
      <trkpt lat="49.1618" lon="2.00098">
        <ele>157.1</ele>
        <time>2017-04-02T08:42:13Z</time>
      </trkpt>
      <trkpt lat="49.16185" lon="2.00094">
        <ele>157.4</ele>
        <time>2017-04-02T08:42:20Z</time>
      </trkpt>
      <trkpt lat="49.1619" lon="2.0009">
        <ele>157.4</ele>
        <time>2017-04-02T08:42:27Z</time>
      </trkpt>
      <trkpt lat="49.16199" lon="2.00086">
        <ele>157.9</ele>
        <time>2017-04-02T08:42:34Z</time>
      </trkpt>
      <trkpt lat="49.16206" lon="2.00082">
        <ele>158.9</ele>
        <time>2017-04-02T08:42:38Z</time>
      </trkpt>
      <trkpt lat="49.16212" lon="2.00079">
        <ele>158.8</ele>
        <time>2017-04-02T08:42:43Z</time>
      </trkpt>
      <trkpt lat="49.1622" lon="2.00074">
        <ele>159.1</ele>
        <time>2017-04-02T08:42:48Z</time>
      </trkpt>
      <trkpt lat="49.16227" lon="2.0007">
        <ele>158.3</ele>
        <time>2017-04-02T08:42:55Z</time>
      </trkpt>
      <trkpt lat="49.16234" lon="2.00066">
        <ele>158.1</ele>
        <time>2017-04-02T08:43:02Z</time>
      </trkpt>
      <trkpt lat="49.16238" lon="2.00061">
        <ele>158</ele>
        <time>2017-04-02T08:43:09Z</time>
      </trkpt>
      <trkpt lat="49.1624" lon="2.00061">
        <ele>156.4</ele>
        <time>2017-04-02T08:43:16Z</time>
      </trkpt>
      <trkpt lat="49.16239" lon="2.0006">
        <ele>155.7</ele>
        <time>2017-04-02T08:43:46Z</time>
      </trkpt>
      <trkpt lat="49.16245" lon="2.00056">
        <ele>157.5</ele>
        <time>2017-04-02T08:44:35Z</time>
      </trkpt>
      <trkpt lat="49.1625" lon="2.00053">
        <ele>154.5</ele>
        <time>2017-04-02T08:44:42Z</time>
      </trkpt>
      <trkpt lat="49.16258" lon="2.00047">
        <ele>154.2</ele>
        <time>2017-04-02T08:44:49Z</time>
      </trkpt>
      <trkpt lat="49.16264" lon="2.00043">
        <ele>153.4</ele>
        <time>2017-04-02T08:44:56Z</time>
      </trkpt>
      <trkpt lat="49.16269" lon="2.00038">
        <ele>152.4</ele>
        <time>2017-04-02T08:45:03Z</time>
      </trkpt>
      <trkpt lat="49.16275" lon="2.00032">
        <ele>150.7</ele>
        <time>2017-04-02T08:45:10Z</time>
      </trkpt>
      <trkpt lat="49.16282" lon="2.00026">
        <ele>150.1</ele>
        <time>2017-04-02T08:45:17Z</time>
      </trkpt>
      <trkpt lat="49.16288" lon="2.0002">
        <ele>147.9</ele>
        <time>2017-04-02T08:45:23Z</time>
      </trkpt>
      <trkpt lat="49.16294" lon="2.00016">
        <ele>147.4</ele>
        <time>2017-04-02T08:45:30Z</time>
      </trkpt>
      <trkpt lat="49.163" lon="2.00011">
        <ele>145.4</ele>
        <time>2017-04-02T08:45:37Z</time>
      </trkpt>
      <trkpt lat="49.16307" lon="2.00004">
        <ele>145.2</ele>
        <time>2017-04-02T08:45:44Z</time>
      </trkpt>
      <trkpt lat="49.16314" lon="1.99998">
        <ele>143.7</ele>
        <time>2017-04-02T08:45:50Z</time>
      </trkpt>
      <trkpt lat="49.1632" lon="1.99992">
        <ele>143.1</ele>
        <time>2017-04-02T08:45:57Z</time>
      </trkpt>
      <trkpt lat="49.16327" lon="1.99986">
        <ele>145</ele>
        <time>2017-04-02T08:46:02Z</time>
      </trkpt>
      <trkpt lat="49.16333" lon="1.99984">
        <ele>147.4</ele>
        <time>2017-04-02T08:46:09Z</time>
      </trkpt>
      <trkpt lat="49.16336" lon="1.9998">
        <ele>148.3</ele>
        <time>2017-04-02T08:46:40Z</time>
      </trkpt>
      <trkpt lat="49.16342" lon="1.99972">
        <ele>149.6</ele>
        <time>2017-04-02T08:47:54Z</time>
      </trkpt>
      <trkpt lat="49.16347" lon="1.99967">
        <ele>146.8</ele>
        <time>2017-04-02T08:48:01Z</time>
      </trkpt>
      <trkpt lat="49.16349" lon="1.99966">
        <ele>145.3</ele>
        <time>2017-04-02T08:48:08Z</time>
      </trkpt>
      <trkpt lat="49.16349" lon="1.99969">
        <ele>145.6</ele>
        <time>2017-04-02T08:48:33Z</time>
      </trkpt>
      <trkpt lat="49.16353" lon="1.99966">
        <ele>144.3</ele>
        <time>2017-04-02T08:48:45Z</time>
      </trkpt>
      <trkpt lat="49.16353" lon="1.99961">
        <ele>144.9</ele>
        <time>2017-04-02T08:48:52Z</time>
      </trkpt>
      <trkpt lat="49.16356" lon="1.99961">
        <ele>146.1</ele>
        <time>2017-04-02T08:48:59Z</time>
      </trkpt>
      <trkpt lat="49.16363" lon="1.99959">
        <ele>147.1</ele>
        <time>2017-04-02T08:49:06Z</time>
      </trkpt>
      <trkpt lat="49.1637" lon="1.99957">
        <ele>147.2</ele>
        <time>2017-04-02T08:49:12Z</time>
      </trkpt>
      <trkpt lat="49.16378" lon="1.99953">
        <ele>145.9</ele>
        <time>2017-04-02T08:49:18Z</time>
      </trkpt>
      <trkpt lat="49.16386" lon="1.99951">
        <ele>144</ele>
        <time>2017-04-02T08:49:24Z</time>
      </trkpt>
      <trkpt lat="49.16393" lon="1.9995">
        <ele>142.8</ele>
        <time>2017-04-02T08:49:29Z</time>
      </trkpt>
      <trkpt lat="49.16402" lon="1.99948">
        <ele>143</ele>
        <time>2017-04-02T08:49:35Z</time>
      </trkpt>
      <trkpt lat="49.1641" lon="1.99947">
        <ele>144.7</ele>
        <time>2017-04-02T08:49:41Z</time>
      </trkpt>
      <trkpt lat="49.16418" lon="1.99945">
        <ele>145.7</ele>
        <time>2017-04-02T08:49:46Z</time>
      </trkpt>
      <trkpt lat="49.16426" lon="1.99942">
        <ele>145.5</ele>
        <time>2017-04-02T08:49:52Z</time>
      </trkpt>
      <trkpt lat="49.16433" lon="1.99939">
        <ele>145.9</ele>
        <time>2017-04-02T08:49:57Z</time>
      </trkpt>
      <trkpt lat="49.16441" lon="1.99937">
        <ele>146</ele>
        <time>2017-04-02T08:50:02Z</time>
      </trkpt>
      <trkpt lat="49.16448" lon="1.99934">
        <ele>148.9</ele>
        <time>2017-04-02T08:50:07Z</time>
      </trkpt>
      <trkpt lat="49.16456" lon="1.99931">
        <ele>149.4</ele>
        <time>2017-04-02T08:50:13Z</time>
      </trkpt>
      <trkpt lat="49.16464" lon="1.99929">
        <ele>149.6</ele>
        <time>2017-04-02T08:50:19Z</time>
      </trkpt>
      <trkpt lat="49.16472" lon="1.99925">
        <ele>147.8</ele>
        <time>2017-04-02T08:50:25Z</time>
      </trkpt>
      <trkpt lat="49.1648" lon="1.99922">
        <ele>148.8</ele>
        <time>2017-04-02T08:50:31Z</time>
      </trkpt>
      <trkpt lat="49.16488" lon="1.99921">
        <ele>147.7</ele>
        <time>2017-04-02T08:50:38Z</time>
      </trkpt>
      <trkpt lat="49.16496" lon="1.9992">
        <ele>147.7</ele>
        <time>2017-04-02T08:50:45Z</time>
      </trkpt>
      <trkpt lat="49.16504" lon="1.99918">
        <ele>149</ele>
        <time>2017-04-02T08:50:51Z</time>
      </trkpt>
      <trkpt lat="49.16511" lon="1.99916">
        <ele>151.4</ele>
        <time>2017-04-02T08:50:57Z</time>
      </trkpt>
      <trkpt lat="49.16519" lon="1.99912">
        <ele>153</ele>
        <time>2017-04-02T08:51:02Z</time>
      </trkpt>
      <trkpt lat="49.16525" lon="1.99907">
        <ele>149.8</ele>
        <time>2017-04-02T08:51:08Z</time>
      </trkpt>
      <trkpt lat="49.16534" lon="1.99904">
        <ele>147.9</ele>
        <time>2017-04-02T08:51:14Z</time>
      </trkpt>
      <trkpt lat="49.16541" lon="1.99899">
        <ele>149.4</ele>
        <time>2017-04-02T08:51:20Z</time>
      </trkpt>
      <trkpt lat="49.16549" lon="1.99897">
        <ele>149.1</ele>
        <time>2017-04-02T08:51:26Z</time>
      </trkpt>
      <trkpt lat="49.16557" lon="1.99897">
        <ele>148.8</ele>
        <time>2017-04-02T08:51:32Z</time>
      </trkpt>
      <trkpt lat="49.16565" lon="1.99898">
        <ele>146.2</ele>
        <time>2017-04-02T08:51:38Z</time>
      </trkpt>
      <trkpt lat="49.16574" lon="1.99899">
        <ele>148</ele>
        <time>2017-04-02T08:51:43Z</time>
      </trkpt>
      <trkpt lat="49.16582" lon="1.99899">
        <ele>147.5</ele>
        <time>2017-04-02T08:51:48Z</time>
      </trkpt>
      <trkpt lat="49.16589" lon="1.99903">
        <ele>145.4</ele>
        <time>2017-04-02T08:51:55Z</time>
      </trkpt>
      <trkpt lat="49.16592" lon="1.99913">
        <ele>144</ele>
        <time>2017-04-02T08:52:02Z</time>
      </trkpt>
      <trkpt lat="49.16592" lon="1.99923">
        <ele>139.9</ele>
        <time>2017-04-02T08:52:09Z</time>
      </trkpt>
      <trkpt lat="49.16593" lon="1.99934">
        <ele>137.3</ele>
        <time>2017-04-02T08:52:16Z</time>
      </trkpt>
      <trkpt lat="49.16595" lon="1.99945">
        <ele>136.1</ele>
        <time>2017-04-02T08:52:22Z</time>
      </trkpt>
      <trkpt lat="49.16594" lon="1.9996">
        <ele>143.2</ele>
        <time>2017-04-02T08:52:27Z</time>
      </trkpt>
      <trkpt lat="49.16595" lon="1.99973">
        <ele>142.7</ele>
        <time>2017-04-02T08:52:34Z</time>
      </trkpt>
      <trkpt lat="49.16597" lon="1.99985">
        <ele>140.3</ele>
        <time>2017-04-02T08:52:41Z</time>
      </trkpt>
      <trkpt lat="49.16597" lon="1.99996">
        <ele>139.1</ele>
        <time>2017-04-02T08:52:48Z</time>
      </trkpt>
      <trkpt lat="49.16598" lon="2.00009">
        <ele>139.1</ele>
        <time>2017-04-02T08:52:54Z</time>
      </trkpt>
      <trkpt lat="49.16599" lon="2.0002">
        <ele>138</ele>
        <time>2017-04-02T08:53:01Z</time>
      </trkpt>
      <trkpt lat="49.166" lon="2.00032">
        <ele>138</ele>
        <time>2017-04-02T08:53:08Z</time>
      </trkpt>
      <trkpt lat="49.16601" lon="2.00043">
        <ele>136.6</ele>
        <time>2017-04-02T08:53:15Z</time>
      </trkpt>
      <trkpt lat="49.166" lon="2.00052">
        <ele>132.6</ele>
        <time>2017-04-02T08:53:22Z</time>
      </trkpt>
      <trkpt lat="49.16599" lon="2.00062">
        <ele>131.8</ele>
        <time>2017-04-02T08:53:29Z</time>
      </trkpt>
      <trkpt lat="49.16598" lon="2.00071">
        <ele>132.4</ele>
        <time>2017-04-02T08:53:36Z</time>
      </trkpt>
      <trkpt lat="49.16598" lon="2.00077">
        <ele>133.9</ele>
        <time>2017-04-02T08:53:43Z</time>
      </trkpt>
      <trkpt lat="49.16597" lon="2.00077">
        <ele>134.8</ele>
        <time>2017-04-02T08:53:51Z</time>
      </trkpt>
      <trkpt lat="49.16597" lon="2.00084">
        <ele>136.7</ele>
        <time>2017-04-02T08:53:36Z</time>
      </trkpt>
      <trkpt lat="49.16598" lon="2.00096">
        <ele>134.3</ele>
        <time>2017-04-02T08:54:47Z</time>
      </trkpt>
      <trkpt lat="49.16596" lon="2.00106">
        <ele>130.3</ele>
        <time>2017-04-02T08:54:54Z</time>
      </trkpt>
      <trkpt lat="49.16596" lon="2.00118">
        <ele>130.8</ele>
        <time>2017-04-02T08:55:01Z</time>
      </trkpt>
      <trkpt lat="49.16597" lon="2.00132">
        <ele>130.9</ele>
        <time>2017-04-02T08:55:08Z</time>
      </trkpt>
      <trkpt lat="49.16598" lon="2.00143">
        <ele>129.1</ele>
        <time>2017-04-02T08:55:14Z</time>
      </trkpt>
      <trkpt lat="49.16601" lon="2.00155">
        <ele>127.2</ele>
        <time>2017-04-02T08:55:21Z</time>
      </trkpt>
      <trkpt lat="49.16604" lon="2.00167">
        <ele>126.5</ele>
        <time>2017-04-02T08:55:28Z</time>
      </trkpt>
      <trkpt lat="49.16605" lon="2.00179">
        <ele>127.5</ele>
        <time>2017-04-02T08:55:32Z</time>
      </trkpt>
      <trkpt lat="49.16605" lon="2.00191">
        <ele>128</ele>
        <time>2017-04-02T08:55:38Z</time>
      </trkpt>
      <trkpt lat="49.16606" lon="2.00204">
        <ele>126</ele>
        <time>2017-04-02T08:55:44Z</time>
      </trkpt>
      <trkpt lat="49.16606" lon="2.00216">
        <ele>125.5</ele>
        <time>2017-04-02T08:55:50Z</time>
      </trkpt>
      <trkpt lat="49.16605" lon="2.00227">
        <ele>126.2</ele>
        <time>2017-04-02T08:55:55Z</time>
      </trkpt>
      <trkpt lat="49.16605" lon="2.0024">
        <ele>126.3</ele>
        <time>2017-04-02T08:56:01Z</time>
      </trkpt>
      <trkpt lat="49.16605" lon="2.00252">
        <ele>128.1</ele>
        <time>2017-04-02T08:56:06Z</time>
      </trkpt>
      <trkpt lat="49.16605" lon="2.00263">
        <ele>128.2</ele>
        <time>2017-04-02T08:56:12Z</time>
      </trkpt>
      <trkpt lat="49.16604" lon="2.00275">
        <ele>126.5</ele>
        <time>2017-04-02T08:56:19Z</time>
      </trkpt>
      <trkpt lat="49.16604" lon="2.00287">
        <ele>126.1</ele>
        <time>2017-04-02T08:56:25Z</time>
      </trkpt>
      <trkpt lat="49.16602" lon="2.00298">
        <ele>125.2</ele>
        <time>2017-04-02T08:56:31Z</time>
      </trkpt>
      <trkpt lat="49.166" lon="2.0031">
        <ele>124.5</ele>
        <time>2017-04-02T08:56:36Z</time>
      </trkpt>
      <trkpt lat="49.16599" lon="2.00322">
        <ele>124.3</ele>
        <time>2017-04-02T08:56:41Z</time>
      </trkpt>
      <trkpt lat="49.16597" lon="2.00333">
        <ele>124.3</ele>
        <time>2017-04-02T08:56:47Z</time>
      </trkpt>
      <trkpt lat="49.16595" lon="2.00345">
        <ele>123.3</ele>
        <time>2017-04-02T08:56:53Z</time>
      </trkpt>
      <trkpt lat="49.16592" lon="2.00356">
        <ele>124.9</ele>
        <time>2017-04-02T08:56:59Z</time>
      </trkpt>
      <trkpt lat="49.16591" lon="2.00367">
        <ele>121.5</ele>
        <time>2017-04-02T08:57:05Z</time>
      </trkpt>
      <trkpt lat="49.16588" lon="2.00379">
        <ele>119.4</ele>
        <time>2017-04-02T08:57:12Z</time>
      </trkpt>
      <trkpt lat="49.16589" lon="2.00391">
        <ele>120.8</ele>
        <time>2017-04-02T08:57:18Z</time>
      </trkpt>
      <trkpt lat="49.16589" lon="2.00403">
        <ele>119.7</ele>
        <time>2017-04-02T08:57:24Z</time>
      </trkpt>
      <trkpt lat="49.1659" lon="2.00415">
        <ele>119.3</ele>
        <time>2017-04-02T08:57:30Z</time>
      </trkpt>
      <trkpt lat="49.16591" lon="2.00426">
        <ele>117.6</ele>
        <time>2017-04-02T08:57:37Z</time>
      </trkpt>
      <trkpt lat="49.16594" lon="2.00438">
        <ele>118.6</ele>
        <time>2017-04-02T08:57:44Z</time>
      </trkpt>
      <trkpt lat="49.16597" lon="2.0045">
        <ele>117.4</ele>
        <time>2017-04-02T08:57:51Z</time>
      </trkpt>
      <trkpt lat="49.16599" lon="2.0046">
        <ele>117.7</ele>
        <time>2017-04-02T08:57:57Z</time>
      </trkpt>
      <trkpt lat="49.16602" lon="2.0047">
        <ele>117.3</ele>
        <time>2017-04-02T08:58:03Z</time>
      </trkpt>
      <trkpt lat="49.16606" lon="2.0048">
        <ele>118.4</ele>
        <time>2017-04-02T08:58:08Z</time>
      </trkpt>
      <trkpt lat="49.16608" lon="2.00492">
        <ele>120.1</ele>
        <time>2017-04-02T08:58:14Z</time>
      </trkpt>
      <trkpt lat="49.1661" lon="2.00504">
        <ele>120.4</ele>
        <time>2017-04-02T08:58:20Z</time>
      </trkpt>
      <trkpt lat="49.16613" lon="2.00515">
        <ele>119.6</ele>
        <time>2017-04-02T08:58:27Z</time>
      </trkpt>
      <trkpt lat="49.16616" lon="2.00526">
        <ele>119</ele>
        <time>2017-04-02T08:58:33Z</time>
      </trkpt>
      <trkpt lat="49.16618" lon="2.00538">
        <ele>120.1</ele>
        <time>2017-04-02T08:58:39Z</time>
      </trkpt>
      <trkpt lat="49.16619" lon="2.00549">
        <ele>120.3</ele>
        <time>2017-04-02T08:58:45Z</time>
      </trkpt>
      <trkpt lat="49.16622" lon="2.00559">
        <ele>121.1</ele>
        <time>2017-04-02T08:58:52Z</time>
      </trkpt>
      <trkpt lat="49.16629" lon="2.00565">
        <ele>121.5</ele>
        <time>2017-04-02T08:58:58Z</time>
      </trkpt>
      <trkpt lat="49.16637" lon="2.00567">
        <ele>122.1</ele>
        <time>2017-04-02T08:59:04Z</time>
      </trkpt>
      <trkpt lat="49.16644" lon="2.0057">
        <ele>122.3</ele>
        <time>2017-04-02T08:59:11Z</time>
      </trkpt>
      <trkpt lat="49.16652" lon="2.00574">
        <ele>123.3</ele>
        <time>2017-04-02T08:59:17Z</time>
      </trkpt>
      <trkpt lat="49.16659" lon="2.00576">
        <ele>122.8</ele>
        <time>2017-04-02T08:59:23Z</time>
      </trkpt>
      <trkpt lat="49.16667" lon="2.0058">
        <ele>121.8</ele>
        <time>2017-04-02T08:59:29Z</time>
      </trkpt>
      <trkpt lat="49.16675" lon="2.00583">
        <ele>122.7</ele>
        <time>2017-04-02T08:59:35Z</time>
      </trkpt>
      <trkpt lat="49.16682" lon="2.00583">
        <ele>123.4</ele>
        <time>2017-04-02T08:59:42Z</time>
      </trkpt>
      <trkpt lat="49.1669" lon="2.00585">
        <ele>123.8</ele>
        <time>2017-04-02T08:59:48Z</time>
      </trkpt>
      <trkpt lat="49.16698" lon="2.00585">
        <ele>123.3</ele>
        <time>2017-04-02T08:59:54Z</time>
      </trkpt>
      <trkpt lat="49.16705" lon="2.00588">
        <ele>123.1</ele>
        <time>2017-04-02T09:00:01Z</time>
      </trkpt>
      <trkpt lat="49.16713" lon="2.00588">
        <ele>124.8</ele>
        <time>2017-04-02T09:00:08Z</time>
      </trkpt>
      <trkpt lat="49.16721" lon="2.00589">
        <ele>125</ele>
        <time>2017-04-02T09:00:15Z</time>
      </trkpt>
      <trkpt lat="49.16728" lon="2.00588">
        <ele>123</ele>
        <time>2017-04-02T09:00:21Z</time>
      </trkpt>
      <trkpt lat="49.16736" lon="2.00584">
        <ele>121.6</ele>
        <time>2017-04-02T09:00:28Z</time>
      </trkpt>
      <trkpt lat="49.16743" lon="2.00583">
        <ele>122.8</ele>
        <time>2017-04-02T09:00:35Z</time>
      </trkpt>
      <trkpt lat="49.1675" lon="2.0058">
        <ele>122.4</ele>
        <time>2017-04-02T09:00:42Z</time>
      </trkpt>
      <trkpt lat="49.16755" lon="2.00576">
        <ele>122.3</ele>
        <time>2017-04-02T09:00:49Z</time>
      </trkpt>
      <trkpt lat="49.16761" lon="2.00573">
        <ele>122.6</ele>
        <time>2017-04-02T09:00:55Z</time>
      </trkpt>
      <trkpt lat="49.16769" lon="2.00567">
        <ele>120</ele>
        <time>2017-04-02T09:01:02Z</time>
      </trkpt>
      <trkpt lat="49.16775" lon="2.00564">
        <ele>120.4</ele>
        <time>2017-04-02T09:01:07Z</time>
      </trkpt>
      <trkpt lat="49.16783" lon="2.00559">
        <ele>120.8</ele>
        <time>2017-04-02T09:01:13Z</time>
      </trkpt>
      <trkpt lat="49.1679" lon="2.00553">
        <ele>121.5</ele>
        <time>2017-04-02T09:01:20Z</time>
      </trkpt>
      <trkpt lat="49.16796" lon="2.00547">
        <ele>122.7</ele>
        <time>2017-04-02T09:01:27Z</time>
      </trkpt>
      <trkpt lat="49.16801" lon="2.00542">
        <ele>121.3</ele>
        <time>2017-04-02T09:01:34Z</time>
      </trkpt>
      <trkpt lat="49.16807" lon="2.00536">
        <ele>121.1</ele>
        <time>2017-04-02T09:01:40Z</time>
      </trkpt>
      <trkpt lat="49.16814" lon="2.00531">
        <ele>119.9</ele>
        <time>2017-04-02T09:01:46Z</time>
      </trkpt>
      <trkpt lat="49.16821" lon="2.00524">
        <ele>120.7</ele>
        <time>2017-04-02T09:01:52Z</time>
      </trkpt>
      <trkpt lat="49.16826" lon="2.00519">
        <ele>120.7</ele>
        <time>2017-04-02T09:01:59Z</time>
      </trkpt>
      <trkpt lat="49.16833" lon="2.00514">
        <ele>122.1</ele>
        <time>2017-04-02T09:02:06Z</time>
      </trkpt>
      <trkpt lat="49.1684" lon="2.00509">
        <ele>121.8</ele>
        <time>2017-04-02T09:02:13Z</time>
      </trkpt>
      <trkpt lat="49.16845" lon="2.00504">
        <ele>122.8</ele>
        <time>2017-04-02T09:02:20Z</time>
      </trkpt>
      <trkpt lat="49.16852" lon="2.00499">
        <ele>125.7</ele>
        <time>2017-04-02T09:02:25Z</time>
      </trkpt>
      <trkpt lat="49.16857" lon="2.00494">
        <ele>126.7</ele>
        <time>2017-04-02T09:02:32Z</time>
      </trkpt>
      <trkpt lat="49.16865" lon="2.0049">
        <ele>128.5</ele>
        <time>2017-04-02T09:02:39Z</time>
      </trkpt>
      <trkpt lat="49.16873" lon="2.00487">
        <ele>131.4</ele>
        <time>2017-04-02T09:02:45Z</time>
      </trkpt>
      <trkpt lat="49.1688" lon="2.00483">
        <ele>133</ele>
        <time>2017-04-02T09:02:51Z</time>
      </trkpt>
      <trkpt lat="49.16887" lon="2.0048">
        <ele>133.9</ele>
        <time>2017-04-02T09:02:58Z</time>
      </trkpt>
      <trkpt lat="49.16892" lon="2.00475">
        <ele>130.8</ele>
        <time>2017-04-02T09:03:05Z</time>
      </trkpt>
      <trkpt lat="49.16897" lon="2.00471">
        <ele>131.1</ele>
        <time>2017-04-02T09:03:12Z</time>
      </trkpt>
      <trkpt lat="49.16905" lon="2.00467">
        <ele>131.6</ele>
        <time>2017-04-02T09:03:19Z</time>
      </trkpt>
      <trkpt lat="49.16912" lon="2.00462">
        <ele>131.8</ele>
        <time>2017-04-02T09:03:26Z</time>
      </trkpt>
      <trkpt lat="49.16917" lon="2.00457">
        <ele>133.7</ele>
        <time>2017-04-02T09:03:33Z</time>
      </trkpt>
      <trkpt lat="49.16923" lon="2.00453">
        <ele>134.4</ele>
        <time>2017-04-02T09:03:40Z</time>
      </trkpt>
      <trkpt lat="49.16928" lon="2.00448">
        <ele>133</ele>
        <time>2017-04-02T09:03:47Z</time>
      </trkpt>
      <trkpt lat="49.16936" lon="2.00445">
        <ele>135.2</ele>
        <time>2017-04-02T09:03:52Z</time>
      </trkpt>
      <trkpt lat="49.16944" lon="2.00439">
        <ele>133.6</ele>
        <time>2017-04-02T09:03:59Z</time>
      </trkpt>
      <trkpt lat="49.16951" lon="2.00433">
        <ele>134.4</ele>
        <time>2017-04-02T09:04:04Z</time>
      </trkpt>
      <trkpt lat="49.16959" lon="2.00427">
        <ele>136.4</ele>
        <time>2017-04-02T09:04:10Z</time>
      </trkpt>
      <trkpt lat="49.16965" lon="2.00423">
        <ele>138.3</ele>
        <time>2017-04-02T09:04:15Z</time>
      </trkpt>
      <trkpt lat="49.16971" lon="2.00418">
        <ele>137.5</ele>
        <time>2017-04-02T09:04:22Z</time>
      </trkpt>
      <trkpt lat="49.16975" lon="2.00413">
        <ele>137.2</ele>
        <time>2017-04-02T09:04:29Z</time>
      </trkpt>
      <trkpt lat="49.16977" lon="2.0041">
        <ele>137.3</ele>
        <time>2017-04-02T09:04:36Z</time>
      </trkpt>
      <trkpt lat="49.16981" lon="2.00409">
        <ele>137.4</ele>
        <time>2017-04-02T09:04:43Z</time>
      </trkpt>
      <trkpt lat="49.16985" lon="2.00405">
        <ele>140</ele>
        <time>2017-04-02T09:05:13Z</time>
      </trkpt>
      <trkpt lat="49.1699" lon="2.00408">
        <ele>140.9</ele>
        <time>2017-04-02T09:05:20Z</time>
      </trkpt>
      <trkpt lat="49.1699" lon="2.0041">
        <ele>142.2</ele>
        <time>2017-04-02T09:05:27Z</time>
      </trkpt>
      <trkpt lat="49.17006" lon="2.00381">
        <ele>150.5</ele>
        <time>2017-04-02T09:11:33Z</time>
      </trkpt>
      <trkpt lat="49.17009" lon="2.00376">
        <ele>150</ele>
        <time>2017-04-02T09:11:40Z</time>
      </trkpt>
      <trkpt lat="49.17012" lon="2.00369">
        <ele>146.5</ele>
        <time>2017-04-02T09:11:47Z</time>
      </trkpt>
      <trkpt lat="49.17014" lon="2.00366">
        <ele>144.7</ele>
        <time>2017-04-02T09:11:54Z</time>
      </trkpt>
      <trkpt lat="49.17019" lon="2.00365">
        <ele>142.8</ele>
        <time>2017-04-02T09:12:01Z</time>
      </trkpt>
      <trkpt lat="49.17022" lon="2.00361">
        <ele>139.9</ele>
        <time>2017-04-02T09:12:08Z</time>
      </trkpt>
      <trkpt lat="49.17028" lon="2.00358">
        <ele>141.9</ele>
        <time>2017-04-02T09:12:15Z</time>
      </trkpt>
      <trkpt lat="49.17034" lon="2.00356">
        <ele>143.1</ele>
        <time>2017-04-02T09:12:22Z</time>
      </trkpt>
      <trkpt lat="49.17036" lon="2.00354">
        <ele>142.7</ele>
        <time>2017-04-02T09:12:29Z</time>
      </trkpt>
      <trkpt lat="49.17044" lon="2.00351">
        <ele>145.6</ele>
        <time>2017-04-02T09:12:35Z</time>
      </trkpt>
      <trkpt lat="49.17053" lon="2.00346">
        <ele>147</ele>
        <time>2017-04-02T09:12:40Z</time>
      </trkpt>
      <trkpt lat="49.1706" lon="2.00342">
        <ele>149.5</ele>
        <time>2017-04-02T09:12:46Z</time>
      </trkpt>
      <trkpt lat="49.17068" lon="2.00336">
        <ele>149.7</ele>
        <time>2017-04-02T09:12:53Z</time>
      </trkpt>
      <trkpt lat="49.17073" lon="2.00332">
        <ele>149.3</ele>
        <time>2017-04-02T09:13:00Z</time>
      </trkpt>
      <trkpt lat="49.17076" lon="2.00326">
        <ele>148.8</ele>
        <time>2017-04-02T09:13:07Z</time>
      </trkpt>
      <trkpt lat="49.1708" lon="2.0032">
        <ele>148.1</ele>
        <time>2017-04-02T09:13:14Z</time>
      </trkpt>
      <trkpt lat="49.17081" lon="2.00318">
        <ele>147.2</ele>
        <time>2017-04-02T09:13:21Z</time>
      </trkpt>
      <trkpt lat="49.1709" lon="2.00313">
        <ele>148.6</ele>
        <time>2017-04-02T09:13:24Z</time>
      </trkpt>
      <trkpt lat="49.17098" lon="2.00308">
        <ele>152.2</ele>
        <time>2017-04-02T09:13:29Z</time>
      </trkpt>
      <trkpt lat="49.17104" lon="2.00302">
        <ele>152.9</ele>
        <time>2017-04-02T09:13:36Z</time>
      </trkpt>
      <trkpt lat="49.17109" lon="2.00296">
        <ele>152.2</ele>
        <time>2017-04-02T09:13:43Z</time>
      </trkpt>
      <trkpt lat="49.17116" lon="2.00288">
        <ele>153</ele>
        <time>2017-04-02T09:13:49Z</time>
      </trkpt>
      <trkpt lat="49.17122" lon="2.0028">
        <ele>157.5</ele>
        <time>2017-04-02T09:13:55Z</time>
      </trkpt>
      <trkpt lat="49.17128" lon="2.00271">
        <ele>161</ele>
        <time>2017-04-02T09:14:02Z</time>
      </trkpt>
      <trkpt lat="49.17133" lon="2.00264">
        <ele>163.6</ele>
        <time>2017-04-02T09:14:09Z</time>
      </trkpt>
      <trkpt lat="49.17137" lon="2.00254">
        <ele>167.6</ele>
        <time>2017-04-02T09:14:17Z</time>
      </trkpt>
      <trkpt lat="49.17144" lon="2.00246">
        <ele>171</ele>
        <time>2017-04-02T09:14:24Z</time>
      </trkpt>
      <trkpt lat="49.1715" lon="2.00239">
        <ele>170.4</ele>
        <time>2017-04-02T09:14:31Z</time>
      </trkpt>
      <trkpt lat="49.17156" lon="2.0023">
        <ele>169.3</ele>
        <time>2017-04-02T09:14:38Z</time>
      </trkpt>
      <trkpt lat="49.1716" lon="2.00221">
        <ele>169.3</ele>
        <time>2017-04-02T09:14:44Z</time>
      </trkpt>
      <trkpt lat="49.17166" lon="2.00214">
        <ele>168.8</ele>
        <time>2017-04-02T09:14:50Z</time>
      </trkpt>
      <trkpt lat="49.17173" lon="2.00208">
        <ele>168.4</ele>
        <time>2017-04-02T09:14:57Z</time>
      </trkpt>
      <trkpt lat="49.17179" lon="2.00202">
        <ele>169.1</ele>
        <time>2017-04-02T09:15:04Z</time>
      </trkpt>
      <trkpt lat="49.17186" lon="2.00195">
        <ele>168.5</ele>
        <time>2017-04-02T09:15:11Z</time>
      </trkpt>
      <trkpt lat="49.17192" lon="2.00187">
        <ele>170.1</ele>
        <time>2017-04-02T09:15:17Z</time>
      </trkpt>
      <trkpt lat="49.17197" lon="2.00181">
        <ele>172.3</ele>
        <time>2017-04-02T09:15:24Z</time>
      </trkpt>
      <trkpt lat="49.17204" lon="2.00175">
        <ele>177.8</ele>
        <time>2017-04-02T09:15:31Z</time>
      </trkpt>
      <trkpt lat="49.17209" lon="2.00174">
        <ele>181.9</ele>
        <time>2017-04-02T09:15:38Z</time>
      </trkpt>
      <trkpt lat="49.17216" lon="2.00174">
        <ele>182.5</ele>
        <time>2017-04-02T09:15:45Z</time>
      </trkpt>
      <trkpt lat="49.17222" lon="2.00173">
        <ele>181.7</ele>
        <time>2017-04-02T09:15:52Z</time>
      </trkpt>
      <trkpt lat="49.17228" lon="2.00172">
        <ele>181</ele>
        <time>2017-04-02T09:15:59Z</time>
      </trkpt>
      <trkpt lat="49.17236" lon="2.00168">
        <ele>183.2</ele>
        <time>2017-04-02T09:16:06Z</time>
      </trkpt>
      <trkpt lat="49.17243" lon="2.00167">
        <ele>185.6</ele>
        <time>2017-04-02T09:16:12Z</time>
      </trkpt>
      <trkpt lat="49.1725" lon="2.00164">
        <ele>187.5</ele>
        <time>2017-04-02T09:16:19Z</time>
      </trkpt>
      <trkpt lat="49.17258" lon="2.0016">
        <ele>190.9</ele>
        <time>2017-04-02T09:16:27Z</time>
      </trkpt>
      <trkpt lat="49.17264" lon="2.00155">
        <ele>189.1</ele>
        <time>2017-04-02T09:16:33Z</time>
      </trkpt>
      <trkpt lat="49.17271" lon="2.00154">
        <ele>191.4</ele>
        <time>2017-04-02T09:16:40Z</time>
      </trkpt>
      <trkpt lat="49.17275" lon="2.00153">
        <ele>193.2</ele>
        <time>2017-04-02T09:16:47Z</time>
      </trkpt>
      <trkpt lat="49.17282" lon="2.0015">
        <ele>195.7</ele>
        <time>2017-04-02T09:16:54Z</time>
      </trkpt>
      <trkpt lat="49.1729" lon="2.00149">
        <ele>196.9</ele>
        <time>2017-04-02T09:17:00Z</time>
      </trkpt>
      <trkpt lat="49.17296" lon="2.00147">
        <ele>199.2</ele>
        <time>2017-04-02T09:17:07Z</time>
      </trkpt>
      <trkpt lat="49.17299" lon="2.00141">
        <ele>200.9</ele>
        <time>2017-04-02T09:17:14Z</time>
      </trkpt>
      <trkpt lat="49.17305" lon="2.00136">
        <ele>202.3</ele>
        <time>2017-04-02T09:17:21Z</time>
      </trkpt>
      <trkpt lat="49.17311" lon="2.0013">
        <ele>203.6</ele>
        <time>2017-04-02T09:17:27Z</time>
      </trkpt>
      <trkpt lat="49.17317" lon="2.00124">
        <ele>204.9</ele>
        <time>2017-04-02T09:17:32Z</time>
      </trkpt>
      <trkpt lat="49.17322" lon="2.00116">
        <ele>205.8</ele>
        <time>2017-04-02T09:17:39Z</time>
      </trkpt>
      <trkpt lat="49.17327" lon="2.00108">
        <ele>205.3</ele>
        <time>2017-04-02T09:17:46Z</time>
      </trkpt>
      <trkpt lat="49.17333" lon="2.00098">
        <ele>199</ele>
        <time>2017-04-02T09:17:51Z</time>
      </trkpt>
      <trkpt lat="49.17339" lon="2.00091">
        <ele>200.1</ele>
        <time>2017-04-02T09:17:57Z</time>
      </trkpt>
      <trkpt lat="49.17346" lon="2.00087">
        <ele>202</ele>
        <time>2017-04-02T09:18:04Z</time>
      </trkpt>
      <trkpt lat="49.17351" lon="2.00081">
        <ele>204</ele>
        <time>2017-04-02T09:18:11Z</time>
      </trkpt>
      <trkpt lat="49.17353" lon="2.00075">
        <ele>206.7</ele>
        <time>2017-04-02T09:18:18Z</time>
      </trkpt>
      <trkpt lat="49.17358" lon="2.00071">
        <ele>204.2</ele>
        <time>2017-04-02T09:18:25Z</time>
      </trkpt>
      <trkpt lat="49.17361" lon="2.00064">
        <ele>201.9</ele>
        <time>2017-04-02T09:18:32Z</time>
      </trkpt>
      <trkpt lat="49.17368" lon="2.00058">
        <ele>202.2</ele>
        <time>2017-04-02T09:18:39Z</time>
      </trkpt>
      <trkpt lat="49.17373" lon="2.00051">
        <ele>201.9</ele>
        <time>2017-04-02T09:18:46Z</time>
      </trkpt>
      <trkpt lat="49.17376" lon="2.00044">
        <ele>202.3</ele>
        <time>2017-04-02T09:18:53Z</time>
      </trkpt>
      <trkpt lat="49.1738" lon="2.00037">
        <ele>203.1</ele>
        <time>2017-04-02T09:19:00Z</time>
      </trkpt>
      <trkpt lat="49.17385" lon="2.00029">
        <ele>203.8</ele>
        <time>2017-04-02T09:19:07Z</time>
      </trkpt>
      <trkpt lat="49.17389" lon="2.0002">
        <ele>204.3</ele>
        <time>2017-04-02T09:19:14Z</time>
      </trkpt>
      <trkpt lat="49.17393" lon="2.00014">
        <ele>204.2</ele>
        <time>2017-04-02T09:19:22Z</time>
      </trkpt>
      <trkpt lat="49.17397" lon="2.00008">
        <ele>204.5</ele>
        <time>2017-04-02T09:19:28Z</time>
      </trkpt>
      <trkpt lat="49.17403" lon="2.00001">
        <ele>204.4</ele>
        <time>2017-04-02T09:19:35Z</time>
      </trkpt>
      <trkpt lat="49.17407" lon="1.99994">
        <ele>203.5</ele>
        <time>2017-04-02T09:19:42Z</time>
      </trkpt>
      <trkpt lat="49.17413" lon="1.99987">
        <ele>203.6</ele>
        <time>2017-04-02T09:19:49Z</time>
      </trkpt>
      <trkpt lat="49.17417" lon="1.99981">
        <ele>200.7</ele>
        <time>2017-04-02T09:19:56Z</time>
      </trkpt>
      <trkpt lat="49.17422" lon="1.99973">
        <ele>198.6</ele>
        <time>2017-04-02T09:20:03Z</time>
      </trkpt>
      <trkpt lat="49.17428" lon="1.99968">
        <ele>197.6</ele>
        <time>2017-04-02T09:20:10Z</time>
      </trkpt>
      <trkpt lat="49.17435" lon="1.99964">
        <ele>196.3</ele>
        <time>2017-04-02T09:20:17Z</time>
      </trkpt>
      <trkpt lat="49.1744" lon="1.9996">
        <ele>196.6</ele>
        <time>2017-04-02T09:20:24Z</time>
      </trkpt>
      <trkpt lat="49.17445" lon="1.99952">
        <ele>196.9</ele>
        <time>2017-04-02T09:20:30Z</time>
      </trkpt>
      <trkpt lat="49.17449" lon="1.99945">
        <ele>195.4</ele>
        <time>2017-04-02T09:20:37Z</time>
      </trkpt>
      <trkpt lat="49.17453" lon="1.99941">
        <ele>193.3</ele>
        <time>2017-04-02T09:20:44Z</time>
      </trkpt>
      <trkpt lat="49.17456" lon="1.99936">
        <ele>192</ele>
        <time>2017-04-02T09:20:51Z</time>
      </trkpt>
      <trkpt lat="49.1746" lon="1.99924">
        <ele>191</ele>
        <time>2017-04-02T09:20:58Z</time>
      </trkpt>
      <trkpt lat="49.17466" lon="1.99918">
        <ele>191.4</ele>
        <time>2017-04-02T09:21:04Z</time>
      </trkpt>
      <trkpt lat="49.1747" lon="1.99912">
        <ele>191.8</ele>
        <time>2017-04-02T09:21:11Z</time>
      </trkpt>
      <trkpt lat="49.17475" lon="1.99906">
        <ele>191.8</ele>
        <time>2017-04-02T09:21:18Z</time>
      </trkpt>
      <trkpt lat="49.17481" lon="1.99903">
        <ele>193</ele>
        <time>2017-04-02T09:21:25Z</time>
      </trkpt>
      <trkpt lat="49.17488" lon="1.99901">
        <ele>192.6</ele>
        <time>2017-04-02T09:21:32Z</time>
      </trkpt>
      <trkpt lat="49.17493" lon="1.99899">
        <ele>192.2</ele>
        <time>2017-04-02T09:21:39Z</time>
      </trkpt>
      <trkpt lat="49.17502" lon="1.99899">
        <ele>192.4</ele>
        <time>2017-04-02T09:22:06Z</time>
      </trkpt>
      <trkpt lat="49.17509" lon="1.999">
        <ele>191.7</ele>
        <time>2017-04-02T09:22:13Z</time>
      </trkpt>
      <trkpt lat="49.17515" lon="1.99903">
        <ele>187.1</ele>
        <time>2017-04-02T09:22:20Z</time>
      </trkpt>
      <trkpt lat="49.17521" lon="1.99906">
        <ele>183</ele>
        <time>2017-04-02T09:22:27Z</time>
      </trkpt>
      <trkpt lat="49.17528" lon="1.99909">
        <ele>184.8</ele>
        <time>2017-04-02T09:22:34Z</time>
      </trkpt>
      <trkpt lat="49.17533" lon="1.99912">
        <ele>186.8</ele>
        <time>2017-04-02T09:22:41Z</time>
      </trkpt>
      <trkpt lat="49.1754" lon="1.99919">
        <ele>186.3</ele>
        <time>2017-04-02T09:22:48Z</time>
      </trkpt>
      <trkpt lat="49.17545" lon="1.99923">
        <ele>184.5</ele>
        <time>2017-04-02T09:22:55Z</time>
      </trkpt>
      <trkpt lat="49.17553" lon="1.99926">
        <ele>183.3</ele>
        <time>2017-04-02T09:23:02Z</time>
      </trkpt>
      <trkpt lat="49.17561" lon="1.99928">
        <ele>184.1</ele>
        <time>2017-04-02T09:23:08Z</time>
      </trkpt>
      <trkpt lat="49.17569" lon="1.9993">
        <ele>184.5</ele>
        <time>2017-04-02T09:23:14Z</time>
      </trkpt>
      <trkpt lat="49.17576" lon="1.99932">
        <ele>183.5</ele>
        <time>2017-04-02T09:23:21Z</time>
      </trkpt>
      <trkpt lat="49.17584" lon="1.99932">
        <ele>183.5</ele>
        <time>2017-04-02T09:23:27Z</time>
      </trkpt>
      <trkpt lat="49.17591" lon="1.9993">
        <ele>182.8</ele>
        <time>2017-04-02T09:23:34Z</time>
      </trkpt>
      <trkpt lat="49.17598" lon="1.99928">
        <ele>180.4</ele>
        <time>2017-04-02T09:23:41Z</time>
      </trkpt>
      <trkpt lat="49.17604" lon="1.99926">
        <ele>177.9</ele>
        <time>2017-04-02T09:23:48Z</time>
      </trkpt>
      <trkpt lat="49.17611" lon="1.99926">
        <ele>173.7</ele>
        <time>2017-04-02T09:23:55Z</time>
      </trkpt>
      <trkpt lat="49.17619" lon="1.99925">
        <ele>172.9</ele>
        <time>2017-04-02T09:24:02Z</time>
      </trkpt>
      <trkpt lat="49.17627" lon="1.99925">
        <ele>170.8</ele>
        <time>2017-04-02T09:24:09Z</time>
      </trkpt>
      <trkpt lat="49.17635" lon="1.99925">
        <ele>171.6</ele>
        <time>2017-04-02T09:24:16Z</time>
      </trkpt>
      <trkpt lat="49.17642" lon="1.99922">
        <ele>171.6</ele>
        <time>2017-04-02T09:24:23Z</time>
      </trkpt>
      <trkpt lat="49.17647" lon="1.99919">
        <ele>170.1</ele>
        <time>2017-04-02T09:24:30Z</time>
      </trkpt>
      <trkpt lat="49.17655" lon="1.99919">
        <ele>170.7</ele>
        <time>2017-04-02T09:24:37Z</time>
      </trkpt>
      <trkpt lat="49.17662" lon="1.99917">
        <ele>170.8</ele>
        <time>2017-04-02T09:24:43Z</time>
      </trkpt>
      <trkpt lat="49.1767" lon="1.99916">
        <ele>170.3</ele>
        <time>2017-04-02T09:24:50Z</time>
      </trkpt>
      <trkpt lat="49.17678" lon="1.99915">
        <ele>170.6</ele>
        <time>2017-04-02T09:24:56Z</time>
      </trkpt>
      <trkpt lat="49.17686" lon="1.99915">
        <ele>171.3</ele>
        <time>2017-04-02T09:25:02Z</time>
      </trkpt>
      <trkpt lat="49.17694" lon="1.99918">
        <ele>171.2</ele>
        <time>2017-04-02T09:25:09Z</time>
      </trkpt>
      <trkpt lat="49.177" lon="1.99921">
        <ele>171.1</ele>
        <time>2017-04-02T09:25:14Z</time>
      </trkpt>
      <trkpt lat="49.17706" lon="1.99927">
        <ele>170.4</ele>
        <time>2017-04-02T09:25:21Z</time>
      </trkpt>
      <trkpt lat="49.17709" lon="1.99936">
        <ele>168.7</ele>
        <time>2017-04-02T09:25:28Z</time>
      </trkpt>
      <trkpt lat="49.1771" lon="1.99944">
        <ele>168.4</ele>
        <time>2017-04-02T09:25:35Z</time>
      </trkpt>
      <trkpt lat="49.17709" lon="1.99956">
        <ele>167.9</ele>
        <time>2017-04-02T09:25:42Z</time>
      </trkpt>
      <trkpt lat="49.1771" lon="1.99968">
        <ele>167.9</ele>
        <time>2017-04-02T09:25:48Z</time>
      </trkpt>
      <trkpt lat="49.17709" lon="1.99977">
        <ele>165.3</ele>
        <time>2017-04-02T09:25:55Z</time>
      </trkpt>
      <trkpt lat="49.17709" lon="1.99982">
        <ele>163.5</ele>
        <time>2017-04-02T09:26:02Z</time>
      </trkpt>
      <trkpt lat="49.17708" lon="1.99993">
        <ele>163.5</ele>
        <time>2017-04-02T09:26:09Z</time>
      </trkpt>
      <trkpt lat="49.17709" lon="1.99996">
        <ele>162.8</ele>
        <time>2017-04-02T09:26:16Z</time>
      </trkpt>
      <trkpt lat="49.17707" lon="2.00007">
        <ele>160.5</ele>
        <time>2017-04-02T09:26:23Z</time>
      </trkpt>
      <trkpt lat="49.17707" lon="2.0002">
        <ele>159.1</ele>
        <time>2017-04-02T09:26:30Z</time>
      </trkpt>
      <trkpt lat="49.17706" lon="2.00032">
        <ele>160.6</ele>
        <time>2017-04-02T09:26:35Z</time>
      </trkpt>
      <trkpt lat="49.17705" lon="2.00043">
        <ele>160.1</ele>
        <time>2017-04-02T09:26:41Z</time>
      </trkpt>
      <trkpt lat="49.17704" lon="2.00054">
        <ele>160.5</ele>
        <time>2017-04-02T09:26:46Z</time>
      </trkpt>
      <trkpt lat="49.17701" lon="2.00065">
        <ele>160.4</ele>
        <time>2017-04-02T09:26:51Z</time>
      </trkpt>
      <trkpt lat="49.17701" lon="2.00078">
        <ele>164.1</ele>
        <time>2017-04-02T09:26:57Z</time>
      </trkpt>
      <trkpt lat="49.177" lon="2.00089">
        <ele>164.1</ele>
        <time>2017-04-02T09:27:04Z</time>
      </trkpt>
      <trkpt lat="49.17704" lon="2.00099">
        <ele>165.5</ele>
        <time>2017-04-02T09:27:08Z</time>
      </trkpt>
      <trkpt lat="49.17708" lon="2.00109">
        <ele>168</ele>
        <time>2017-04-02T09:27:13Z</time>
      </trkpt>
      <trkpt lat="49.17713" lon="2.00119">
        <ele>168</ele>
        <time>2017-04-02T09:27:20Z</time>
      </trkpt>
      <trkpt lat="49.17719" lon="2.00125">
        <ele>168.9</ele>
        <time>2017-04-02T09:27:27Z</time>
      </trkpt>
      <trkpt lat="49.17727" lon="2.00128">
        <ele>169.4</ele>
        <time>2017-04-02T09:27:34Z</time>
      </trkpt>
      <trkpt lat="49.17734" lon="2.00128">
        <ele>168.6</ele>
        <time>2017-04-02T09:27:41Z</time>
      </trkpt>
      <trkpt lat="49.17741" lon="2.00127">
        <ele>170.3</ele>
        <time>2017-04-02T09:27:48Z</time>
      </trkpt>
      <trkpt lat="49.17745" lon="2.00125">
        <ele>170.3</ele>
        <time>2017-04-02T09:27:55Z</time>
      </trkpt>
      <trkpt lat="49.17752" lon="2.00121">
        <ele>171.5</ele>
        <time>2017-04-02T09:28:01Z</time>
      </trkpt>
      <trkpt lat="49.17758" lon="2.00113">
        <ele>171</ele>
        <time>2017-04-02T09:28:06Z</time>
      </trkpt>
      <trkpt lat="49.17762" lon="2.00103">
        <ele>167.9</ele>
        <time>2017-04-02T09:28:12Z</time>
      </trkpt>
      <trkpt lat="49.17766" lon="2.00094">
        <ele>168.2</ele>
        <time>2017-04-02T09:28:18Z</time>
      </trkpt>
      <trkpt lat="49.1777" lon="2.00084">
        <ele>167.7</ele>
        <time>2017-04-02T09:28:25Z</time>
      </trkpt>
      <trkpt lat="49.17773" lon="2.00075">
        <ele>167.3</ele>
        <time>2017-04-02T09:28:32Z</time>
      </trkpt>
      <trkpt lat="49.17775" lon="2.00063">
        <ele>166.1</ele>
        <time>2017-04-02T09:28:39Z</time>
      </trkpt>
      <trkpt lat="49.17776" lon="2.00052">
        <ele>164.5</ele>
        <time>2017-04-02T09:28:45Z</time>
      </trkpt>
      <trkpt lat="49.17775" lon="2.00041">
        <ele>162.1</ele>
        <time>2017-04-02T09:28:51Z</time>
      </trkpt>
      <trkpt lat="49.17778" lon="2.00031">
        <ele>161.9</ele>
        <time>2017-04-02T09:28:58Z</time>
      </trkpt>
      <trkpt lat="49.17777" lon="2.0002">
        <ele>160</ele>
        <time>2017-04-02T09:29:03Z</time>
      </trkpt>
      <trkpt lat="49.17781" lon="2.0001">
        <ele>158.9</ele>
        <time>2017-04-02T09:29:09Z</time>
      </trkpt>
      <trkpt lat="49.17787" lon="2.00001">
        <ele>158.8</ele>
        <time>2017-04-02T09:29:15Z</time>
      </trkpt>
      <trkpt lat="49.17791" lon="1.99994">
        <ele>159.4</ele>
        <time>2017-04-02T09:29:22Z</time>
      </trkpt>
      <trkpt lat="49.17796" lon="1.99985">
        <ele>159.2</ele>
        <time>2017-04-02T09:29:29Z</time>
      </trkpt>
      <trkpt lat="49.17801" lon="1.99979">
        <ele>157.3</ele>
        <time>2017-04-02T09:29:36Z</time>
      </trkpt>
      <trkpt lat="49.17807" lon="1.99973">
        <ele>156.5</ele>
        <time>2017-04-02T09:29:43Z</time>
      </trkpt>
      <trkpt lat="49.17812" lon="1.99967">
        <ele>154.6</ele>
        <time>2017-04-02T09:29:50Z</time>
      </trkpt>
      <trkpt lat="49.17819" lon="1.99961">
        <ele>152.1</ele>
        <time>2017-04-02T09:29:56Z</time>
      </trkpt>
      <trkpt lat="49.17825" lon="1.99956">
        <ele>151.8</ele>
        <time>2017-04-02T09:30:01Z</time>
      </trkpt>
      <trkpt lat="49.17832" lon="1.9995">
        <ele>153.2</ele>
        <time>2017-04-02T09:30:07Z</time>
      </trkpt>
      <trkpt lat="49.17838" lon="1.99943">
        <ele>152.3</ele>
        <time>2017-04-02T09:30:13Z</time>
      </trkpt>
      <trkpt lat="49.17846" lon="1.99939">
        <ele>153</ele>
        <time>2017-04-02T09:30:19Z</time>
      </trkpt>
      <trkpt lat="49.17852" lon="1.99934">
        <ele>152.3</ele>
        <time>2017-04-02T09:30:26Z</time>
      </trkpt>
      <trkpt lat="49.17857" lon="1.99928">
        <ele>150</ele>
        <time>2017-04-02T09:30:33Z</time>
      </trkpt>
      <trkpt lat="49.17862" lon="1.9992">
        <ele>147.4</ele>
        <time>2017-04-02T09:30:40Z</time>
      </trkpt>
      <trkpt lat="49.17867" lon="1.99912">
        <ele>145.2</ele>
        <time>2017-04-02T09:30:47Z</time>
      </trkpt>
      <trkpt lat="49.17873" lon="1.99905">
        <ele>143.4</ele>
        <time>2017-04-02T09:30:54Z</time>
      </trkpt>
      <trkpt lat="49.1788" lon="1.99898">
        <ele>145.3</ele>
        <time>2017-04-02T09:30:59Z</time>
      </trkpt>
      <trkpt lat="49.17885" lon="1.99889">
        <ele>141.4</ele>
        <time>2017-04-02T09:31:05Z</time>
      </trkpt>
      <trkpt lat="49.17892" lon="1.99883">
        <ele>139.9</ele>
        <time>2017-04-02T09:31:12Z</time>
      </trkpt>
      <trkpt lat="49.17898" lon="1.99877">
        <ele>139.2</ele>
        <time>2017-04-02T09:31:18Z</time>
      </trkpt>
      <trkpt lat="49.17905" lon="1.99868">
        <ele>139.6</ele>
        <time>2017-04-02T09:31:25Z</time>
      </trkpt>
      <trkpt lat="49.17911" lon="1.99861">
        <ele>138.9</ele>
        <time>2017-04-02T09:31:31Z</time>
      </trkpt>
      <trkpt lat="49.17917" lon="1.99855">
        <ele>137.4</ele>
        <time>2017-04-02T09:31:38Z</time>
      </trkpt>
      <trkpt lat="49.17923" lon="1.99848">
        <ele>137.3</ele>
        <time>2017-04-02T09:31:45Z</time>
      </trkpt>
      <trkpt lat="49.17928" lon="1.99839">
        <ele>135.6</ele>
        <time>2017-04-02T09:31:52Z</time>
      </trkpt>
      <trkpt lat="49.17932" lon="1.99831">
        <ele>134.2</ele>
        <time>2017-04-02T09:31:59Z</time>
      </trkpt>
      <trkpt lat="49.17935" lon="1.99824">
        <ele>132.9</ele>
        <time>2017-04-02T09:32:06Z</time>
      </trkpt>
      <trkpt lat="49.17942" lon="1.99816">
        <ele>134</ele>
        <time>2017-04-02T09:32:12Z</time>
      </trkpt>
      <trkpt lat="49.17948" lon="1.99807">
        <ele>134.1</ele>
        <time>2017-04-02T09:32:19Z</time>
      </trkpt>
      <trkpt lat="49.17953" lon="1.99799">
        <ele>133.5</ele>
        <time>2017-04-02T09:32:25Z</time>
      </trkpt>
      <trkpt lat="49.17958" lon="1.99791">
        <ele>132.2</ele>
        <time>2017-04-02T09:32:31Z</time>
      </trkpt>
      <trkpt lat="49.17963" lon="1.99783">
        <ele>130.1</ele>
        <time>2017-04-02T09:32:38Z</time>
      </trkpt>
      <trkpt lat="49.17969" lon="1.99775">
        <ele>130.3</ele>
        <time>2017-04-02T09:32:45Z</time>
      </trkpt>
      <trkpt lat="49.17974" lon="1.99767">
        <ele>130.3</ele>
        <time>2017-04-02T09:32:51Z</time>
      </trkpt>
      <trkpt lat="49.1798" lon="1.9976">
        <ele>130.1</ele>
        <time>2017-04-02T09:32:58Z</time>
      </trkpt>
      <trkpt lat="49.17981" lon="1.9976">
        <ele>130.4</ele>
        <time>2017-04-02T09:33:05Z</time>
      </trkpt>
      <trkpt lat="49.17987" lon="1.99751">
        <ele>128.4</ele>
        <time>2017-04-02T09:33:18Z</time>
      </trkpt>
      <trkpt lat="49.17992" lon="1.99743">
        <ele>123.1</ele>
        <time>2017-04-02T09:33:24Z</time>
      </trkpt>
      <trkpt lat="49.17998" lon="1.99734">
        <ele>123.5</ele>
        <time>2017-04-02T09:33:30Z</time>
      </trkpt>
      <trkpt lat="49.18004" lon="1.99727">
        <ele>124.9</ele>
        <time>2017-04-02T09:33:35Z</time>
      </trkpt>
      <trkpt lat="49.1801" lon="1.99721">
        <ele>124</ele>
        <time>2017-04-02T09:33:41Z</time>
      </trkpt>
      <trkpt lat="49.18016" lon="1.99714">
        <ele>123.4</ele>
        <time>2017-04-02T09:33:47Z</time>
      </trkpt>
      <trkpt lat="49.18022" lon="1.99705">
        <ele>121.4</ele>
        <time>2017-04-02T09:33:54Z</time>
      </trkpt>
      <trkpt lat="49.18029" lon="1.99698">
        <ele>120.7</ele>
        <time>2017-04-02T09:34:00Z</time>
      </trkpt>
      <trkpt lat="49.18035" lon="1.99691">
        <ele>121.4</ele>
        <time>2017-04-02T09:34:05Z</time>
      </trkpt>
      <trkpt lat="49.18042" lon="1.99685">
        <ele>120.1</ele>
        <time>2017-04-02T09:34:11Z</time>
      </trkpt>
      <trkpt lat="49.18049" lon="1.9968">
        <ele>120</ele>
        <time>2017-04-02T09:34:17Z</time>
      </trkpt>
      <trkpt lat="49.18056" lon="1.99675">
        <ele>119.4</ele>
        <time>2017-04-02T09:34:23Z</time>
      </trkpt>
      <trkpt lat="49.18062" lon="1.99668">
        <ele>119.3</ele>
        <time>2017-04-02T09:34:29Z</time>
      </trkpt>
      <trkpt lat="49.1807" lon="1.99663">
        <ele>118.4</ele>
        <time>2017-04-02T09:34:35Z</time>
      </trkpt>
      <trkpt lat="49.18077" lon="1.99657">
        <ele>120.7</ele>
        <time>2017-04-02T09:34:41Z</time>
      </trkpt>
      <trkpt lat="49.18084" lon="1.99652">
        <ele>120.9</ele>
        <time>2017-04-02T09:34:45Z</time>
      </trkpt>
      <trkpt lat="49.1809" lon="1.99645">
        <ele>119.4</ele>
        <time>2017-04-02T09:34:52Z</time>
      </trkpt>
      <trkpt lat="49.18095" lon="1.99639">
        <ele>117.8</ele>
        <time>2017-04-02T09:34:59Z</time>
      </trkpt>
      <trkpt lat="49.18103" lon="1.99633">
        <ele>118.4</ele>
        <time>2017-04-02T09:35:05Z</time>
      </trkpt>
      <trkpt lat="49.1811" lon="1.99628">
        <ele>118.4</ele>
        <time>2017-04-02T09:35:11Z</time>
      </trkpt>
      <trkpt lat="49.18116" lon="1.99622">
        <ele>117.8</ele>
        <time>2017-04-02T09:35:17Z</time>
      </trkpt>
      <trkpt lat="49.18122" lon="1.99616">
        <ele>116.8</ele>
        <time>2017-04-02T09:35:24Z</time>
      </trkpt>
      <trkpt lat="49.18129" lon="1.9961">
        <ele>117</ele>
        <time>2017-04-02T09:35:30Z</time>
      </trkpt>
      <trkpt lat="49.18135" lon="1.99604">
        <ele>116.9</ele>
        <time>2017-04-02T09:35:36Z</time>
      </trkpt>
      <trkpt lat="49.18141" lon="1.99598">
        <ele>116.1</ele>
        <time>2017-04-02T09:35:43Z</time>
      </trkpt>
      <trkpt lat="49.18148" lon="1.99592">
        <ele>116.7</ele>
        <time>2017-04-02T09:35:48Z</time>
      </trkpt>
      <trkpt lat="49.18154" lon="1.99587">
        <ele>117.5</ele>
        <time>2017-04-02T09:35:53Z</time>
      </trkpt>
      <trkpt lat="49.18161" lon="1.99582">
        <ele>115.9</ele>
        <time>2017-04-02T09:36:00Z</time>
      </trkpt>
      <trkpt lat="49.18168" lon="1.99577">
        <ele>115.3</ele>
        <time>2017-04-02T09:36:07Z</time>
      </trkpt>
      <trkpt lat="49.18175" lon="1.9957">
        <ele>114.8</ele>
        <time>2017-04-02T09:36:14Z</time>
      </trkpt>
      <trkpt lat="49.18181" lon="1.99564">
        <ele>114.1</ele>
        <time>2017-04-02T09:36:20Z</time>
      </trkpt>
      <trkpt lat="49.18187" lon="1.99557">
        <ele>114</ele>
        <time>2017-04-02T09:36:26Z</time>
      </trkpt>
      <trkpt lat="49.18193" lon="1.99551">
        <ele>113.1</ele>
        <time>2017-04-02T09:36:33Z</time>
      </trkpt>
      <trkpt lat="49.18193" lon="1.9955">
        <ele>112.7</ele>
        <time>2017-04-02T09:36:40Z</time>
      </trkpt>
      <trkpt lat="49.18194" lon="1.99552">
        <ele>111.3</ele>
        <time>2017-04-02T09:37:11Z</time>
      </trkpt>
      <trkpt lat="49.18198" lon="1.99544">
        <ele>110.3</ele>
        <time>2017-04-02T09:37:26Z</time>
      </trkpt>
      <trkpt lat="49.18205" lon="1.99536">
        <ele>109.7</ele>
        <time>2017-04-02T09:37:33Z</time>
      </trkpt>
      <trkpt lat="49.18212" lon="1.99529">
        <ele>110.2</ele>
        <time>2017-04-02T09:37:39Z</time>
      </trkpt>
      <trkpt lat="49.18219" lon="1.99522">
        <ele>111.1</ele>
        <time>2017-04-02T09:37:45Z</time>
      </trkpt>
      <trkpt lat="49.18225" lon="1.99516">
        <ele>111.8</ele>
        <time>2017-04-02T09:37:51Z</time>
      </trkpt>
      <trkpt lat="49.18231" lon="1.99508">
        <ele>111.7</ele>
        <time>2017-04-02T09:37:58Z</time>
      </trkpt>
      <trkpt lat="49.18238" lon="1.99501">
        <ele>110.2</ele>
        <time>2017-04-02T09:38:05Z</time>
      </trkpt>
      <trkpt lat="49.18243" lon="1.99494">
        <ele>107.9</ele>
        <time>2017-04-02T09:38:11Z</time>
      </trkpt>
      <trkpt lat="49.1825" lon="1.99489">
        <ele>108.6</ele>
        <time>2017-04-02T09:38:17Z</time>
      </trkpt>
      <trkpt lat="49.18256" lon="1.99482">
        <ele>109.8</ele>
        <time>2017-04-02T09:38:23Z</time>
      </trkpt>
      <trkpt lat="49.18262" lon="1.99474">
        <ele>106.9</ele>
        <time>2017-04-02T09:38:30Z</time>
      </trkpt>
      <trkpt lat="49.18268" lon="1.99466">
        <ele>105.6</ele>
        <time>2017-04-02T09:38:36Z</time>
      </trkpt>
      <trkpt lat="49.18274" lon="1.9946">
        <ele>106.7</ele>
        <time>2017-04-02T09:38:42Z</time>
      </trkpt>
      <trkpt lat="49.1828" lon="1.99452">
        <ele>105.6</ele>
        <time>2017-04-02T09:38:49Z</time>
      </trkpt>
      <trkpt lat="49.18286" lon="1.99446">
        <ele>106.8</ele>
        <time>2017-04-02T09:38:55Z</time>
      </trkpt>
      <trkpt lat="49.18293" lon="1.99439">
        <ele>106.5</ele>
        <time>2017-04-02T09:39:01Z</time>
      </trkpt>
      <trkpt lat="49.183" lon="1.99432">
        <ele>106</ele>
        <time>2017-04-02T09:39:07Z</time>
      </trkpt>
      <trkpt lat="49.18306" lon="1.99424">
        <ele>105.2</ele>
        <time>2017-04-02T09:39:13Z</time>
      </trkpt>
      <trkpt lat="49.18312" lon="1.99417">
        <ele>102.4</ele>
        <time>2017-04-02T09:39:20Z</time>
      </trkpt>
      <trkpt lat="49.18317" lon="1.99409">
        <ele>101.3</ele>
        <time>2017-04-02T09:39:27Z</time>
      </trkpt>
      <trkpt lat="49.18323" lon="1.99403">
        <ele>102.4</ele>
        <time>2017-04-02T09:39:33Z</time>
      </trkpt>
      <trkpt lat="49.1833" lon="1.99396">
        <ele>104</ele>
        <time>2017-04-02T09:39:39Z</time>
      </trkpt>
      <trkpt lat="49.18336" lon="1.9939">
        <ele>102.8</ele>
        <time>2017-04-02T09:39:45Z</time>
      </trkpt>
      <trkpt lat="49.18343" lon="1.99384">
        <ele>103.2</ele>
        <time>2017-04-02T09:39:50Z</time>
      </trkpt>
      <trkpt lat="49.18349" lon="1.99378">
        <ele>103.3</ele>
        <time>2017-04-02T09:39:56Z</time>
      </trkpt>
      <trkpt lat="49.18356" lon="1.99371">
        <ele>103</ele>
        <time>2017-04-02T09:40:03Z</time>
      </trkpt>
      <trkpt lat="49.18362" lon="1.99365">
        <ele>103.5</ele>
        <time>2017-04-02T09:40:10Z</time>
      </trkpt>
      <trkpt lat="49.18369" lon="1.99357">
        <ele>103</ele>
        <time>2017-04-02T09:40:17Z</time>
      </trkpt>
      <trkpt lat="49.18376" lon="1.9935">
        <ele>104.6</ele>
        <time>2017-04-02T09:40:23Z</time>
      </trkpt>
      <trkpt lat="49.18382" lon="1.99342">
        <ele>103.9</ele>
        <time>2017-04-02T09:40:31Z</time>
      </trkpt>
      <trkpt lat="49.18388" lon="1.99336">
        <ele>104.1</ele>
        <time>2017-04-02T09:40:37Z</time>
      </trkpt>
      <trkpt lat="49.18395" lon="1.99328">
        <ele>103.7</ele>
        <time>2017-04-02T09:40:44Z</time>
      </trkpt>
      <trkpt lat="49.18402" lon="1.99322">
        <ele>104.4</ele>
        <time>2017-04-02T09:40:50Z</time>
      </trkpt>
      <trkpt lat="49.18408" lon="1.99314">
        <ele>104.1</ele>
        <time>2017-04-02T09:40:56Z</time>
      </trkpt>
      <trkpt lat="49.18414" lon="1.99308">
        <ele>104.8</ele>
        <time>2017-04-02T09:41:02Z</time>
      </trkpt>
      <trkpt lat="49.18421" lon="1.99302">
        <ele>105.6</ele>
        <time>2017-04-02T09:41:07Z</time>
      </trkpt>
      <trkpt lat="49.18426" lon="1.99295">
        <ele>104.5</ele>
        <time>2017-04-02T09:41:13Z</time>
      </trkpt>
      <trkpt lat="49.18433" lon="1.99288">
        <ele>105.5</ele>
        <time>2017-04-02T09:41:19Z</time>
      </trkpt>
      <trkpt lat="49.18439" lon="1.99281">
        <ele>105.2</ele>
        <time>2017-04-02T09:41:25Z</time>
      </trkpt>
      <trkpt lat="49.18445" lon="1.99274">
        <ele>105.9</ele>
        <time>2017-04-02T09:41:31Z</time>
      </trkpt>
      <trkpt lat="49.18451" lon="1.99267">
        <ele>104.6</ele>
        <time>2017-04-02T09:41:37Z</time>
      </trkpt>
      <trkpt lat="49.18456" lon="1.9926">
        <ele>105.1</ele>
        <time>2017-04-02T09:41:44Z</time>
      </trkpt>
      <trkpt lat="49.18463" lon="1.99254">
        <ele>104.9</ele>
        <time>2017-04-02T09:41:50Z</time>
      </trkpt>
      <trkpt lat="49.1847" lon="1.99251">
        <ele>106</ele>
        <time>2017-04-02T09:41:56Z</time>
      </trkpt>
      <trkpt lat="49.18477" lon="1.99248">
        <ele>106.6</ele>
        <time>2017-04-02T09:42:02Z</time>
      </trkpt>
      <trkpt lat="49.18487" lon="1.99248">
        <ele>108</ele>
        <time>2017-04-02T09:42:09Z</time>
      </trkpt>
      <trkpt lat="49.18494" lon="1.99251">
        <ele>110.7</ele>
        <time>2017-04-02T09:42:15Z</time>
      </trkpt>
      <trkpt lat="49.18502" lon="1.99257">
        <ele>114.3</ele>
        <time>2017-04-02T09:42:21Z</time>
      </trkpt>
      <trkpt lat="49.1851" lon="1.9926">
        <ele>117.2</ele>
        <time>2017-04-02T09:42:26Z</time>
      </trkpt>
      <trkpt lat="49.18516" lon="1.99267">
        <ele>117.6</ele>
        <time>2017-04-02T09:42:32Z</time>
      </trkpt>
      <trkpt lat="49.18524" lon="1.99273">
        <ele>118.7</ele>
        <time>2017-04-02T09:42:38Z</time>
      </trkpt>
      <trkpt lat="49.18532" lon="1.99277">
        <ele>119.4</ele>
        <time>2017-04-02T09:42:45Z</time>
      </trkpt>
      <trkpt lat="49.18539" lon="1.99282">
        <ele>118.1</ele>
        <time>2017-04-02T09:42:51Z</time>
      </trkpt>
      <trkpt lat="49.18546" lon="1.99284">
        <ele>119.2</ele>
        <time>2017-04-02T09:42:57Z</time>
      </trkpt>
      <trkpt lat="49.18552" lon="1.99286">
        <ele>117.5</ele>
        <time>2017-04-02T09:43:04Z</time>
      </trkpt>
      <trkpt lat="49.18559" lon="1.99289">
        <ele>119</ele>
        <time>2017-04-02T09:43:10Z</time>
      </trkpt>
      <trkpt lat="49.18566" lon="1.99292">
        <ele>122.4</ele>
        <time>2017-04-02T09:43:16Z</time>
      </trkpt>
      <trkpt lat="49.18574" lon="1.99292">
        <ele>126.1</ele>
        <time>2017-04-02T09:43:22Z</time>
      </trkpt>
      <trkpt lat="49.18582" lon="1.99292">
        <ele>129.8</ele>
        <time>2017-04-02T09:43:28Z</time>
      </trkpt>
      <trkpt lat="49.1859" lon="1.99291">
        <ele>130</ele>
        <time>2017-04-02T09:43:35Z</time>
      </trkpt>
      <trkpt lat="49.18598" lon="1.9929">
        <ele>130.6</ele>
        <time>2017-04-02T09:43:42Z</time>
      </trkpt>
      <trkpt lat="49.18606" lon="1.99292">
        <ele>133</ele>
        <time>2017-04-02T09:43:48Z</time>
      </trkpt>
      <trkpt lat="49.18613" lon="1.99292">
        <ele>132.9</ele>
        <time>2017-04-02T09:43:55Z</time>
      </trkpt>
      <trkpt lat="49.18619" lon="1.99295">
        <ele>134.3</ele>
        <time>2017-04-02T09:44:02Z</time>
      </trkpt>
      <trkpt lat="49.18624" lon="1.99302">
        <ele>137.8</ele>
        <time>2017-04-02T09:44:09Z</time>
      </trkpt>
      <trkpt lat="49.18632" lon="1.99305">
        <ele>141</ele>
        <time>2017-04-02T09:44:14Z</time>
      </trkpt>
      <trkpt lat="49.1864" lon="1.99309">
        <ele>141.7</ele>
        <time>2017-04-02T09:44:20Z</time>
      </trkpt>
      <trkpt lat="49.18647" lon="1.99312">
        <ele>142.4</ele>
        <time>2017-04-02T09:44:25Z</time>
      </trkpt>
      <trkpt lat="49.18655" lon="1.99316">
        <ele>140.3</ele>
        <time>2017-04-02T09:44:31Z</time>
      </trkpt>
      <trkpt lat="49.1866" lon="1.99321">
        <ele>134.9</ele>
        <time>2017-04-02T09:44:38Z</time>
      </trkpt>
      <trkpt lat="49.18668" lon="1.99324">
        <ele>136.4</ele>
        <time>2017-04-02T09:44:45Z</time>
      </trkpt>
      <trkpt lat="49.18675" lon="1.99327">
        <ele>136.6</ele>
        <time>2017-04-02T09:44:52Z</time>
      </trkpt>
      <trkpt lat="49.18676" lon="1.99327">
        <ele>135.4</ele>
        <time>2017-04-02T09:44:59Z</time>
      </trkpt>
      <trkpt lat="49.18683" lon="1.99332">
        <ele>136.6</ele>
        <time>2017-04-02T09:46:40Z</time>
      </trkpt>
      <trkpt lat="49.18688" lon="1.99336">
        <ele>134.8</ele>
        <time>2017-04-02T09:46:47Z</time>
      </trkpt>
      <trkpt lat="49.18696" lon="1.99341">
        <ele>133.9</ele>
        <time>2017-04-02T09:46:54Z</time>
      </trkpt>
      <trkpt lat="49.18701" lon="1.99346">
        <ele>132.1</ele>
        <time>2017-04-02T09:47:01Z</time>
      </trkpt>
      <trkpt lat="49.18706" lon="1.99354">
        <ele>130.2</ele>
        <time>2017-04-02T09:47:08Z</time>
      </trkpt>
      <trkpt lat="49.18712" lon="1.99361">
        <ele>129.2</ele>
        <time>2017-04-02T09:47:15Z</time>
      </trkpt>
      <trkpt lat="49.18718" lon="1.99368">
        <ele>127.5</ele>
        <time>2017-04-02T09:47:22Z</time>
      </trkpt>
      <trkpt lat="49.18724" lon="1.99373">
        <ele>127.4</ele>
        <time>2017-04-02T09:47:28Z</time>
      </trkpt>
      <trkpt lat="49.1873" lon="1.99381">
        <ele>127.6</ele>
        <time>2017-04-02T09:47:34Z</time>
      </trkpt>
      <trkpt lat="49.18737" lon="1.99384">
        <ele>124</ele>
        <time>2017-04-02T09:47:41Z</time>
      </trkpt>
      <trkpt lat="49.18743" lon="1.99385">
        <ele>121.6</ele>
        <time>2017-04-02T09:47:48Z</time>
      </trkpt>
      <trkpt lat="49.18751" lon="1.99384">
        <ele>120.5</ele>
        <time>2017-04-02T09:47:54Z</time>
      </trkpt>
      <trkpt lat="49.18759" lon="1.99385">
        <ele>120.3</ele>
        <time>2017-04-02T09:48:01Z</time>
      </trkpt>
      <trkpt lat="49.18767" lon="1.99384">
        <ele>120</ele>
        <time>2017-04-02T09:48:07Z</time>
      </trkpt>
      <trkpt lat="49.18775" lon="1.99384">
        <ele>119.8</ele>
        <time>2017-04-02T09:48:14Z</time>
      </trkpt>
      <trkpt lat="49.18782" lon="1.99383">
        <ele>121.1</ele>
        <time>2017-04-02T09:48:19Z</time>
      </trkpt>
      <trkpt lat="49.18789" lon="1.99381">
        <ele>121.7</ele>
        <time>2017-04-02T09:48:24Z</time>
      </trkpt>
      <trkpt lat="49.18796" lon="1.99376">
        <ele>122.1</ele>
        <time>2017-04-02T09:48:30Z</time>
      </trkpt>
      <trkpt lat="49.18803" lon="1.99372">
        <ele>122</ele>
        <time>2017-04-02T09:48:37Z</time>
      </trkpt>
      <trkpt lat="49.1881" lon="1.99366">
        <ele>123.6</ele>
        <time>2017-04-02T09:48:44Z</time>
      </trkpt>
      <trkpt lat="49.18817" lon="1.9936">
        <ele>123.7</ele>
        <time>2017-04-02T09:48:51Z</time>
      </trkpt>
      <trkpt lat="49.18823" lon="1.99354">
        <ele>122.7</ele>
        <time>2017-04-02T09:48:58Z</time>
      </trkpt>
      <trkpt lat="49.18829" lon="1.99347">
        <ele>125.1</ele>
        <time>2017-04-02T09:49:03Z</time>
      </trkpt>
      <trkpt lat="49.18834" lon="1.99339">
        <ele>127.3</ele>
        <time>2017-04-02T09:49:08Z</time>
      </trkpt>
      <trkpt lat="49.18839" lon="1.9933">
        <ele>127.6</ele>
        <time>2017-04-02T09:49:14Z</time>
      </trkpt>
      <trkpt lat="49.18844" lon="1.99322">
        <ele>127.6</ele>
        <time>2017-04-02T09:49:19Z</time>
      </trkpt>
      <trkpt lat="49.18851" lon="1.99313">
        <ele>126.6</ele>
        <time>2017-04-02T09:49:25Z</time>
      </trkpt>
      <trkpt lat="49.18857" lon="1.99306">
        <ele>127.3</ele>
        <time>2017-04-02T09:49:31Z</time>
      </trkpt>
      <trkpt lat="49.18862" lon="1.993">
        <ele>125.9</ele>
        <time>2017-04-02T09:49:38Z</time>
      </trkpt>
      <trkpt lat="49.18867" lon="1.99293">
        <ele>123.8</ele>
        <time>2017-04-02T09:49:45Z</time>
      </trkpt>
      <trkpt lat="49.18872" lon="1.99285">
        <ele>122.8</ele>
        <time>2017-04-02T09:49:51Z</time>
      </trkpt>
      <trkpt lat="49.18876" lon="1.99274">
        <ele>123.7</ele>
        <time>2017-04-02T09:49:57Z</time>
      </trkpt>
      <trkpt lat="49.18881" lon="1.99263">
        <ele>125.4</ele>
        <time>2017-04-02T09:50:03Z</time>
      </trkpt>
      <trkpt lat="49.18885" lon="1.99253">
        <ele>127.1</ele>
        <time>2017-04-02T09:50:09Z</time>
      </trkpt>
      <trkpt lat="49.18888" lon="1.99242">
        <ele>128.4</ele>
        <time>2017-04-02T09:50:15Z</time>
      </trkpt>
      <trkpt lat="49.18892" lon="1.99232">
        <ele>129.6</ele>
        <time>2017-04-02T09:50:21Z</time>
      </trkpt>
      <trkpt lat="49.18896" lon="1.99222">
        <ele>130.6</ele>
        <time>2017-04-02T09:50:27Z</time>
      </trkpt>
      <trkpt lat="49.18901" lon="1.99211">
        <ele>130.8</ele>
        <time>2017-04-02T09:50:33Z</time>
      </trkpt>
      <trkpt lat="49.18904" lon="1.992">
        <ele>132.3</ele>
        <time>2017-04-02T09:50:39Z</time>
      </trkpt>
      <trkpt lat="49.18907" lon="1.9919">
        <ele>133.7</ele>
        <time>2017-04-02T09:50:46Z</time>
      </trkpt>
      <trkpt lat="49.1891" lon="1.9918">
        <ele>134.6</ele>
        <time>2017-04-02T09:50:52Z</time>
      </trkpt>
      <trkpt lat="49.18913" lon="1.9917">
        <ele>135.3</ele>
        <time>2017-04-02T09:50:59Z</time>
      </trkpt>
      <trkpt lat="49.18916" lon="1.99161">
        <ele>135.6</ele>
        <time>2017-04-02T09:51:06Z</time>
      </trkpt>
      <trkpt lat="49.18918" lon="1.99153">
        <ele>134.8</ele>
        <time>2017-04-02T09:51:13Z</time>
      </trkpt>
      <trkpt lat="49.18922" lon="1.99146">
        <ele>132.9</ele>
        <time>2017-04-02T09:51:20Z</time>
      </trkpt>
      <trkpt lat="49.18926" lon="1.99136">
        <ele>131</ele>
        <time>2017-04-02T09:51:27Z</time>
      </trkpt>
      <trkpt lat="49.1893" lon="1.99127">
        <ele>130.7</ele>
        <time>2017-04-02T09:51:34Z</time>
      </trkpt>
      <trkpt lat="49.18935" lon="1.99119">
        <ele>130.4</ele>
        <time>2017-04-02T09:51:40Z</time>
      </trkpt>
      <trkpt lat="49.18941" lon="1.99111">
        <ele>130.5</ele>
        <time>2017-04-02T09:51:47Z</time>
      </trkpt>
      <trkpt lat="49.18947" lon="1.99103">
        <ele>129.9</ele>
        <time>2017-04-02T09:51:54Z</time>
      </trkpt>
      <trkpt lat="49.18953" lon="1.99095">
        <ele>129</ele>
        <time>2017-04-02T09:52:00Z</time>
      </trkpt>
      <trkpt lat="49.18958" lon="1.99089">
        <ele>129.1</ele>
        <time>2017-04-02T09:52:07Z</time>
      </trkpt>
      <trkpt lat="49.18963" lon="1.99081">
        <ele>128.2</ele>
        <time>2017-04-02T09:52:13Z</time>
      </trkpt>
      <trkpt lat="49.1897" lon="1.99073">
        <ele>126.3</ele>
        <time>2017-04-02T09:52:20Z</time>
      </trkpt>
      <trkpt lat="49.18976" lon="1.99067">
        <ele>125.4</ele>
        <time>2017-04-02T09:52:26Z</time>
      </trkpt>
      <trkpt lat="49.18982" lon="1.99061">
        <ele>126.2</ele>
        <time>2017-04-02T09:52:32Z</time>
      </trkpt>
      <trkpt lat="49.18989" lon="1.99054">
        <ele>126.9</ele>
        <time>2017-04-02T09:52:38Z</time>
      </trkpt>
      <trkpt lat="49.18995" lon="1.99048">
        <ele>126.4</ele>
        <time>2017-04-02T09:52:45Z</time>
      </trkpt>
      <trkpt lat="49.19002" lon="1.99043">
        <ele>126</ele>
        <time>2017-04-02T09:52:51Z</time>
      </trkpt>
      <trkpt lat="49.19009" lon="1.99038">
        <ele>126.7</ele>
        <time>2017-04-02T09:52:57Z</time>
      </trkpt>
      <trkpt lat="49.19017" lon="1.99032">
        <ele>128.4</ele>
        <time>2017-04-02T09:53:04Z</time>
      </trkpt>
      <trkpt lat="49.19024" lon="1.99027">
        <ele>127.9</ele>
        <time>2017-04-02T09:53:10Z</time>
      </trkpt>
      <trkpt lat="49.19031" lon="1.99023">
        <ele>127.8</ele>
        <time>2017-04-02T09:53:16Z</time>
      </trkpt>
      <trkpt lat="49.19038" lon="1.99017">
        <ele>126.9</ele>
        <time>2017-04-02T09:53:23Z</time>
      </trkpt>
      <trkpt lat="49.19045" lon="1.99013">
        <ele>125.8</ele>
        <time>2017-04-02T09:53:30Z</time>
      </trkpt>
      <trkpt lat="49.19052" lon="1.99009">
        <ele>124.3</ele>
        <time>2017-04-02T09:53:36Z</time>
      </trkpt>
      <trkpt lat="49.19059" lon="1.99007">
        <ele>124.7</ele>
        <time>2017-04-02T09:53:42Z</time>
      </trkpt>
      <trkpt lat="49.19067" lon="1.99006">
        <ele>124.9</ele>
        <time>2017-04-02T09:53:48Z</time>
      </trkpt>
      <trkpt lat="49.19075" lon="1.99007">
        <ele>123.9</ele>
        <time>2017-04-02T09:53:55Z</time>
      </trkpt>
      <trkpt lat="49.19083" lon="1.99009">
        <ele>125</ele>
        <time>2017-04-02T09:54:01Z</time>
      </trkpt>
      <trkpt lat="49.1909" lon="1.99013">
        <ele>126.5</ele>
        <time>2017-04-02T09:54:07Z</time>
      </trkpt>
      <trkpt lat="49.19097" lon="1.99018">
        <ele>128.5</ele>
        <time>2017-04-02T09:54:13Z</time>
      </trkpt>
      <trkpt lat="49.19103" lon="1.99024">
        <ele>130.3</ele>
        <time>2017-04-02T09:54:18Z</time>
      </trkpt>
      <trkpt lat="49.19109" lon="1.99032">
        <ele>131.2</ele>
        <time>2017-04-02T09:54:24Z</time>
      </trkpt>
      <trkpt lat="49.19114" lon="1.9904">
        <ele>131.8</ele>
        <time>2017-04-02T09:54:30Z</time>
      </trkpt>
      <trkpt lat="49.1912" lon="1.99047">
        <ele>132.8</ele>
        <time>2017-04-02T09:54:37Z</time>
      </trkpt>
      <trkpt lat="49.19126" lon="1.99054">
        <ele>132.1</ele>
        <time>2017-04-02T09:54:42Z</time>
      </trkpt>
      <trkpt lat="49.19133" lon="1.99061">
        <ele>133.1</ele>
        <time>2017-04-02T09:54:48Z</time>
      </trkpt>
      <trkpt lat="49.1914" lon="1.99065">
        <ele>133</ele>
        <time>2017-04-02T09:54:54Z</time>
      </trkpt>
      <trkpt lat="49.19147" lon="1.9907">
        <ele>132.3</ele>
        <time>2017-04-02T09:55:00Z</time>
      </trkpt>
      <trkpt lat="49.19154" lon="1.99075">
        <ele>132.6</ele>
        <time>2017-04-02T09:55:07Z</time>
      </trkpt>
      <trkpt lat="49.19161" lon="1.99079">
        <ele>132.2</ele>
        <time>2017-04-02T09:55:14Z</time>
      </trkpt>
      <trkpt lat="49.19168" lon="1.99083">
        <ele>132.6</ele>
        <time>2017-04-02T09:55:21Z</time>
      </trkpt>
      <trkpt lat="49.19175" lon="1.99087">
        <ele>133.4</ele>
        <time>2017-04-02T09:55:27Z</time>
      </trkpt>
      <trkpt lat="49.19183" lon="1.99092">
        <ele>131.3</ele>
        <time>2017-04-02T09:55:34Z</time>
      </trkpt>
      <trkpt lat="49.1919" lon="1.99095">
        <ele>132.3</ele>
        <time>2017-04-02T09:55:39Z</time>
      </trkpt>
      <trkpt lat="49.19197" lon="1.99098">
        <ele>131.3</ele>
        <time>2017-04-02T09:55:44Z</time>
      </trkpt>
      <trkpt lat="49.19204" lon="1.99101">
        <ele>131.7</ele>
        <time>2017-04-02T09:55:49Z</time>
      </trkpt>
      <trkpt lat="49.19211" lon="1.99105">
        <ele>132.6</ele>
        <time>2017-04-02T09:55:55Z</time>
      </trkpt>
      <trkpt lat="49.19219" lon="1.99108">
        <ele>132.2</ele>
        <time>2017-04-02T09:56:03Z</time>
      </trkpt>
      <trkpt lat="49.19227" lon="1.99112">
        <ele>131.6</ele>
        <time>2017-04-02T09:56:08Z</time>
      </trkpt>
      <trkpt lat="49.19235" lon="1.99114">
        <ele>129.6</ele>
        <time>2017-04-02T09:56:15Z</time>
      </trkpt>
      <trkpt lat="49.19242" lon="1.99116">
        <ele>129.4</ele>
        <time>2017-04-02T09:56:22Z</time>
      </trkpt>
      <trkpt lat="49.19247" lon="1.99116">
        <ele>127</ele>
        <time>2017-04-02T09:56:29Z</time>
      </trkpt>
      <trkpt lat="49.19252" lon="1.99119">
        <ele>123.2</ele>
        <time>2017-04-02T09:56:36Z</time>
      </trkpt>
      <trkpt lat="49.19258" lon="1.99119">
        <ele>122.4</ele>
        <time>2017-04-02T09:56:43Z</time>
      </trkpt>
      <trkpt lat="49.19265" lon="1.99119">
        <ele>124.9</ele>
        <time>2017-04-02T09:56:50Z</time>
      </trkpt>
      <trkpt lat="49.19272" lon="1.99119">
        <ele>126.6</ele>
        <time>2017-04-02T09:56:57Z</time>
      </trkpt>
      <trkpt lat="49.19279" lon="1.99119">
        <ele>127.7</ele>
        <time>2017-04-02T09:57:04Z</time>
      </trkpt>
      <trkpt lat="49.19287" lon="1.99119">
        <ele>129.7</ele>
        <time>2017-04-02T09:57:09Z</time>
      </trkpt>
      <trkpt lat="49.19295" lon="1.9912">
        <ele>131.9</ele>
        <time>2017-04-02T09:57:15Z</time>
      </trkpt>
      <trkpt lat="49.19301" lon="1.99122">
        <ele>133.7</ele>
        <time>2017-04-02T09:57:22Z</time>
      </trkpt>
      <trkpt lat="49.19308" lon="1.99122">
        <ele>136.8</ele>
        <time>2017-04-02T09:57:29Z</time>
      </trkpt>
      <trkpt lat="49.19316" lon="1.99121">
        <ele>139.1</ele>
        <time>2017-04-02T09:57:35Z</time>
      </trkpt>
      <trkpt lat="49.19324" lon="1.99121">
        <ele>138.7</ele>
        <time>2017-04-02T09:57:41Z</time>
      </trkpt>
      <trkpt lat="49.19327" lon="1.99119">
        <ele>140.2</ele>
        <time>2017-04-02T09:57:48Z</time>
      </trkpt>
      <trkpt lat="49.19335" lon="1.99123">
        <ele>142.5</ele>
        <time>2017-04-02T09:57:55Z</time>
      </trkpt>
      <trkpt lat="49.19335" lon="1.99124">
        <ele>142.2</ele>
        <time>2017-04-02T09:58:02Z</time>
      </trkpt>
      <trkpt lat="49.19338" lon="1.99131">
        <ele>142.6</ele>
        <time>2017-04-02T09:58:09Z</time>
      </trkpt>
      <trkpt lat="49.19341" lon="1.99139">
        <ele>145.7</ele>
        <time>2017-04-02T09:58:21Z</time>
      </trkpt>
      <trkpt lat="49.19343" lon="1.99144">
        <ele>146.6</ele>
        <time>2017-04-02T09:58:27Z</time>
      </trkpt>
      <trkpt lat="49.19345" lon="1.99153">
        <ele>148.1</ele>
        <time>2017-04-02T09:58:34Z</time>
      </trkpt>
      <trkpt lat="49.19347" lon="1.99161">
        <ele>148</ele>
        <time>2017-04-02T09:58:41Z</time>
      </trkpt>
      <trkpt lat="49.19349" lon="1.99171">
        <ele>150.1</ele>
        <time>2017-04-02T09:58:48Z</time>
      </trkpt>
      <trkpt lat="49.1935" lon="1.9918">
        <ele>151.9</ele>
        <time>2017-04-02T09:58:55Z</time>
      </trkpt>
      <trkpt lat="49.19353" lon="1.9919">
        <ele>153.6</ele>
        <time>2017-04-02T09:59:03Z</time>
      </trkpt>
      <trkpt lat="49.19357" lon="1.992">
        <ele>155.1</ele>
        <time>2017-04-02T09:59:09Z</time>
      </trkpt>
      <trkpt lat="49.19357" lon="1.99212">
        <ele>149.7</ele>
        <time>2017-04-02T09:59:16Z</time>
      </trkpt>
      <trkpt lat="49.19362" lon="1.99223">
        <ele>151.4</ele>
        <time>2017-04-02T09:59:23Z</time>
      </trkpt>
      <trkpt lat="49.19363" lon="1.99235">
        <ele>151.8</ele>
        <time>2017-04-02T09:59:30Z</time>
      </trkpt>
      <trkpt lat="49.19366" lon="1.99246">
        <ele>154.5</ele>
        <time>2017-04-02T09:59:37Z</time>
      </trkpt>
      <trkpt lat="49.19368" lon="1.99255">
        <ele>155.4</ele>
        <time>2017-04-02T09:59:44Z</time>
      </trkpt>
      <trkpt lat="49.1937" lon="1.99266">
        <ele>155.5</ele>
        <time>2017-04-02T09:59:51Z</time>
      </trkpt>
      <trkpt lat="49.19372" lon="1.99277">
        <ele>153.1</ele>
        <time>2017-04-02T09:59:58Z</time>
      </trkpt>
      <trkpt lat="49.19376" lon="1.99287">
        <ele>154.2</ele>
        <time>2017-04-02T10:00:05Z</time>
      </trkpt>
      <trkpt lat="49.19378" lon="1.99296">
        <ele>157</ele>
        <time>2017-04-02T10:00:12Z</time>
      </trkpt>
      <trkpt lat="49.19379" lon="1.99307">
        <ele>157.2</ele>
        <time>2017-04-02T10:00:19Z</time>
      </trkpt>
      <trkpt lat="49.19381" lon="1.99318">
        <ele>157.2</ele>
        <time>2017-04-02T10:00:26Z</time>
      </trkpt>
      <trkpt lat="49.19383" lon="1.9933">
        <ele>156.3</ele>
        <time>2017-04-02T10:00:33Z</time>
      </trkpt>
      <trkpt lat="49.19384" lon="1.99343">
        <ele>156.1</ele>
        <time>2017-04-02T10:00:39Z</time>
      </trkpt>
      <trkpt lat="49.19387" lon="1.99353">
        <ele>155.8</ele>
        <time>2017-04-02T10:00:45Z</time>
      </trkpt>
      <trkpt lat="49.19388" lon="1.99364">
        <ele>156.8</ele>
        <time>2017-04-02T10:00:51Z</time>
      </trkpt>
      <trkpt lat="49.19391" lon="1.99375">
        <ele>156</ele>
        <time>2017-04-02T10:00:58Z</time>
      </trkpt>
      <trkpt lat="49.19394" lon="1.99385">
        <ele>156</ele>
        <time>2017-04-02T10:01:05Z</time>
      </trkpt>
      <trkpt lat="49.19394" lon="1.99397">
        <ele>155.7</ele>
        <time>2017-04-02T10:01:11Z</time>
      </trkpt>
      <trkpt lat="49.19395" lon="1.99409">
        <ele>155.3</ele>
        <time>2017-04-02T10:01:19Z</time>
      </trkpt>
      <trkpt lat="49.19395" lon="1.99421">
        <ele>156.2</ele>
        <time>2017-04-02T10:01:26Z</time>
      </trkpt>
      <trkpt lat="49.19395" lon="1.99432">
        <ele>155.7</ele>
        <time>2017-04-02T10:01:33Z</time>
      </trkpt>
      <trkpt lat="49.19394" lon="1.99443">
        <ele>156.3</ele>
        <time>2017-04-02T10:01:40Z</time>
      </trkpt>
      <trkpt lat="49.19392" lon="1.99454">
        <ele>156.4</ele>
        <time>2017-04-02T10:01:46Z</time>
      </trkpt>
      <trkpt lat="49.1939" lon="1.99466">
        <ele>155.6</ele>
        <time>2017-04-02T10:01:52Z</time>
      </trkpt>
      <trkpt lat="49.19387" lon="1.99477">
        <ele>156.3</ele>
        <time>2017-04-02T10:01:58Z</time>
      </trkpt>
      <trkpt lat="49.19384" lon="1.99488">
        <ele>157.6</ele>
        <time>2017-04-02T10:02:05Z</time>
      </trkpt>
      <trkpt lat="49.1938" lon="1.99499">
        <ele>157.3</ele>
        <time>2017-04-02T10:02:12Z</time>
      </trkpt>
      <trkpt lat="49.19379" lon="1.99511">
        <ele>156.6</ele>
        <time>2017-04-02T10:02:18Z</time>
      </trkpt>
      <trkpt lat="49.19375" lon="1.99522">
        <ele>157.6</ele>
        <time>2017-04-02T10:02:25Z</time>
      </trkpt>
      <trkpt lat="49.19373" lon="1.99532">
        <ele>154.8</ele>
        <time>2017-04-02T10:02:32Z</time>
      </trkpt>
      <trkpt lat="49.19368" lon="1.99542">
        <ele>154.5</ele>
        <time>2017-04-02T10:02:38Z</time>
      </trkpt>
      <trkpt lat="49.19366" lon="1.99551">
        <ele>154.5</ele>
        <time>2017-04-02T10:02:44Z</time>
      </trkpt>
      <trkpt lat="49.19363" lon="1.99563">
        <ele>153.6</ele>
        <time>2017-04-02T10:02:51Z</time>
      </trkpt>
      <trkpt lat="49.1936" lon="1.99572">
        <ele>151.6</ele>
        <time>2017-04-02T10:02:57Z</time>
      </trkpt>
      <trkpt lat="49.19357" lon="1.99583">
        <ele>148.5</ele>
        <time>2017-04-02T10:03:04Z</time>
      </trkpt>
      <trkpt lat="49.19354" lon="1.99592">
        <ele>147.1</ele>
        <time>2017-04-02T10:03:11Z</time>
      </trkpt>
      <trkpt lat="49.19352" lon="1.99604">
        <ele>150.5</ele>
        <time>2017-04-02T10:03:18Z</time>
      </trkpt>
      <trkpt lat="49.19353" lon="1.99614">
        <ele>154.3</ele>
        <time>2017-04-02T10:03:25Z</time>
      </trkpt>
      <trkpt lat="49.19353" lon="1.99626">
        <ele>154.5</ele>
        <time>2017-04-02T10:03:32Z</time>
      </trkpt>
      <trkpt lat="49.19353" lon="1.99635">
        <ele>155.6</ele>
        <time>2017-04-02T10:03:39Z</time>
      </trkpt>
      <trkpt lat="49.19353" lon="1.99646">
        <ele>158</ele>
        <time>2017-04-02T10:03:46Z</time>
      </trkpt>
      <trkpt lat="49.19354" lon="1.99658">
        <ele>158.7</ele>
        <time>2017-04-02T10:03:53Z</time>
      </trkpt>
      <trkpt lat="49.19352" lon="1.99668">
        <ele>160.1</ele>
        <time>2017-04-02T10:04:00Z</time>
      </trkpt>
      <trkpt lat="49.19352" lon="1.9968">
        <ele>164.3</ele>
        <time>2017-04-02T10:04:07Z</time>
      </trkpt>
      <trkpt lat="49.1935" lon="1.99691">
        <ele>165</ele>
        <time>2017-04-02T10:04:14Z</time>
      </trkpt>
      <trkpt lat="49.19348" lon="1.99701">
        <ele>166.7</ele>
        <time>2017-04-02T10:04:21Z</time>
      </trkpt>
      <trkpt lat="49.19347" lon="1.99712">
        <ele>167.9</ele>
        <time>2017-04-02T10:04:28Z</time>
      </trkpt>
      <trkpt lat="49.19346" lon="1.99722">
        <ele>168.8</ele>
        <time>2017-04-02T10:04:35Z</time>
      </trkpt>
      <trkpt lat="49.19346" lon="1.99733">
        <ele>167.3</ele>
        <time>2017-04-02T10:04:42Z</time>
      </trkpt>
      <trkpt lat="49.19348" lon="1.99741">
        <ele>167.8</ele>
        <time>2017-04-02T10:04:49Z</time>
      </trkpt>
      <trkpt lat="49.19351" lon="1.9975">
        <ele>168.7</ele>
        <time>2017-04-02T10:04:56Z</time>
      </trkpt>
      <trkpt lat="49.19353" lon="1.9976">
        <ele>167.3</ele>
        <time>2017-04-02T10:05:03Z</time>
      </trkpt>
      <trkpt lat="49.19355" lon="1.9977">
        <ele>165.7</ele>
        <time>2017-04-02T10:05:09Z</time>
      </trkpt>
      <trkpt lat="49.19357" lon="1.99782">
        <ele>162.5</ele>
        <time>2017-04-02T10:05:16Z</time>
      </trkpt>
      <trkpt lat="49.19359" lon="1.99794">
        <ele>166.7</ele>
        <time>2017-04-02T10:05:22Z</time>
      </trkpt>
      <trkpt lat="49.19361" lon="1.99807">
        <ele>171.6</ele>
        <time>2017-04-02T10:05:29Z</time>
      </trkpt>
      <trkpt lat="49.19362" lon="1.99817">
        <ele>175.3</ele>
        <time>2017-04-02T10:05:36Z</time>
      </trkpt>
      <trkpt lat="49.19363" lon="1.99827">
        <ele>179.3</ele>
        <time>2017-04-02T10:05:43Z</time>
      </trkpt>
      <trkpt lat="49.19364" lon="1.99838">
        <ele>183</ele>
        <time>2017-04-02T10:05:50Z</time>
      </trkpt>
      <trkpt lat="49.19364" lon="1.99848">
        <ele>186.6</ele>
        <time>2017-04-02T10:05:57Z</time>
      </trkpt>
      <trkpt lat="49.19362" lon="1.99856">
        <ele>188.6</ele>
        <time>2017-04-02T10:06:04Z</time>
      </trkpt>
      <trkpt lat="49.1936" lon="1.99862">
        <ele>189.1</ele>
        <time>2017-04-02T10:06:11Z</time>
      </trkpt>
      <trkpt lat="49.19357" lon="1.9987">
        <ele>188.3</ele>
        <time>2017-04-02T10:06:18Z</time>
      </trkpt>
      <trkpt lat="49.19353" lon="1.99876">
        <ele>189.1</ele>
        <time>2017-04-02T10:06:25Z</time>
      </trkpt>
      <trkpt lat="49.1935" lon="1.99885">
        <ele>187.4</ele>
        <time>2017-04-02T10:06:32Z</time>
      </trkpt>
      <trkpt lat="49.19345" lon="1.9989">
        <ele>186.8</ele>
        <time>2017-04-02T10:06:39Z</time>
      </trkpt>
      <trkpt lat="49.19339" lon="1.99894">
        <ele>187.7</ele>
        <time>2017-04-02T10:06:46Z</time>
      </trkpt>
      <trkpt lat="49.19335" lon="1.99899">
        <ele>186.3</ele>
        <time>2017-04-02T10:06:53Z</time>
      </trkpt>
      <trkpt lat="49.19331" lon="1.99907">
        <ele>185.3</ele>
        <time>2017-04-02T10:07:00Z</time>
      </trkpt>
      <trkpt lat="49.19328" lon="1.99915">
        <ele>183.1</ele>
        <time>2017-04-02T10:07:07Z</time>
      </trkpt>
      <trkpt lat="49.19325" lon="1.99921">
        <ele>181</ele>
        <time>2017-04-02T10:07:14Z</time>
      </trkpt>
      <trkpt lat="49.19323" lon="1.99929">
        <ele>181</ele>
        <time>2017-04-02T10:07:21Z</time>
      </trkpt>
      <trkpt lat="49.19322" lon="1.99938">
        <ele>181.6</ele>
        <time>2017-04-02T10:07:28Z</time>
      </trkpt>
      <trkpt lat="49.1932" lon="1.99949">
        <ele>181.5</ele>
        <time>2017-04-02T10:07:35Z</time>
      </trkpt>
      <trkpt lat="49.19318" lon="1.9996">
        <ele>177.1</ele>
        <time>2017-04-02T10:07:42Z</time>
      </trkpt>
      <trkpt lat="49.19316" lon="1.99973">
        <ele>174.3</ele>
        <time>2017-04-02T10:07:48Z</time>
      </trkpt>
      <trkpt lat="49.19316" lon="1.99984">
        <ele>174</ele>
        <time>2017-04-02T10:07:55Z</time>
      </trkpt>
      <trkpt lat="49.19315" lon="1.99993">
        <ele>175</ele>
        <time>2017-04-02T10:08:02Z</time>
      </trkpt>
      <trkpt lat="49.19312" lon="2.00001">
        <ele>174.9</ele>
        <time>2017-04-02T10:08:09Z</time>
      </trkpt>
      <trkpt lat="49.19309" lon="2.00011">
        <ele>177</ele>
        <time>2017-04-02T10:08:15Z</time>
      </trkpt>
      <trkpt lat="49.19307" lon="2.00021">
        <ele>179.1</ele>
        <time>2017-04-02T10:08:22Z</time>
      </trkpt>
      <trkpt lat="49.19304" lon="2.00033">
        <ele>181.9</ele>
        <time>2017-04-02T10:08:29Z</time>
      </trkpt>
      <trkpt lat="49.19302" lon="2.00041">
        <ele>184.5</ele>
        <time>2017-04-02T10:08:36Z</time>
      </trkpt>
      <trkpt lat="49.19298" lon="2.00052">
        <ele>184.2</ele>
        <time>2017-04-02T10:08:43Z</time>
      </trkpt>
      <trkpt lat="49.19295" lon="2.0006">
        <ele>183.1</ele>
        <time>2017-04-02T10:08:50Z</time>
      </trkpt>
      <trkpt lat="49.19294" lon="2.00068">
        <ele>184.1</ele>
        <time>2017-04-02T10:08:57Z</time>
      </trkpt>
      <trkpt lat="49.19292" lon="2.00075">
        <ele>188.4</ele>
        <time>2017-04-02T10:09:04Z</time>
      </trkpt>
      <trkpt lat="49.19294" lon="2.00081">
        <ele>191.3</ele>
        <time>2017-04-02T10:09:11Z</time>
      </trkpt>
      <trkpt lat="49.19294" lon="2.00092">
        <ele>194</ele>
        <time>2017-04-02T10:14:53Z</time>
      </trkpt>
      <trkpt lat="49.19297" lon="2.00102">
        <ele>194.9</ele>
        <time>2017-04-02T10:15:00Z</time>
      </trkpt>
      <trkpt lat="49.19303" lon="2.0011">
        <ele>197.1</ele>
        <time>2017-04-02T10:15:07Z</time>
      </trkpt>
      <trkpt lat="49.19306" lon="2.00121">
        <ele>197.8</ele>
        <time>2017-04-02T10:15:14Z</time>
      </trkpt>
      <trkpt lat="49.19311" lon="2.00129">
        <ele>198.6</ele>
        <time>2017-04-02T10:15:21Z</time>
      </trkpt>
      <trkpt lat="49.19316" lon="2.00137">
        <ele>201.2</ele>
        <time>2017-04-02T10:15:28Z</time>
      </trkpt>
      <trkpt lat="49.19323" lon="2.00142">
        <ele>202.4</ele>
        <time>2017-04-02T10:15:35Z</time>
      </trkpt>
      <trkpt lat="49.19329" lon="2.00148">
        <ele>201.6</ele>
        <time>2017-04-02T10:15:42Z</time>
      </trkpt>
      <trkpt lat="49.19334" lon="2.00154">
        <ele>201.9</ele>
        <time>2017-04-02T10:15:49Z</time>
      </trkpt>
      <trkpt lat="49.1934" lon="2.0016">
        <ele>205.3</ele>
        <time>2017-04-02T10:15:56Z</time>
      </trkpt>
      <trkpt lat="49.19345" lon="2.00167">
        <ele>208.4</ele>
        <time>2017-04-02T10:16:03Z</time>
      </trkpt>
      <trkpt lat="49.19351" lon="2.00172">
        <ele>213.1</ele>
        <time>2017-04-02T10:16:10Z</time>
      </trkpt>
      <trkpt lat="49.19357" lon="2.00182">
        <ele>217</ele>
        <time>2017-04-02T10:16:16Z</time>
      </trkpt>
      <trkpt lat="49.19363" lon="2.00189">
        <ele>215.4</ele>
        <time>2017-04-02T10:16:22Z</time>
      </trkpt>
      <trkpt lat="49.19369" lon="2.00195">
        <ele>214.6</ele>
        <time>2017-04-02T10:16:28Z</time>
      </trkpt>
      <trkpt lat="49.19376" lon="2.00202">
        <ele>215.8</ele>
        <time>2017-04-02T10:16:33Z</time>
      </trkpt>
      <trkpt lat="49.19381" lon="2.00211">
        <ele>216.3</ele>
        <time>2017-04-02T10:16:40Z</time>
      </trkpt>
      <trkpt lat="49.19387" lon="2.00219">
        <ele>211.4</ele>
        <time>2017-04-02T10:16:47Z</time>
      </trkpt>
      <trkpt lat="49.19394" lon="2.00229">
        <ele>206.6</ele>
        <time>2017-04-02T10:16:55Z</time>
      </trkpt>
      <trkpt lat="49.19402" lon="2.00233">
        <ele>205</ele>
        <time>2017-04-02T10:17:00Z</time>
      </trkpt>
      <trkpt lat="49.19408" lon="2.00238">
        <ele>205.9</ele>
        <time>2017-04-02T10:17:07Z</time>
      </trkpt>
      <trkpt lat="49.19414" lon="2.00244">
        <ele>206.5</ele>
        <time>2017-04-02T10:17:14Z</time>
      </trkpt>
      <trkpt lat="49.19418" lon="2.00251">
        <ele>206.4</ele>
        <time>2017-04-02T10:17:21Z</time>
      </trkpt>
      <trkpt lat="49.19425" lon="2.00258">
        <ele>206.9</ele>
        <time>2017-04-02T10:17:27Z</time>
      </trkpt>
      <trkpt lat="49.19432" lon="2.00267">
        <ele>206.7</ele>
        <time>2017-04-02T10:17:33Z</time>
      </trkpt>
      <trkpt lat="49.19437" lon="2.00275">
        <ele>207.2</ele>
        <time>2017-04-02T10:17:40Z</time>
      </trkpt>
      <trkpt lat="49.19444" lon="2.00283">
        <ele>209.9</ele>
        <time>2017-04-02T10:17:47Z</time>
      </trkpt>
      <trkpt lat="49.19449" lon="2.00291">
        <ele>209.5</ele>
        <time>2017-04-02T10:17:54Z</time>
      </trkpt>
      <trkpt lat="49.19453" lon="2.00298">
        <ele>208.7</ele>
        <time>2017-04-02T10:18:01Z</time>
      </trkpt>
      <trkpt lat="49.19456" lon="2.00306">
        <ele>208.4</ele>
        <time>2017-04-02T10:18:08Z</time>
      </trkpt>
      <trkpt lat="49.19461" lon="2.00316">
        <ele>207.6</ele>
        <time>2017-04-02T10:18:14Z</time>
      </trkpt>
      <trkpt lat="49.19466" lon="2.00324">
        <ele>208.5</ele>
        <time>2017-04-02T10:18:20Z</time>
      </trkpt>
      <trkpt lat="49.19468" lon="2.00335">
        <ele>206.4</ele>
        <time>2017-04-02T10:18:27Z</time>
      </trkpt>
      <trkpt lat="49.1947" lon="2.00348">
        <ele>205</ele>
        <time>2017-04-02T10:18:34Z</time>
      </trkpt>
      <trkpt lat="49.19471" lon="2.00358">
        <ele>202.2</ele>
        <time>2017-04-02T10:18:41Z</time>
      </trkpt>
      <trkpt lat="49.19473" lon="2.0037">
        <ele>201.6</ele>
        <time>2017-04-02T10:18:47Z</time>
      </trkpt>
      <trkpt lat="49.19474" lon="2.00381">
        <ele>200</ele>
        <time>2017-04-02T10:18:54Z</time>
      </trkpt>
      <trkpt lat="49.19475" lon="2.00392">
        <ele>197.2</ele>
        <time>2017-04-02T10:19:01Z</time>
      </trkpt>
      <trkpt lat="49.19479" lon="2.00404">
        <ele>196.9</ele>
        <time>2017-04-02T10:19:07Z</time>
      </trkpt>
      <trkpt lat="49.19486" lon="2.00412">
        <ele>199</ele>
        <time>2017-04-02T10:19:11Z</time>
      </trkpt>
      <trkpt lat="49.19491" lon="2.00421">
        <ele>200.8</ele>
        <time>2017-04-02T10:19:17Z</time>
      </trkpt>
      <trkpt lat="49.19494" lon="2.00432">
        <ele>198.6</ele>
        <time>2017-04-02T10:19:23Z</time>
      </trkpt>
      <trkpt lat="49.19496" lon="2.00442">
        <ele>199.6</ele>
        <time>2017-04-02T10:19:29Z</time>
      </trkpt>
      <trkpt lat="49.19497" lon="2.00453">
        <ele>200.7</ele>
        <time>2017-04-02T10:19:36Z</time>
      </trkpt>
      <trkpt lat="49.19501" lon="2.00458">
        <ele>200.4</ele>
        <time>2017-04-02T10:19:43Z</time>
      </trkpt>
      <trkpt lat="49.19506" lon="2.00461">
        <ele>201.5</ele>
        <time>2017-04-02T10:19:50Z</time>
      </trkpt>
      <trkpt lat="49.19509" lon="2.00469">
        <ele>201.7</ele>
        <time>2017-04-02T10:19:57Z</time>
      </trkpt>
      <trkpt lat="49.1951" lon="2.0048">
        <ele>198.6</ele>
        <time>2017-04-02T10:20:04Z</time>
      </trkpt>
      <trkpt lat="49.19512" lon="2.00491">
        <ele>200.5</ele>
        <time>2017-04-02T10:20:11Z</time>
      </trkpt>
      <trkpt lat="49.19518" lon="2.00498">
        <ele>199.4</ele>
        <time>2017-04-02T10:20:18Z</time>
      </trkpt>
      <trkpt lat="49.19524" lon="2.00504">
        <ele>199</ele>
        <time>2017-04-02T10:20:24Z</time>
      </trkpt>
      <trkpt lat="49.19532" lon="2.00508">
        <ele>199.9</ele>
        <time>2017-04-02T10:20:31Z</time>
      </trkpt>
      <trkpt lat="49.19538" lon="2.00514">
        <ele>198.9</ele>
        <time>2017-04-02T10:20:38Z</time>
      </trkpt>
      <trkpt lat="49.19545" lon="2.00517">
        <ele>198.4</ele>
        <time>2017-04-02T10:20:45Z</time>
      </trkpt>
      <trkpt lat="49.19552" lon="2.0052">
        <ele>200.9</ele>
        <time>2017-04-02T10:20:50Z</time>
      </trkpt>
      <trkpt lat="49.19559" lon="2.00526">
        <ele>201.3</ele>
        <time>2017-04-02T10:20:56Z</time>
      </trkpt>
      <trkpt lat="49.19566" lon="2.00532">
        <ele>199.1</ele>
        <time>2017-04-02T10:21:02Z</time>
      </trkpt>
      <trkpt lat="49.19572" lon="2.00537">
        <ele>196.6</ele>
        <time>2017-04-02T10:21:09Z</time>
      </trkpt>
      <trkpt lat="49.19579" lon="2.0054">
        <ele>194.3</ele>
        <time>2017-04-02T10:21:15Z</time>
      </trkpt>
      <trkpt lat="49.19584" lon="2.00544">
        <ele>193.3</ele>
        <time>2017-04-02T10:21:22Z</time>
      </trkpt>
      <trkpt lat="49.1959" lon="2.00549">
        <ele>192.8</ele>
        <time>2017-04-02T10:21:29Z</time>
      </trkpt>
      <trkpt lat="49.19596" lon="2.00551">
        <ele>192.6</ele>
        <time>2017-04-02T10:21:36Z</time>
      </trkpt>
      <trkpt lat="49.19601" lon="2.00555">
        <ele>191.9</ele>
        <time>2017-04-02T10:21:43Z</time>
      </trkpt>
      <trkpt lat="49.19609" lon="2.00561">
        <ele>191.1</ele>
        <time>2017-04-02T10:21:50Z</time>
      </trkpt>
      <trkpt lat="49.19617" lon="2.00565">
        <ele>191.2</ele>
        <time>2017-04-02T10:21:56Z</time>
      </trkpt>
      <trkpt lat="49.19623" lon="2.00571">
        <ele>190.9</ele>
        <time>2017-04-02T10:22:03Z</time>
      </trkpt>
      <trkpt lat="49.19632" lon="2.00574">
        <ele>193.1</ele>
        <time>2017-04-02T10:22:08Z</time>
      </trkpt>
      <trkpt lat="49.19639" lon="2.0058">
        <ele>192.7</ele>
        <time>2017-04-02T10:22:15Z</time>
      </trkpt>
      <trkpt lat="49.19646" lon="2.00586">
        <ele>191.7</ele>
        <time>2017-04-02T10:22:21Z</time>
      </trkpt>
      <trkpt lat="49.19651" lon="2.00596">
        <ele>190.1</ele>
        <time>2017-04-02T10:22:28Z</time>
      </trkpt>
      <trkpt lat="49.19656" lon="2.00604">
        <ele>187.8</ele>
        <time>2017-04-02T10:22:35Z</time>
      </trkpt>
      <trkpt lat="49.1966" lon="2.0061">
        <ele>186.4</ele>
        <time>2017-04-02T10:22:42Z</time>
      </trkpt>
      <trkpt lat="49.19665" lon="2.0062">
        <ele>186.3</ele>
        <time>2017-04-02T10:22:49Z</time>
      </trkpt>
      <trkpt lat="49.1967" lon="2.0063">
        <ele>185.5</ele>
        <time>2017-04-02T10:22:56Z</time>
      </trkpt>
      <trkpt lat="49.19676" lon="2.00638">
        <ele>183.5</ele>
        <time>2017-04-02T10:23:03Z</time>
      </trkpt>
      <trkpt lat="49.1968" lon="2.00648">
        <ele>181.1</ele>
        <time>2017-04-02T10:23:09Z</time>
      </trkpt>
      <trkpt lat="49.19685" lon="2.00655">
        <ele>180.9</ele>
        <time>2017-04-02T10:23:16Z</time>
      </trkpt>
      <trkpt lat="49.19691" lon="2.00662">
        <ele>181.7</ele>
        <time>2017-04-02T10:23:21Z</time>
      </trkpt>
      <trkpt lat="49.19697" lon="2.0067">
        <ele>178.5</ele>
        <time>2017-04-02T10:23:28Z</time>
      </trkpt>
      <trkpt lat="49.19704" lon="2.00674">
        <ele>179.3</ele>
        <time>2017-04-02T10:23:33Z</time>
      </trkpt>
      <trkpt lat="49.1971" lon="2.00681">
        <ele>179.5</ele>
        <time>2017-04-02T10:23:40Z</time>
      </trkpt>
      <trkpt lat="49.19713" lon="2.00685">
        <ele>175.2</ele>
        <time>2017-04-02T10:23:47Z</time>
      </trkpt>
      <trkpt lat="49.19719" lon="2.00691">
        <ele>171.8</ele>
        <time>2017-04-02T10:23:54Z</time>
      </trkpt>
      <trkpt lat="49.19727" lon="2.00696">
        <ele>171.4</ele>
        <time>2017-04-02T10:24:00Z</time>
      </trkpt>
      <trkpt lat="49.19735" lon="2.007">
        <ele>170.6</ele>
        <time>2017-04-02T10:24:06Z</time>
      </trkpt>
      <trkpt lat="49.19742" lon="2.00703">
        <ele>168.3</ele>
        <time>2017-04-02T10:24:12Z</time>
      </trkpt>
      <trkpt lat="49.1975" lon="2.00705">
        <ele>169.4</ele>
        <time>2017-04-02T10:24:16Z</time>
      </trkpt>
      <trkpt lat="49.19757" lon="2.00705">
        <ele>168.6</ele>
        <time>2017-04-02T10:24:22Z</time>
      </trkpt>
      <trkpt lat="49.19765" lon="2.00707">
        <ele>167.4</ele>
        <time>2017-04-02T10:24:27Z</time>
      </trkpt>
      <trkpt lat="49.19773" lon="2.00707">
        <ele>166.4</ele>
        <time>2017-04-02T10:24:33Z</time>
      </trkpt>
      <trkpt lat="49.19781" lon="2.00705">
        <ele>165.6</ele>
        <time>2017-04-02T10:24:40Z</time>
      </trkpt>
      <trkpt lat="49.19789" lon="2.00703">
        <ele>163.9</ele>
        <time>2017-04-02T10:24:47Z</time>
      </trkpt>
      <trkpt lat="49.19796" lon="2.007">
        <ele>162.6</ele>
        <time>2017-04-02T10:24:54Z</time>
      </trkpt>
      <trkpt lat="49.19803" lon="2.00698">
        <ele>160.8</ele>
        <time>2017-04-02T10:25:01Z</time>
      </trkpt>
      <trkpt lat="49.1981" lon="2.00697">
        <ele>160.8</ele>
        <time>2017-04-02T10:25:08Z</time>
      </trkpt>
      <trkpt lat="49.19818" lon="2.00698">
        <ele>162</ele>
        <time>2017-04-02T10:25:13Z</time>
      </trkpt>
      <trkpt lat="49.19825" lon="2.00701">
        <ele>163.9</ele>
        <time>2017-04-02T10:25:19Z</time>
      </trkpt>
      <trkpt lat="49.19832" lon="2.00707">
        <ele>164.2</ele>
        <time>2017-04-02T10:25:25Z</time>
      </trkpt>
      <trkpt lat="49.19839" lon="2.00713">
        <ele>165.5</ele>
        <time>2017-04-02T10:25:31Z</time>
      </trkpt>
      <trkpt lat="49.19845" lon="2.0072">
        <ele>166.3</ele>
        <time>2017-04-02T10:25:37Z</time>
      </trkpt>
      <trkpt lat="49.19852" lon="2.00724">
        <ele>165.5</ele>
        <time>2017-04-02T10:25:44Z</time>
      </trkpt>
      <trkpt lat="49.19857" lon="2.00731">
        <ele>167</ele>
        <time>2017-04-02T10:25:51Z</time>
      </trkpt>
      <trkpt lat="49.19861" lon="2.00739">
        <ele>167.1</ele>
        <time>2017-04-02T10:25:58Z</time>
      </trkpt>
      <trkpt lat="49.19863" lon="2.00746">
        <ele>166.4</ele>
        <time>2017-04-02T10:26:05Z</time>
      </trkpt>
      <trkpt lat="49.19869" lon="2.00753">
        <ele>167.1</ele>
        <time>2017-04-02T10:26:12Z</time>
      </trkpt>
      <trkpt lat="49.19873" lon="2.00762">
        <ele>164.6</ele>
        <time>2017-04-02T10:26:19Z</time>
      </trkpt>
      <trkpt lat="49.1988" lon="2.00767">
        <ele>164.3</ele>
        <time>2017-04-02T10:26:24Z</time>
      </trkpt>
      <trkpt lat="49.19886" lon="2.00774">
        <ele>163.9</ele>
        <time>2017-04-02T10:26:30Z</time>
      </trkpt>
      <trkpt lat="49.19893" lon="2.00783">
        <ele>164.2</ele>
        <time>2017-04-02T10:26:36Z</time>
      </trkpt>
      <trkpt lat="49.199" lon="2.00789">
        <ele>164.2</ele>
        <time>2017-04-02T10:26:42Z</time>
      </trkpt>
      <trkpt lat="49.19906" lon="2.00796">
        <ele>164.1</ele>
        <time>2017-04-02T10:26:47Z</time>
      </trkpt>
      <trkpt lat="49.1991" lon="2.00803">
        <ele>164.7</ele>
        <time>2017-04-02T10:26:54Z</time>
      </trkpt>
      <trkpt lat="49.19917" lon="2.0081">
        <ele>164</ele>
        <time>2017-04-02T10:27:01Z</time>
      </trkpt>
      <trkpt lat="49.19924" lon="2.00816">
        <ele>159.6</ele>
        <time>2017-04-02T10:27:07Z</time>
      </trkpt>
      <trkpt lat="49.1993" lon="2.00823">
        <ele>157.4</ele>
        <time>2017-04-02T10:27:14Z</time>
      </trkpt>
      <trkpt lat="49.19936" lon="2.00828">
        <ele>156.3</ele>
        <time>2017-04-02T10:27:20Z</time>
      </trkpt>
      <trkpt lat="49.19943" lon="2.00832">
        <ele>155.7</ele>
        <time>2017-04-02T10:27:25Z</time>
      </trkpt>
      <trkpt lat="49.1995" lon="2.00837">
        <ele>155.9</ele>
        <time>2017-04-02T10:27:30Z</time>
      </trkpt>
      <trkpt lat="49.19957" lon="2.00841">
        <ele>158.9</ele>
        <time>2017-04-02T10:27:33Z</time>
      </trkpt>
      <trkpt lat="49.19964" lon="2.00847">
        <ele>160.4</ele>
        <time>2017-04-02T10:27:38Z</time>
      </trkpt>
      <trkpt lat="49.19972" lon="2.00849">
        <ele>159.6</ele>
        <time>2017-04-02T10:27:45Z</time>
      </trkpt>
      <trkpt lat="49.19976" lon="2.00844">
        <ele>156.4</ele>
        <time>2017-04-02T10:27:52Z</time>
      </trkpt>
      <trkpt lat="49.19979" lon="2.00838">
        <ele>152.7</ele>
        <time>2017-04-02T10:27:59Z</time>
      </trkpt>
      <trkpt lat="49.19981" lon="2.00836">
        <ele>149.6</ele>
        <time>2017-04-02T10:28:06Z</time>
      </trkpt>
      <trkpt lat="49.19979" lon="2.00842">
        <ele>146</ele>
        <time>2017-04-02T10:27:47Z</time>
      </trkpt>
      <trkpt lat="49.19985" lon="2.00852">
        <ele>151.1</ele>
        <time>2017-04-02T10:29:00Z</time>
      </trkpt>
      <trkpt lat="49.19992" lon="2.00855">
        <ele>152.1</ele>
        <time>2017-04-02T10:29:05Z</time>
      </trkpt>
      <trkpt lat="49.19999" lon="2.00862">
        <ele>155.1</ele>
        <time>2017-04-02T10:29:11Z</time>
      </trkpt>
      <trkpt lat="49.20004" lon="2.00873">
        <ele>156.2</ele>
        <time>2017-04-02T10:29:16Z</time>
      </trkpt>
      <trkpt lat="49.20009" lon="2.00881">
        <ele>157.7</ele>
        <time>2017-04-02T10:29:21Z</time>
      </trkpt>
      <trkpt lat="49.20015" lon="2.00888">
        <ele>157.3</ele>
        <time>2017-04-02T10:29:26Z</time>
      </trkpt>
      <trkpt lat="49.20021" lon="2.00895">
        <ele>154.9</ele>
        <time>2017-04-02T10:29:32Z</time>
      </trkpt>
      <trkpt lat="49.20027" lon="2.00902">
        <ele>151.9</ele>
        <time>2017-04-02T10:29:39Z</time>
      </trkpt>
      <trkpt lat="49.20034" lon="2.00908">
        <ele>146.3</ele>
        <time>2017-04-02T10:29:46Z</time>
      </trkpt>
      <trkpt lat="49.2004" lon="2.00916">
        <ele>142.4</ele>
        <time>2017-04-02T10:29:52Z</time>
      </trkpt>
      <trkpt lat="49.20044" lon="2.00924">
        <ele>137.3</ele>
        <time>2017-04-02T10:29:59Z</time>
      </trkpt>
      <trkpt lat="49.20051" lon="2.00933">
        <ele>134.2</ele>
        <time>2017-04-02T10:30:06Z</time>
      </trkpt>
      <trkpt lat="49.20054" lon="2.00942">
        <ele>133.2</ele>
        <time>2017-04-02T10:30:13Z</time>
      </trkpt>
      <trkpt lat="49.20057" lon="2.00951">
        <ele>131.4</ele>
        <time>2017-04-02T10:30:20Z</time>
      </trkpt>
      <trkpt lat="49.20057" lon="2.00963">
        <ele>131.5</ele>
        <time>2017-04-02T10:30:26Z</time>
      </trkpt>
      <trkpt lat="49.20057" lon="2.00975">
        <ele>131.8</ele>
        <time>2017-04-02T10:30:33Z</time>
      </trkpt>
      <trkpt lat="49.20057" lon="2.00984">
        <ele>131.9</ele>
        <time>2017-04-02T10:30:40Z</time>
      </trkpt>
      <trkpt lat="49.20057" lon="2.00995">
        <ele>133</ele>
        <time>2017-04-02T10:30:47Z</time>
      </trkpt>
      <trkpt lat="49.20056" lon="2.01007">
        <ele>133.3</ele>
        <time>2017-04-02T10:30:54Z</time>
      </trkpt>
      <trkpt lat="49.20054" lon="2.01018">
        <ele>132.5</ele>
        <time>2017-04-02T10:31:01Z</time>
      </trkpt>
      <trkpt lat="49.20053" lon="2.01029">
        <ele>133</ele>
        <time>2017-04-02T10:31:07Z</time>
      </trkpt>
      <trkpt lat="49.20049" lon="2.01041">
        <ele>137.4</ele>
        <time>2017-04-02T10:31:14Z</time>
      </trkpt>
      <trkpt lat="49.20048" lon="2.01048">
        <ele>137.5</ele>
        <time>2017-04-02T10:31:21Z</time>
      </trkpt>
      <trkpt lat="49.20045" lon="2.01059">
        <ele>137.2</ele>
        <time>2017-04-02T10:31:27Z</time>
      </trkpt>
      <trkpt lat="49.20042" lon="2.01071">
        <ele>137.4</ele>
        <time>2017-04-02T10:31:32Z</time>
      </trkpt>
      <trkpt lat="49.20038" lon="2.01081">
        <ele>136.8</ele>
        <time>2017-04-02T10:31:38Z</time>
      </trkpt>
      <trkpt lat="49.20033" lon="2.0109">
        <ele>137</ele>
        <time>2017-04-02T10:31:44Z</time>
      </trkpt>
      <trkpt lat="49.20032" lon="2.0109">
        <ele>137.7</ele>
        <time>2017-04-02T10:31:51Z</time>
      </trkpt>
      <trkpt lat="49.20027" lon="2.01099">
        <ele>137.7</ele>
        <time>2017-04-02T10:32:02Z</time>
      </trkpt>
      <trkpt lat="49.20024" lon="2.0111">
        <ele>137.3</ele>
        <time>2017-04-02T10:32:09Z</time>
      </trkpt>
      <trkpt lat="49.2002" lon="2.01121">
        <ele>138.5</ele>
        <time>2017-04-02T10:32:16Z</time>
      </trkpt>
      <trkpt lat="49.20017" lon="2.01132">
        <ele>137.9</ele>
        <time>2017-04-02T10:32:22Z</time>
      </trkpt>
      <trkpt lat="49.20015" lon="2.01143">
        <ele>133.9</ele>
        <time>2017-04-02T10:32:29Z</time>
      </trkpt>
      <trkpt lat="49.20011" lon="2.01154">
        <ele>132.9</ele>
        <time>2017-04-02T10:32:36Z</time>
      </trkpt>
      <trkpt lat="49.20009" lon="2.01164">
        <ele>132.1</ele>
        <time>2017-04-02T10:32:43Z</time>
      </trkpt>
      <trkpt lat="49.20006" lon="2.01175">
        <ele>130.6</ele>
        <time>2017-04-02T10:32:50Z</time>
      </trkpt>
      <trkpt lat="49.20002" lon="2.01185">
        <ele>130.8</ele>
        <time>2017-04-02T10:32:57Z</time>
      </trkpt>
      <trkpt lat="49.19999" lon="2.01194">
        <ele>129.8</ele>
        <time>2017-04-02T10:33:04Z</time>
      </trkpt>
      <trkpt lat="49.19995" lon="2.01204">
        <ele>127.4</ele>
        <time>2017-04-02T10:33:11Z</time>
      </trkpt>
      <trkpt lat="49.19994" lon="2.01217">
        <ele>127.9</ele>
        <time>2017-04-02T10:33:18Z</time>
      </trkpt>
      <trkpt lat="49.19992" lon="2.01228">
        <ele>128.7</ele>
        <time>2017-04-02T10:33:25Z</time>
      </trkpt>
      <trkpt lat="49.1999" lon="2.01231">
        <ele>128.8</ele>
        <time>2017-04-02T10:33:32Z</time>
      </trkpt>
      <trkpt lat="49.19983" lon="2.01238">
        <ele>127.6</ele>
        <time>2017-04-02T10:34:08Z</time>
      </trkpt>
      <trkpt lat="49.19976" lon="2.01243">
        <ele>127.6</ele>
        <time>2017-04-02T10:34:15Z</time>
      </trkpt>
      <trkpt lat="49.19975" lon="2.0125">
        <ele>126.5</ele>
        <time>2017-04-02T10:34:22Z</time>
      </trkpt>
      <trkpt lat="49.19977" lon="2.01256">
        <ele>126</ele>
        <time>2017-04-02T10:34:29Z</time>
      </trkpt>
      <trkpt lat="49.19971" lon="2.01263">
        <ele>126</ele>
        <time>2017-04-02T10:35:18Z</time>
      </trkpt>
      <trkpt lat="49.1997" lon="2.01264">
        <ele>127.3</ele>
        <time>2017-04-02T10:35:25Z</time>
      </trkpt>
      <trkpt lat="49.1998" lon="2.01267">
        <ele>125.2</ele>
        <time>2017-04-02T10:35:41Z</time>
      </trkpt>
      <trkpt lat="49.19983" lon="2.01276">
        <ele>125.9</ele>
        <time>2017-04-02T10:35:48Z</time>
      </trkpt>
      <trkpt lat="49.19982" lon="2.01279">
        <ele>127.1</ele>
        <time>2017-04-02T10:35:55Z</time>
      </trkpt>
      <trkpt lat="49.19984" lon="2.01273">
        <ele>129.7</ele>
        <time>2017-04-02T10:36:06Z</time>
      </trkpt>
      <trkpt lat="49.19985" lon="2.01269">
        <ele>130.5</ele>
        <time>2017-04-02T10:43:56Z</time>
      </trkpt>
      <trkpt lat="49.19989" lon="2.01276">
        <ele>130.1</ele>
        <time>2017-04-02T10:49:43Z</time>
      </trkpt>
      <trkpt lat="49.19989" lon="2.01275">
        <ele>131.6</ele>
        <time>2017-04-02T10:49:50Z</time>
      </trkpt>
      <trkpt lat="49.19992" lon="2.01266">
        <ele>145.8</ele>
        <time>2017-04-02T10:53:19Z</time>
      </trkpt>
      <trkpt lat="49.19982" lon="2.01267">
        <ele>131.6</ele>
        <time>2017-04-02T11:12:31Z</time>
      </trkpt>
      <trkpt lat="49.19982" lon="2.01258">
        <ele>129.2</ele>
        <time>2017-04-02T11:12:38Z</time>
      </trkpt>
      <trkpt lat="49.19981" lon="2.01256">
        <ele>128</ele>
        <time>2017-04-02T11:12:45Z</time>
      </trkpt>
      <trkpt lat="49.19983" lon="2.01266">
        <ele>124.6</ele>
        <time>2017-04-02T11:12:13Z</time>
      </trkpt>
      <trkpt lat="49.19984" lon="2.01269">
        <ele>124.1</ele>
        <time>2017-04-02T11:13:25Z</time>
      </trkpt>
      <trkpt lat="49.19986" lon="2.01275">
        <ele>125.5</ele>
        <time>2017-04-02T11:13:32Z</time>
      </trkpt>
      <trkpt lat="49.19978" lon="2.01264">
        <ele>127.6</ele>
        <time>2017-04-02T11:19:15Z</time>
      </trkpt>
      <trkpt lat="49.19964" lon="2.01254">
        <ele>131.6</ele>
        <time>2017-04-02T11:20:14Z</time>
      </trkpt>
      <trkpt lat="49.19961" lon="2.01257">
        <ele>132.1</ele>
        <time>2017-04-02T11:20:21Z</time>
      </trkpt>
      <trkpt lat="49.19956" lon="2.01256">
        <ele>130.5</ele>
        <time>2017-04-02T11:20:28Z</time>
      </trkpt>
      <trkpt lat="49.19948" lon="2.01253">
        <ele>128.2</ele>
        <time>2017-04-02T11:20:35Z</time>
      </trkpt>
      <trkpt lat="49.1994" lon="2.01251">
        <ele>130.5</ele>
        <time>2017-04-02T11:20:40Z</time>
      </trkpt>
      <trkpt lat="49.19933" lon="2.01247">
        <ele>129.8</ele>
        <time>2017-04-02T11:20:46Z</time>
      </trkpt>
      <trkpt lat="49.19926" lon="2.01243">
        <ele>128.2</ele>
        <time>2017-04-02T11:20:51Z</time>
      </trkpt>
      <trkpt lat="49.19919" lon="2.0124">
        <ele>129.2</ele>
        <time>2017-04-02T11:20:58Z</time>
      </trkpt>
      <trkpt lat="49.19912" lon="2.01234">
        <ele>133.7</ele>
        <time>2017-04-02T11:21:05Z</time>
      </trkpt>
      <trkpt lat="49.19905" lon="2.01231">
        <ele>136.4</ele>
        <time>2017-04-02T11:21:12Z</time>
      </trkpt>
      <trkpt lat="49.19898" lon="2.01228">
        <ele>137.8</ele>
        <time>2017-04-02T11:21:18Z</time>
      </trkpt>
      <trkpt lat="49.19891" lon="2.01226">
        <ele>140.6</ele>
        <time>2017-04-02T11:21:25Z</time>
      </trkpt>
      <trkpt lat="49.19885" lon="2.01226">
        <ele>143.3</ele>
        <time>2017-04-02T11:21:32Z</time>
      </trkpt>
      <trkpt lat="49.19878" lon="2.01226">
        <ele>142.9</ele>
        <time>2017-04-02T11:21:39Z</time>
      </trkpt>
      <trkpt lat="49.19871" lon="2.01229">
        <ele>144.2</ele>
        <time>2017-04-02T11:21:46Z</time>
      </trkpt>
      <trkpt lat="49.19864" lon="2.01231">
        <ele>147.1</ele>
        <time>2017-04-02T11:21:52Z</time>
      </trkpt>
      <trkpt lat="49.19857" lon="2.01231">
        <ele>147.8</ele>
        <time>2017-04-02T11:21:59Z</time>
      </trkpt>
      <trkpt lat="49.19849" lon="2.01231">
        <ele>147</ele>
        <time>2017-04-02T11:22:06Z</time>
      </trkpt>
      <trkpt lat="49.19841" lon="2.01231">
        <ele>148.1</ele>
        <time>2017-04-02T11:22:13Z</time>
      </trkpt>
      <trkpt lat="49.19834" lon="2.01231">
        <ele>147.7</ele>
        <time>2017-04-02T11:22:20Z</time>
      </trkpt>
      <trkpt lat="49.19825" lon="2.01229">
        <ele>147</ele>
        <time>2017-04-02T11:22:27Z</time>
      </trkpt>
      <trkpt lat="49.19818" lon="2.01227">
        <ele>147.4</ele>
        <time>2017-04-02T11:22:33Z</time>
      </trkpt>
      <trkpt lat="49.19811" lon="2.01225">
        <ele>147.8</ele>
        <time>2017-04-02T11:22:39Z</time>
      </trkpt>
      <trkpt lat="49.19805" lon="2.01225">
        <ele>149.1</ele>
        <time>2017-04-02T11:22:46Z</time>
      </trkpt>
      <trkpt lat="49.198" lon="2.01225">
        <ele>149.7</ele>
        <time>2017-04-02T11:22:53Z</time>
      </trkpt>
      <trkpt lat="49.19794" lon="2.01225">
        <ele>149.5</ele>
        <time>2017-04-02T11:23:00Z</time>
      </trkpt>
      <trkpt lat="49.19789" lon="2.01223">
        <ele>147.6</ele>
        <time>2017-04-02T11:23:07Z</time>
      </trkpt>
      <trkpt lat="49.19783" lon="2.01223">
        <ele>147.4</ele>
        <time>2017-04-02T11:23:14Z</time>
      </trkpt>
      <trkpt lat="49.19777" lon="2.01227">
        <ele>148.9</ele>
        <time>2017-04-02T11:23:21Z</time>
      </trkpt>
      <trkpt lat="49.19773" lon="2.01226">
        <ele>147.7</ele>
        <time>2017-04-02T11:23:28Z</time>
      </trkpt>
      <trkpt lat="49.19769" lon="2.01225">
        <ele>151</ele>
        <time>2017-04-02T11:23:35Z</time>
      </trkpt>
      <trkpt lat="49.19763" lon="2.01223">
        <ele>153.6</ele>
        <time>2017-04-02T11:23:42Z</time>
      </trkpt>
      <trkpt lat="49.19759" lon="2.01223">
        <ele>153.6</ele>
        <time>2017-04-02T11:23:49Z</time>
      </trkpt>
      <trkpt lat="49.19751" lon="2.0122">
        <ele>154.6</ele>
        <time>2017-04-02T11:23:56Z</time>
      </trkpt>
      <trkpt lat="49.19744" lon="2.01219">
        <ele>156.1</ele>
        <time>2017-04-02T11:24:03Z</time>
      </trkpt>
      <trkpt lat="49.19738" lon="2.01215">
        <ele>155.8</ele>
        <time>2017-04-02T11:24:10Z</time>
      </trkpt>
      <trkpt lat="49.19733" lon="2.01212">
        <ele>156.3</ele>
        <time>2017-04-02T11:24:17Z</time>
      </trkpt>
      <trkpt lat="49.19728" lon="2.01209">
        <ele>157.5</ele>
        <time>2017-04-02T11:24:24Z</time>
      </trkpt>
      <trkpt lat="49.19723" lon="2.01205">
        <ele>158.9</ele>
        <time>2017-04-02T11:24:31Z</time>
      </trkpt>
      <trkpt lat="49.19719" lon="2.01201">
        <ele>160.2</ele>
        <time>2017-04-02T11:24:38Z</time>
      </trkpt>
      <trkpt lat="49.19713" lon="2.01198">
        <ele>162.3</ele>
        <time>2017-04-02T11:24:45Z</time>
      </trkpt>
      <trkpt lat="49.19706" lon="2.01193">
        <ele>162.4</ele>
        <time>2017-04-02T11:24:52Z</time>
      </trkpt>
      <trkpt lat="49.197" lon="2.01187">
        <ele>164</ele>
        <time>2017-04-02T11:24:58Z</time>
      </trkpt>
      <trkpt lat="49.19692" lon="2.01184">
        <ele>165.9</ele>
        <time>2017-04-02T11:25:04Z</time>
      </trkpt>
      <trkpt lat="49.19684" lon="2.01183">
        <ele>168.1</ele>
        <time>2017-04-02T11:25:11Z</time>
      </trkpt>
      <trkpt lat="49.19677" lon="2.01182">
        <ele>168.9</ele>
        <time>2017-04-02T11:25:18Z</time>
      </trkpt>
      <trkpt lat="49.1967" lon="2.01179">
        <ele>168.7</ele>
        <time>2017-04-02T11:25:24Z</time>
      </trkpt>
      <trkpt lat="49.19664" lon="2.01175">
        <ele>169.8</ele>
        <time>2017-04-02T11:25:31Z</time>
      </trkpt>
      <trkpt lat="49.19659" lon="2.01175">
        <ele>169.5</ele>
        <time>2017-04-02T11:25:38Z</time>
      </trkpt>
      <trkpt lat="49.1965" lon="2.01173">
        <ele>169.6</ele>
        <time>2017-04-02T11:25:44Z</time>
      </trkpt>
      <trkpt lat="49.19642" lon="2.01175">
        <ele>171.9</ele>
        <time>2017-04-02T11:25:51Z</time>
      </trkpt>
      <trkpt lat="49.19636" lon="2.01175">
        <ele>172.9</ele>
        <time>2017-04-02T11:25:58Z</time>
      </trkpt>
      <trkpt lat="49.19629" lon="2.01176">
        <ele>173.5</ele>
        <time>2017-04-02T11:26:05Z</time>
      </trkpt>
      <trkpt lat="49.19622" lon="2.01176">
        <ele>174.9</ele>
        <time>2017-04-02T11:26:12Z</time>
      </trkpt>
      <trkpt lat="49.19616" lon="2.01176">
        <ele>176.2</ele>
        <time>2017-04-02T11:26:19Z</time>
      </trkpt>
      <trkpt lat="49.19608" lon="2.01173">
        <ele>174.9</ele>
        <time>2017-04-02T11:26:25Z</time>
      </trkpt>
      <trkpt lat="49.19601" lon="2.01171">
        <ele>177.2</ele>
        <time>2017-04-02T11:26:32Z</time>
      </trkpt>
      <trkpt lat="49.19597" lon="2.01168">
        <ele>178.7</ele>
        <time>2017-04-02T11:26:39Z</time>
      </trkpt>
      <trkpt lat="49.19592" lon="2.01163">
        <ele>178.9</ele>
        <time>2017-04-02T11:26:46Z</time>
      </trkpt>
      <trkpt lat="49.19589" lon="2.0116">
        <ele>178.9</ele>
        <time>2017-04-02T11:26:53Z</time>
      </trkpt>
      <trkpt lat="49.19584" lon="2.01156">
        <ele>179</ele>
        <time>2017-04-02T11:27:00Z</time>
      </trkpt>
      <trkpt lat="49.19578" lon="2.01148">
        <ele>180.5</ele>
        <time>2017-04-02T11:27:07Z</time>
      </trkpt>
      <trkpt lat="49.19573" lon="2.01138">
        <ele>182.8</ele>
        <time>2017-04-02T11:27:13Z</time>
      </trkpt>
      <trkpt lat="49.19572" lon="2.01136">
        <ele>183.1</ele>
        <time>2017-04-02T11:27:20Z</time>
      </trkpt>
      <trkpt lat="49.19566" lon="2.01129">
        <ele>184.6</ele>
        <time>2017-04-02T11:27:27Z</time>
      </trkpt>
      <trkpt lat="49.19562" lon="2.01121">
        <ele>184.1</ele>
        <time>2017-04-02T11:27:34Z</time>
      </trkpt>
      <trkpt lat="49.19557" lon="2.01115">
        <ele>184.4</ele>
        <time>2017-04-02T11:27:41Z</time>
      </trkpt>
      <trkpt lat="49.19554" lon="2.01112">
        <ele>185.3</ele>
        <time>2017-04-02T11:27:48Z</time>
      </trkpt>
      <trkpt lat="49.19548" lon="2.01105">
        <ele>185.9</ele>
        <time>2017-04-02T11:27:53Z</time>
      </trkpt>
      <trkpt lat="49.19542" lon="2.01102">
        <ele>182.9</ele>
        <time>2017-04-02T11:28:00Z</time>
      </trkpt>
      <trkpt lat="49.19535" lon="2.01097">
        <ele>183.3</ele>
        <time>2017-04-02T11:28:06Z</time>
      </trkpt>
      <trkpt lat="49.19529" lon="2.01091">
        <ele>182.9</ele>
        <time>2017-04-02T11:28:11Z</time>
      </trkpt>
      <trkpt lat="49.19523" lon="2.01083">
        <ele>185.3</ele>
        <time>2017-04-02T11:28:17Z</time>
      </trkpt>
      <trkpt lat="49.19516" lon="2.01078">
        <ele>187.6</ele>
        <time>2017-04-02T11:28:23Z</time>
      </trkpt>
      <trkpt lat="49.19513" lon="2.01072">
        <ele>189.9</ele>
        <time>2017-04-02T11:28:30Z</time>
      </trkpt>
      <trkpt lat="49.1951" lon="2.01063">
        <ele>193.1</ele>
        <time>2017-04-02T11:28:37Z</time>
      </trkpt>
      <trkpt lat="49.19508" lon="2.01055">
        <ele>194.5</ele>
        <time>2017-04-02T11:28:44Z</time>
      </trkpt>
      <trkpt lat="49.19505" lon="2.01045">
        <ele>195.5</ele>
        <time>2017-04-02T11:28:51Z</time>
      </trkpt>
      <trkpt lat="49.19503" lon="2.01039">
        <ele>196.1</ele>
        <time>2017-04-02T11:28:58Z</time>
      </trkpt>
      <trkpt lat="49.19499" lon="2.01031">
        <ele>196.5</ele>
        <time>2017-04-02T11:29:05Z</time>
      </trkpt>
      <trkpt lat="49.19498" lon="2.01026">
        <ele>197.4</ele>
        <time>2017-04-02T11:29:12Z</time>
      </trkpt>
      <trkpt lat="49.19497" lon="2.01017">
        <ele>197.6</ele>
        <time>2017-04-02T11:29:19Z</time>
      </trkpt>
      <trkpt lat="49.19496" lon="2.01011">
        <ele>196.5</ele>
        <time>2017-04-02T11:29:26Z</time>
      </trkpt>
      <trkpt lat="49.19493" lon="2.01003">
        <ele>195.2</ele>
        <time>2017-04-02T11:29:33Z</time>
      </trkpt>
      <trkpt lat="49.1949" lon="2.00993">
        <ele>197.1</ele>
        <time>2017-04-02T11:29:38Z</time>
      </trkpt>
      <trkpt lat="49.19489" lon="2.00981">
        <ele>198.3</ele>
        <time>2017-04-02T11:29:45Z</time>
      </trkpt>
      <trkpt lat="49.19487" lon="2.00971">
        <ele>198.1</ele>
        <time>2017-04-02T11:29:52Z</time>
      </trkpt>
      <trkpt lat="49.19483" lon="2.00961">
        <ele>196.3</ele>
        <time>2017-04-02T11:29:59Z</time>
      </trkpt>
      <trkpt lat="49.1948" lon="2.00951">
        <ele>194.6</ele>
        <time>2017-04-02T11:30:06Z</time>
      </trkpt>
      <trkpt lat="49.19479" lon="2.00949">
        <ele>194.2</ele>
        <time>2017-04-02T11:30:13Z</time>
      </trkpt>
      <trkpt lat="49.19473" lon="2.00939">
        <ele>192.6</ele>
        <time>2017-04-02T11:30:20Z</time>
      </trkpt>
      <trkpt lat="49.19472" lon="2.00935">
        <ele>191.4</ele>
        <time>2017-04-02T11:30:27Z</time>
      </trkpt>
      <trkpt lat="49.1946" lon="2.00911">
        <ele>187.7</ele>
        <time>2017-04-02T11:32:43Z</time>
      </trkpt>
      <trkpt lat="49.19457" lon="2.00901">
        <ele>188.2</ele>
        <time>2017-04-02T11:32:48Z</time>
      </trkpt>
      <trkpt lat="49.19454" lon="2.0089">
        <ele>188.9</ele>
        <time>2017-04-02T11:32:55Z</time>
      </trkpt>
      <trkpt lat="49.19451" lon="2.00881">
        <ele>191.2</ele>
        <time>2017-04-02T11:33:02Z</time>
      </trkpt>
      <trkpt lat="49.19447" lon="2.00872">
        <ele>193.4</ele>
        <time>2017-04-02T11:33:09Z</time>
      </trkpt>
      <trkpt lat="49.19444" lon="2.00864">
        <ele>192.9</ele>
        <time>2017-04-02T11:33:16Z</time>
      </trkpt>
      <trkpt lat="49.19441" lon="2.00856">
        <ele>194.2</ele>
        <time>2017-04-02T11:33:23Z</time>
      </trkpt>
      <trkpt lat="49.19437" lon="2.00847">
        <ele>195</ele>
        <time>2017-04-02T11:33:30Z</time>
      </trkpt>
      <trkpt lat="49.19432" lon="2.00837">
        <ele>193.6</ele>
        <time>2017-04-02T11:33:36Z</time>
      </trkpt>
      <trkpt lat="49.19429" lon="2.00827">
        <ele>194.4</ele>
        <time>2017-04-02T11:33:42Z</time>
      </trkpt>
      <trkpt lat="49.19427" lon="2.00819">
        <ele>193.9</ele>
        <time>2017-04-02T11:33:49Z</time>
      </trkpt>
      <trkpt lat="49.19425" lon="2.00805">
        <ele>189.8</ele>
        <time>2017-04-02T11:34:04Z</time>
      </trkpt>
      <trkpt lat="49.19424" lon="2.00802">
        <ele>187.3</ele>
        <time>2017-04-02T11:34:11Z</time>
      </trkpt>
      <trkpt lat="49.19419" lon="2.00801">
        <ele>185.7</ele>
        <time>2017-04-02T11:34:18Z</time>
      </trkpt>
      <trkpt lat="49.19416" lon="2.00799">
        <ele>186</ele>
        <time>2017-04-02T11:34:25Z</time>
      </trkpt>
      <trkpt lat="49.1941" lon="2.00801">
        <ele>183</ele>
        <time>2017-04-02T11:34:32Z</time>
      </trkpt>
      <trkpt lat="49.19405" lon="2.00804">
        <ele>184.8</ele>
        <time>2017-04-02T11:34:39Z</time>
      </trkpt>
      <trkpt lat="49.19399" lon="2.0081">
        <ele>187.7</ele>
        <time>2017-04-02T11:34:46Z</time>
      </trkpt>
      <trkpt lat="49.19393" lon="2.00816">
        <ele>189.1</ele>
        <time>2017-04-02T11:34:53Z</time>
      </trkpt>
      <trkpt lat="49.19387" lon="2.00824">
        <ele>190.7</ele>
        <time>2017-04-02T11:35:00Z</time>
      </trkpt>
      <trkpt lat="49.19382" lon="2.00829">
        <ele>191.4</ele>
        <time>2017-04-02T11:35:07Z</time>
      </trkpt>
      <trkpt lat="49.19379" lon="2.00837">
        <ele>192.1</ele>
        <time>2017-04-02T11:35:14Z</time>
      </trkpt>
      <trkpt lat="49.19374" lon="2.00844">
        <ele>192.1</ele>
        <time>2017-04-02T11:35:21Z</time>
      </trkpt>
      <trkpt lat="49.1937" lon="2.00854">
        <ele>191.3</ele>
        <time>2017-04-02T11:35:28Z</time>
      </trkpt>
      <trkpt lat="49.19366" lon="2.00862">
        <ele>191.1</ele>
        <time>2017-04-02T11:35:35Z</time>
      </trkpt>
      <trkpt lat="49.19362" lon="2.00871">
        <ele>191.7</ele>
        <time>2017-04-02T11:35:42Z</time>
      </trkpt>
      <trkpt lat="49.19358" lon="2.00879">
        <ele>193.6</ele>
        <time>2017-04-02T11:35:49Z</time>
      </trkpt>
      <trkpt lat="49.19353" lon="2.00888">
        <ele>196.3</ele>
        <time>2017-04-02T11:35:56Z</time>
      </trkpt>
      <trkpt lat="49.19348" lon="2.00896">
        <ele>198.3</ele>
        <time>2017-04-02T11:36:03Z</time>
      </trkpt>
      <trkpt lat="49.19345" lon="2.00902">
        <ele>197.5</ele>
        <time>2017-04-02T11:36:10Z</time>
      </trkpt>
      <trkpt lat="49.19341" lon="2.00908">
        <ele>199.3</ele>
        <time>2017-04-02T11:36:17Z</time>
      </trkpt>
      <trkpt lat="49.19335" lon="2.00916">
        <ele>201.7</ele>
        <time>2017-04-02T11:36:24Z</time>
      </trkpt>
      <trkpt lat="49.19329" lon="2.00923">
        <ele>203.5</ele>
        <time>2017-04-02T11:36:31Z</time>
      </trkpt>
      <trkpt lat="49.19324" lon="2.0093">
        <ele>204</ele>
        <time>2017-04-02T11:36:38Z</time>
      </trkpt>
      <trkpt lat="49.19317" lon="2.00938">
        <ele>205.3</ele>
        <time>2017-04-02T11:36:45Z</time>
      </trkpt>
      <trkpt lat="49.19312" lon="2.00946">
        <ele>206.1</ele>
        <time>2017-04-02T11:36:52Z</time>
      </trkpt>
      <trkpt lat="49.19307" lon="2.00954">
        <ele>206.3</ele>
        <time>2017-04-02T11:36:59Z</time>
      </trkpt>
      <trkpt lat="49.19302" lon="2.00963">
        <ele>206.4</ele>
        <time>2017-04-02T11:37:06Z</time>
      </trkpt>
      <trkpt lat="49.19297" lon="2.00971">
        <ele>206.4</ele>
        <time>2017-04-02T11:37:13Z</time>
      </trkpt>
      <trkpt lat="49.19293" lon="2.0098">
        <ele>206.4</ele>
        <time>2017-04-02T11:37:19Z</time>
      </trkpt>
      <trkpt lat="49.19288" lon="2.0099">
        <ele>206.4</ele>
        <time>2017-04-02T11:37:26Z</time>
      </trkpt>
      <trkpt lat="49.19283" lon="2.00998">
        <ele>205.6</ele>
        <time>2017-04-02T11:37:33Z</time>
      </trkpt>
      <trkpt lat="49.19279" lon="2.01007">
        <ele>204.6</ele>
        <time>2017-04-02T11:37:40Z</time>
      </trkpt>
      <trkpt lat="49.19274" lon="2.01014">
        <ele>205.9</ele>
        <time>2017-04-02T11:37:47Z</time>
      </trkpt>
      <trkpt lat="49.1927" lon="2.01022">
        <ele>205.8</ele>
        <time>2017-04-02T11:37:54Z</time>
      </trkpt>
      <trkpt lat="49.19266" lon="2.01033">
        <ele>206</ele>
        <time>2017-04-02T11:38:01Z</time>
      </trkpt>
      <trkpt lat="49.19263" lon="2.01043">
        <ele>207</ele>
        <time>2017-04-02T11:38:08Z</time>
      </trkpt>
      <trkpt lat="49.19258" lon="2.01051">
        <ele>208</ele>
        <time>2017-04-02T11:38:15Z</time>
      </trkpt>
      <trkpt lat="49.19254" lon="2.01062">
        <ele>208.7</ele>
        <time>2017-04-02T11:38:22Z</time>
      </trkpt>
      <trkpt lat="49.1925" lon="2.01072">
        <ele>207.9</ele>
        <time>2017-04-02T11:38:28Z</time>
      </trkpt>
      <trkpt lat="49.19245" lon="2.01083">
        <ele>207.9</ele>
        <time>2017-04-02T11:38:35Z</time>
      </trkpt>
      <trkpt lat="49.19241" lon="2.01094">
        <ele>208.7</ele>
        <time>2017-04-02T11:38:41Z</time>
      </trkpt>
      <trkpt lat="49.19239" lon="2.01105">
        <ele>207.5</ele>
        <time>2017-04-02T11:38:47Z</time>
      </trkpt>
      <trkpt lat="49.19235" lon="2.01116">
        <ele>207.2</ele>
        <time>2017-04-02T11:38:54Z</time>
      </trkpt>
      <trkpt lat="49.19233" lon="2.01125">
        <ele>206.8</ele>
        <time>2017-04-02T11:39:01Z</time>
      </trkpt>
      <trkpt lat="49.19228" lon="2.01133">
        <ele>208.3</ele>
        <time>2017-04-02T11:39:08Z</time>
      </trkpt>
      <trkpt lat="49.19221" lon="2.01139">
        <ele>205.1</ele>
        <time>2017-04-02T11:39:15Z</time>
      </trkpt>
      <trkpt lat="49.19217" lon="2.01147">
        <ele>203.9</ele>
        <time>2017-04-02T11:39:22Z</time>
      </trkpt>
      <trkpt lat="49.19213" lon="2.01155">
        <ele>200.9</ele>
        <time>2017-04-02T11:39:29Z</time>
      </trkpt>
      <trkpt lat="49.19208" lon="2.01165">
        <ele>199.1</ele>
        <time>2017-04-02T11:39:35Z</time>
      </trkpt>
      <trkpt lat="49.19203" lon="2.01175">
        <ele>200.1</ele>
        <time>2017-04-02T11:39:42Z</time>
      </trkpt>
      <trkpt lat="49.192" lon="2.01186">
        <ele>199.9</ele>
        <time>2017-04-02T11:39:49Z</time>
      </trkpt>
      <trkpt lat="49.19197" lon="2.01198">
        <ele>198.2</ele>
        <time>2017-04-02T11:39:56Z</time>
      </trkpt>
      <trkpt lat="49.19192" lon="2.01206">
        <ele>196.8</ele>
        <time>2017-04-02T11:40:03Z</time>
      </trkpt>
      <trkpt lat="49.19186" lon="2.01214">
        <ele>196.3</ele>
        <time>2017-04-02T11:40:09Z</time>
      </trkpt>
      <trkpt lat="49.19182" lon="2.01223">
        <ele>196.4</ele>
        <time>2017-04-02T11:40:15Z</time>
      </trkpt>
      <trkpt lat="49.19177" lon="2.01231">
        <ele>196.3</ele>
        <time>2017-04-02T11:40:22Z</time>
      </trkpt>
      <trkpt lat="49.19174" lon="2.01236">
        <ele>195.9</ele>
        <time>2017-04-02T11:40:29Z</time>
      </trkpt>
      <trkpt lat="49.19169" lon="2.01242">
        <ele>197.5</ele>
        <time>2017-04-02T11:40:36Z</time>
      </trkpt>
      <trkpt lat="49.19165" lon="2.01252">
        <ele>197.9</ele>
        <time>2017-04-02T11:40:42Z</time>
      </trkpt>
      <trkpt lat="49.19162" lon="2.01261">
        <ele>199.2</ele>
        <time>2017-04-02T11:40:49Z</time>
      </trkpt>
      <trkpt lat="49.19164" lon="2.01274">
        <ele>200.1</ele>
        <time>2017-04-02T11:40:56Z</time>
      </trkpt>
      <trkpt lat="49.19163" lon="2.01282">
        <ele>200.4</ele>
        <time>2017-04-02T11:41:03Z</time>
      </trkpt>
      <trkpt lat="49.1916" lon="2.01291">
        <ele>199.2</ele>
        <time>2017-04-02T11:41:10Z</time>
      </trkpt>
      <trkpt lat="49.19157" lon="2.01301">
        <ele>198</ele>
        <time>2017-04-02T11:41:16Z</time>
      </trkpt>
      <trkpt lat="49.19154" lon="2.01312">
        <ele>197.3</ele>
        <time>2017-04-02T11:41:22Z</time>
      </trkpt>
      <trkpt lat="49.19152" lon="2.01322">
        <ele>197.2</ele>
        <time>2017-04-02T11:41:29Z</time>
      </trkpt>
      <trkpt lat="49.1915" lon="2.01333">
        <ele>197.2</ele>
        <time>2017-04-02T11:41:36Z</time>
      </trkpt>
      <trkpt lat="49.19148" lon="2.01345">
        <ele>196.9</ele>
        <time>2017-04-02T11:41:43Z</time>
      </trkpt>
      <trkpt lat="49.19144" lon="2.01355">
        <ele>197.1</ele>
        <time>2017-04-02T11:41:50Z</time>
      </trkpt>
      <trkpt lat="49.19142" lon="2.01365">
        <ele>197.4</ele>
        <time>2017-04-02T11:41:57Z</time>
      </trkpt>
      <trkpt lat="49.1914" lon="2.01377">
        <ele>197.8</ele>
        <time>2017-04-02T11:42:04Z</time>
      </trkpt>
      <trkpt lat="49.19138" lon="2.01387">
        <ele>197.5</ele>
        <time>2017-04-02T11:42:11Z</time>
      </trkpt>
      <trkpt lat="49.19136" lon="2.01398">
        <ele>199.2</ele>
        <time>2017-04-02T11:42:18Z</time>
      </trkpt>
      <trkpt lat="49.19132" lon="2.01409">
        <ele>199.7</ele>
        <time>2017-04-02T11:42:25Z</time>
      </trkpt>
      <trkpt lat="49.19129" lon="2.01419">
        <ele>200.2</ele>
        <time>2017-04-02T11:42:31Z</time>
      </trkpt>
      <trkpt lat="49.19127" lon="2.01432">
        <ele>200.9</ele>
        <time>2017-04-02T11:42:37Z</time>
      </trkpt>
      <trkpt lat="49.19124" lon="2.01442">
        <ele>201.6</ele>
        <time>2017-04-02T11:42:43Z</time>
      </trkpt>
      <trkpt lat="49.19122" lon="2.01453">
        <ele>202.6</ele>
        <time>2017-04-02T11:42:50Z</time>
      </trkpt>
      <trkpt lat="49.19121" lon="2.01462">
        <ele>202.5</ele>
        <time>2017-04-02T11:42:57Z</time>
      </trkpt>
      <trkpt lat="49.19119" lon="2.01473">
        <ele>201.8</ele>
        <time>2017-04-02T11:43:03Z</time>
      </trkpt>
      <trkpt lat="49.19117" lon="2.01484">
        <ele>200.9</ele>
        <time>2017-04-02T11:43:10Z</time>
      </trkpt>
      <trkpt lat="49.19117" lon="2.01496">
        <ele>198.4</ele>
        <time>2017-04-02T11:43:17Z</time>
      </trkpt>
      <trkpt lat="49.19118" lon="2.01505">
        <ele>196.4</ele>
        <time>2017-04-02T11:43:24Z</time>
      </trkpt>
      <trkpt lat="49.19119" lon="2.01514">
        <ele>195.7</ele>
        <time>2017-04-02T11:43:31Z</time>
      </trkpt>
      <trkpt lat="49.1912" lon="2.01524">
        <ele>196.4</ele>
        <time>2017-04-02T11:43:38Z</time>
      </trkpt>
      <trkpt lat="49.1912" lon="2.01533">
        <ele>195.9</ele>
        <time>2017-04-02T11:43:45Z</time>
      </trkpt>
      <trkpt lat="49.19118" lon="2.01547">
        <ele>194.8</ele>
        <time>2017-04-02T11:43:51Z</time>
      </trkpt>
      <trkpt lat="49.19116" lon="2.01558">
        <ele>193.8</ele>
        <time>2017-04-02T11:43:56Z</time>
      </trkpt>
      <trkpt lat="49.19113" lon="2.01569">
        <ele>191.9</ele>
        <time>2017-04-02T11:44:02Z</time>
      </trkpt>
      <trkpt lat="49.19111" lon="2.01581">
        <ele>189.6</ele>
        <time>2017-04-02T11:44:09Z</time>
      </trkpt>
      <trkpt lat="49.1911" lon="2.01592">
        <ele>189.4</ele>
        <time>2017-04-02T11:44:16Z</time>
      </trkpt>
      <trkpt lat="49.1911" lon="2.01601">
        <ele>189.2</ele>
        <time>2017-04-02T11:44:23Z</time>
      </trkpt>
      <trkpt lat="49.19109" lon="2.01612">
        <ele>191.2</ele>
        <time>2017-04-02T11:44:28Z</time>
      </trkpt>
      <trkpt lat="49.1911" lon="2.01624">
        <ele>192.6</ele>
        <time>2017-04-02T11:44:34Z</time>
      </trkpt>
      <trkpt lat="49.19109" lon="2.01635">
        <ele>193.1</ele>
        <time>2017-04-02T11:44:41Z</time>
      </trkpt>
      <trkpt lat="49.19108" lon="2.01647">
        <ele>193.3</ele>
        <time>2017-04-02T11:44:48Z</time>
      </trkpt>
      <trkpt lat="49.19105" lon="2.01659">
        <ele>194.1</ele>
        <time>2017-04-02T11:44:54Z</time>
      </trkpt>
      <trkpt lat="49.19102" lon="2.0167">
        <ele>193.6</ele>
        <time>2017-04-02T11:45:00Z</time>
      </trkpt>
      <trkpt lat="49.191" lon="2.01681">
        <ele>194.3</ele>
        <time>2017-04-02T11:45:06Z</time>
      </trkpt>
      <trkpt lat="49.19097" lon="2.01693">
        <ele>195.3</ele>
        <time>2017-04-02T11:45:12Z</time>
      </trkpt>
      <trkpt lat="49.19094" lon="2.01705">
        <ele>195.1</ele>
        <time>2017-04-02T11:45:19Z</time>
      </trkpt>
      <trkpt lat="49.19091" lon="2.01716">
        <ele>193.6</ele>
        <time>2017-04-02T11:45:26Z</time>
      </trkpt>
      <trkpt lat="49.19088" lon="2.01725">
        <ele>193.5</ele>
        <time>2017-04-02T11:45:32Z</time>
      </trkpt>
      <trkpt lat="49.19085" lon="2.01738">
        <ele>193.6</ele>
        <time>2017-04-02T11:45:39Z</time>
      </trkpt>
      <trkpt lat="49.19082" lon="2.01749">
        <ele>193.6</ele>
        <time>2017-04-02T11:45:45Z</time>
      </trkpt>
      <trkpt lat="49.19078" lon="2.01759">
        <ele>193.7</ele>
        <time>2017-04-02T11:45:51Z</time>
      </trkpt>
      <trkpt lat="49.19076" lon="2.01769">
        <ele>193.5</ele>
        <time>2017-04-02T11:45:58Z</time>
      </trkpt>
      <trkpt lat="49.19074" lon="2.01778">
        <ele>194.2</ele>
        <time>2017-04-02T11:46:05Z</time>
      </trkpt>
      <trkpt lat="49.19069" lon="2.01788">
        <ele>195.8</ele>
        <time>2017-04-02T11:46:12Z</time>
      </trkpt>
      <trkpt lat="49.19068" lon="2.01798">
        <ele>196.3</ele>
        <time>2017-04-02T11:46:19Z</time>
      </trkpt>
      <trkpt lat="49.19064" lon="2.01809">
        <ele>196.8</ele>
        <time>2017-04-02T11:46:26Z</time>
      </trkpt>
      <trkpt lat="49.19062" lon="2.01821">
        <ele>197.8</ele>
        <time>2017-04-02T11:46:33Z</time>
      </trkpt>
      <trkpt lat="49.19059" lon="2.01832">
        <ele>200.1</ele>
        <time>2017-04-02T11:46:40Z</time>
      </trkpt>
      <trkpt lat="49.19055" lon="2.01843">
        <ele>199.7</ele>
        <time>2017-04-02T11:46:47Z</time>
      </trkpt>
      <trkpt lat="49.19052" lon="2.01854">
        <ele>200.3</ele>
        <time>2017-04-02T11:46:54Z</time>
      </trkpt>
      <trkpt lat="49.1905" lon="2.01863">
        <ele>200.3</ele>
        <time>2017-04-02T11:47:01Z</time>
      </trkpt>
      <trkpt lat="49.19048" lon="2.01874">
        <ele>201</ele>
        <time>2017-04-02T11:47:08Z</time>
      </trkpt>
      <trkpt lat="49.19046" lon="2.01884">
        <ele>200.4</ele>
        <time>2017-04-02T11:47:15Z</time>
      </trkpt>
      <trkpt lat="49.19043" lon="2.01894">
        <ele>200.1</ele>
        <time>2017-04-02T11:47:21Z</time>
      </trkpt>
      <trkpt lat="49.19038" lon="2.01904">
        <ele>200.3</ele>
        <time>2017-04-02T11:47:28Z</time>
      </trkpt>
      <trkpt lat="49.19039" lon="2.01914">
        <ele>201.6</ele>
        <time>2017-04-02T11:47:35Z</time>
      </trkpt>
      <trkpt lat="49.1904" lon="2.01924">
        <ele>199.9</ele>
        <time>2017-04-02T11:47:42Z</time>
      </trkpt>
      <trkpt lat="49.19044" lon="2.01931">
        <ele>197.8</ele>
        <time>2017-04-02T11:47:49Z</time>
      </trkpt>
      <trkpt lat="49.1905" lon="2.01939">
        <ele>196</ele>
        <time>2017-04-02T11:47:56Z</time>
      </trkpt>
      <trkpt lat="49.19056" lon="2.01948">
        <ele>192.9</ele>
        <time>2017-04-02T11:48:03Z</time>
      </trkpt>
      <trkpt lat="49.19058" lon="2.01957">
        <ele>191.4</ele>
        <time>2017-04-02T11:48:10Z</time>
      </trkpt>
      <trkpt lat="49.19058" lon="2.01968">
        <ele>190.5</ele>
        <time>2017-04-02T11:48:17Z</time>
      </trkpt>
      <trkpt lat="49.19058" lon="2.0198">
        <ele>191.5</ele>
        <time>2017-04-02T11:48:23Z</time>
      </trkpt>
      <trkpt lat="49.19057" lon="2.01991">
        <ele>192</ele>
        <time>2017-04-02T11:48:30Z</time>
      </trkpt>
      <trkpt lat="49.19056" lon="2.02002">
        <ele>191.8</ele>
        <time>2017-04-02T11:48:37Z</time>
      </trkpt>
      <trkpt lat="49.19055" lon="2.02014">
        <ele>191.7</ele>
        <time>2017-04-02T11:48:44Z</time>
      </trkpt>
      <trkpt lat="49.19055" lon="2.02025">
        <ele>190.7</ele>
        <time>2017-04-02T11:48:51Z</time>
      </trkpt>
      <trkpt lat="49.19055" lon="2.02037">
        <ele>191.7</ele>
        <time>2017-04-02T11:48:58Z</time>
      </trkpt>
      <trkpt lat="49.19055" lon="2.02048">
        <ele>191.1</ele>
        <time>2017-04-02T11:49:05Z</time>
      </trkpt>
      <trkpt lat="49.19054" lon="2.02058">
        <ele>194.5</ele>
        <time>2017-04-02T11:49:12Z</time>
      </trkpt>
      <trkpt lat="49.19049" lon="2.02062">
        <ele>197.9</ele>
        <time>2017-04-02T11:49:19Z</time>
      </trkpt>
      <trkpt lat="49.19042" lon="2.02066">
        <ele>198.7</ele>
        <time>2017-04-02T11:49:26Z</time>
      </trkpt>
      <trkpt lat="49.19036" lon="2.02069">
        <ele>201</ele>
        <time>2017-04-02T11:49:33Z</time>
      </trkpt>
      <trkpt lat="49.19029" lon="2.02073">
        <ele>203.5</ele>
        <time>2017-04-02T11:49:40Z</time>
      </trkpt>
      <trkpt lat="49.19022" lon="2.02076">
        <ele>204.2</ele>
        <time>2017-04-02T11:49:46Z</time>
      </trkpt>
      <trkpt lat="49.19015" lon="2.02079">
        <ele>203.2</ele>
        <time>2017-04-02T11:49:53Z</time>
      </trkpt>
      <trkpt lat="49.19008" lon="2.02084">
        <ele>201.8</ele>
        <time>2017-04-02T11:50:00Z</time>
      </trkpt>
      <trkpt lat="49.19002" lon="2.02091">
        <ele>201</ele>
        <time>2017-04-02T11:50:07Z</time>
      </trkpt>
      <trkpt lat="49.18996" lon="2.02096">
        <ele>200.6</ele>
        <time>2017-04-02T11:50:14Z</time>
      </trkpt>
      <trkpt lat="49.18989" lon="2.02101">
        <ele>200.5</ele>
        <time>2017-04-02T11:50:20Z</time>
      </trkpt>
      <trkpt lat="49.18982" lon="2.02107">
        <ele>201</ele>
        <time>2017-04-02T11:50:27Z</time>
      </trkpt>
      <trkpt lat="49.18974" lon="2.02111">
        <ele>201.3</ele>
        <time>2017-04-02T11:50:34Z</time>
      </trkpt>
      <trkpt lat="49.18967" lon="2.02116">
        <ele>201.9</ele>
        <time>2017-04-02T11:50:40Z</time>
      </trkpt>
      <trkpt lat="49.18961" lon="2.02121">
        <ele>201.4</ele>
        <time>2017-04-02T11:50:47Z</time>
      </trkpt>
      <trkpt lat="49.18953" lon="2.02127">
        <ele>201.6</ele>
        <time>2017-04-02T11:50:53Z</time>
      </trkpt>
      <trkpt lat="49.18946" lon="2.02131">
        <ele>203.4</ele>
        <time>2017-04-02T11:50:58Z</time>
      </trkpt>
      <trkpt lat="49.18939" lon="2.02134">
        <ele>203.6</ele>
        <time>2017-04-02T11:51:04Z</time>
      </trkpt>
      <trkpt lat="49.18932" lon="2.02138">
        <ele>202.3</ele>
        <time>2017-04-02T11:51:10Z</time>
      </trkpt>
      <trkpt lat="49.18925" lon="2.02142">
        <ele>201.8</ele>
        <time>2017-04-02T11:51:16Z</time>
      </trkpt>
      <trkpt lat="49.18918" lon="2.02147">
        <ele>201.1</ele>
        <time>2017-04-02T11:51:23Z</time>
      </trkpt>
      <trkpt lat="49.1891" lon="2.02152">
        <ele>200.4</ele>
        <time>2017-04-02T11:51:30Z</time>
      </trkpt>
      <trkpt lat="49.18902" lon="2.02155">
        <ele>198.7</ele>
        <time>2017-04-02T11:51:36Z</time>
      </trkpt>
      <trkpt lat="49.18896" lon="2.02162">
        <ele>198.1</ele>
        <time>2017-04-02T11:51:42Z</time>
      </trkpt>
      <trkpt lat="49.18889" lon="2.02168">
        <ele>197.2</ele>
        <time>2017-04-02T11:51:49Z</time>
      </trkpt>
      <trkpt lat="49.18884" lon="2.02176">
        <ele>196.9</ele>
        <time>2017-04-02T11:51:56Z</time>
      </trkpt>
      <trkpt lat="49.18878" lon="2.02182">
        <ele>197.1</ele>
        <time>2017-04-02T11:52:03Z</time>
      </trkpt>
      <trkpt lat="49.18872" lon="2.02187">
        <ele>196.9</ele>
        <time>2017-04-02T11:52:10Z</time>
      </trkpt>
      <trkpt lat="49.18865" lon="2.02195">
        <ele>196.3</ele>
        <time>2017-04-02T11:52:17Z</time>
      </trkpt>
      <trkpt lat="49.18858" lon="2.022">
        <ele>197.2</ele>
        <time>2017-04-02T11:52:24Z</time>
      </trkpt>
      <trkpt lat="49.18852" lon="2.02204">
        <ele>196.4</ele>
        <time>2017-04-02T11:52:30Z</time>
      </trkpt>
      <trkpt lat="49.18844" lon="2.02209">
        <ele>196.4</ele>
        <time>2017-04-02T11:52:36Z</time>
      </trkpt>
      <trkpt lat="49.18838" lon="2.02214">
        <ele>196.6</ele>
        <time>2017-04-02T11:52:42Z</time>
      </trkpt>
      <trkpt lat="49.18831" lon="2.02218">
        <ele>197.1</ele>
        <time>2017-04-02T11:52:48Z</time>
      </trkpt>
      <trkpt lat="49.18823" lon="2.02223">
        <ele>197.8</ele>
        <time>2017-04-02T11:52:55Z</time>
      </trkpt>
      <trkpt lat="49.18815" lon="2.02228">
        <ele>195.9</ele>
        <time>2017-04-02T11:53:02Z</time>
      </trkpt>
      <trkpt lat="49.18808" lon="2.0223">
        <ele>196.2</ele>
        <time>2017-04-02T11:53:08Z</time>
      </trkpt>
      <trkpt lat="49.18801" lon="2.02235">
        <ele>196.2</ele>
        <time>2017-04-02T11:53:15Z</time>
      </trkpt>
      <trkpt lat="49.18793" lon="2.02239">
        <ele>195.8</ele>
        <time>2017-04-02T11:53:22Z</time>
      </trkpt>
      <trkpt lat="49.18786" lon="2.02241">
        <ele>196</ele>
        <time>2017-04-02T11:53:28Z</time>
      </trkpt>
      <trkpt lat="49.18778" lon="2.02244">
        <ele>196.4</ele>
        <time>2017-04-02T11:53:34Z</time>
      </trkpt>
      <trkpt lat="49.18771" lon="2.02245">
        <ele>196.9</ele>
        <time>2017-04-02T11:53:40Z</time>
      </trkpt>
      <trkpt lat="49.18764" lon="2.02245">
        <ele>198.2</ele>
        <time>2017-04-02T11:53:47Z</time>
      </trkpt>
      <trkpt lat="49.18756" lon="2.02243">
        <ele>200.4</ele>
        <time>2017-04-02T11:53:54Z</time>
      </trkpt>
      <trkpt lat="49.18749" lon="2.02244">
        <ele>200.7</ele>
        <time>2017-04-02T11:54:01Z</time>
      </trkpt>
      <trkpt lat="49.18742" lon="2.02244">
        <ele>201.2</ele>
        <time>2017-04-02T11:54:08Z</time>
      </trkpt>
      <trkpt lat="49.18736" lon="2.02244">
        <ele>203</ele>
        <time>2017-04-02T11:54:15Z</time>
      </trkpt>
      <trkpt lat="49.18728" lon="2.02242">
        <ele>205.4</ele>
        <time>2017-04-02T11:54:22Z</time>
      </trkpt>
      <trkpt lat="49.18721" lon="2.02241">
        <ele>204.4</ele>
        <time>2017-04-02T11:54:29Z</time>
      </trkpt>
      <trkpt lat="49.18714" lon="2.02237">
        <ele>204.9</ele>
        <time>2017-04-02T11:54:34Z</time>
      </trkpt>
      <trkpt lat="49.18706" lon="2.02237">
        <ele>203.8</ele>
        <time>2017-04-02T11:54:39Z</time>
      </trkpt>
      <trkpt lat="49.18699" lon="2.02234">
        <ele>203.3</ele>
        <time>2017-04-02T11:54:44Z</time>
      </trkpt>
      <trkpt lat="49.18691" lon="2.02233">
        <ele>203.4</ele>
        <time>2017-04-02T11:54:51Z</time>
      </trkpt>
      <trkpt lat="49.18683" lon="2.02231">
        <ele>204.6</ele>
        <time>2017-04-02T11:54:57Z</time>
      </trkpt>
      <trkpt lat="49.18675" lon="2.0223">
        <ele>206.7</ele>
        <time>2017-04-02T11:55:04Z</time>
      </trkpt>
      <trkpt lat="49.18668" lon="2.02229">
        <ele>206.5</ele>
        <time>2017-04-02T11:55:10Z</time>
      </trkpt>
      <trkpt lat="49.18659" lon="2.02229">
        <ele>207.1</ele>
        <time>2017-04-02T11:55:16Z</time>
      </trkpt>
      <trkpt lat="49.18651" lon="2.02229">
        <ele>206.8</ele>
        <time>2017-04-02T11:55:23Z</time>
      </trkpt>
      <trkpt lat="49.18644" lon="2.02228">
        <ele>207.7</ele>
        <time>2017-04-02T11:55:29Z</time>
      </trkpt>
      <trkpt lat="49.18635" lon="2.02229">
        <ele>208.8</ele>
        <time>2017-04-02T11:55:36Z</time>
      </trkpt>
      <trkpt lat="49.18628" lon="2.02227">
        <ele>207.2</ele>
        <time>2017-04-02T11:55:42Z</time>
      </trkpt>
      <trkpt lat="49.1862" lon="2.02224">
        <ele>204.2</ele>
        <time>2017-04-02T11:55:49Z</time>
      </trkpt>
      <trkpt lat="49.18614" lon="2.02223">
        <ele>204.4</ele>
        <time>2017-04-02T11:55:56Z</time>
      </trkpt>
      <trkpt lat="49.18607" lon="2.02222">
        <ele>204.6</ele>
        <time>2017-04-02T11:56:03Z</time>
      </trkpt>
      <trkpt lat="49.18599" lon="2.0222">
        <ele>203.1</ele>
        <time>2017-04-02T11:56:09Z</time>
      </trkpt>
      <trkpt lat="49.18592" lon="2.02218">
        <ele>204.3</ele>
        <time>2017-04-02T11:56:15Z</time>
      </trkpt>
      <trkpt lat="49.18585" lon="2.02215">
        <ele>205.7</ele>
        <time>2017-04-02T11:56:21Z</time>
      </trkpt>
      <trkpt lat="49.18577" lon="2.02214">
        <ele>206.2</ele>
        <time>2017-04-02T11:56:27Z</time>
      </trkpt>
      <trkpt lat="49.18569" lon="2.0221">
        <ele>207</ele>
        <time>2017-04-02T11:56:33Z</time>
      </trkpt>
      <trkpt lat="49.18562" lon="2.02206">
        <ele>205.3</ele>
        <time>2017-04-02T11:56:39Z</time>
      </trkpt>
      <trkpt lat="49.18555" lon="2.022">
        <ele>203.4</ele>
        <time>2017-04-02T11:56:46Z</time>
      </trkpt>
      <trkpt lat="49.18547" lon="2.02197">
        <ele>200.8</ele>
        <time>2017-04-02T11:56:52Z</time>
      </trkpt>
      <trkpt lat="49.1854" lon="2.02191">
        <ele>199.9</ele>
        <time>2017-04-02T11:56:59Z</time>
      </trkpt>
      <trkpt lat="49.18533" lon="2.02188">
        <ele>200.5</ele>
        <time>2017-04-02T11:57:06Z</time>
      </trkpt>
      <trkpt lat="49.18528" lon="2.02186">
        <ele>202.2</ele>
        <time>2017-04-02T11:57:13Z</time>
      </trkpt>
      <trkpt lat="49.18528" lon="2.02186">
        <ele>202.6</ele>
        <time>2017-04-02T11:57:20Z</time>
      </trkpt>
      <trkpt lat="49.18516" lon="2.02182">
        <ele>201.5</ele>
        <time>2017-04-02T11:57:42Z</time>
      </trkpt>
      <trkpt lat="49.18508" lon="2.02179">
        <ele>205.8</ele>
        <time>2017-04-02T11:57:48Z</time>
      </trkpt>
      <trkpt lat="49.18502" lon="2.0218">
        <ele>208</ele>
        <time>2017-04-02T11:57:55Z</time>
      </trkpt>
      <trkpt lat="49.18497" lon="2.02181">
        <ele>207.2</ele>
        <time>2017-04-02T11:58:02Z</time>
      </trkpt>
      <trkpt lat="49.18492" lon="2.0218">
        <ele>206.2</ele>
        <time>2017-04-02T11:58:09Z</time>
      </trkpt>
      <trkpt lat="49.18487" lon="2.02181">
        <ele>206.4</ele>
        <time>2017-04-02T11:58:16Z</time>
      </trkpt>
      <trkpt lat="49.1848" lon="2.02181">
        <ele>206.9</ele>
        <time>2017-04-02T11:58:23Z</time>
      </trkpt>
      <trkpt lat="49.18472" lon="2.02179">
        <ele>205.8</ele>
        <time>2017-04-02T11:58:30Z</time>
      </trkpt>
      <trkpt lat="49.18466" lon="2.02176">
        <ele>205.3</ele>
        <time>2017-04-02T11:58:37Z</time>
      </trkpt>
      <trkpt lat="49.18458" lon="2.02175">
        <ele>206.1</ele>
        <time>2017-04-02T11:58:44Z</time>
      </trkpt>
      <trkpt lat="49.18451" lon="2.02173">
        <ele>206</ele>
        <time>2017-04-02T11:58:51Z</time>
      </trkpt>
      <trkpt lat="49.18446" lon="2.02171">
        <ele>205.4</ele>
        <time>2017-04-02T11:58:58Z</time>
      </trkpt>
      <trkpt lat="49.18439" lon="2.02166">
        <ele>204.4</ele>
        <time>2017-04-02T11:59:05Z</time>
      </trkpt>
      <trkpt lat="49.18431" lon="2.02161">
        <ele>205</ele>
        <time>2017-04-02T11:59:12Z</time>
      </trkpt>
      <trkpt lat="49.18425" lon="2.02155">
        <ele>203.9</ele>
        <time>2017-04-02T11:59:18Z</time>
      </trkpt>
      <trkpt lat="49.1842" lon="2.02149">
        <ele>204.8</ele>
        <time>2017-04-02T11:59:25Z</time>
      </trkpt>
      <trkpt lat="49.18414" lon="2.02141">
        <ele>204.5</ele>
        <time>2017-04-02T11:59:31Z</time>
      </trkpt>
      <trkpt lat="49.18409" lon="2.02134">
        <ele>204.4</ele>
        <time>2017-04-02T11:59:37Z</time>
      </trkpt>
      <trkpt lat="49.18402" lon="2.02125">
        <ele>203.6</ele>
        <time>2017-04-02T11:59:44Z</time>
      </trkpt>
      <trkpt lat="49.18398" lon="2.02117">
        <ele>202.5</ele>
        <time>2017-04-02T11:59:50Z</time>
      </trkpt>
      <trkpt lat="49.18394" lon="2.02109">
        <ele>201.8</ele>
        <time>2017-04-02T11:59:57Z</time>
      </trkpt>
      <trkpt lat="49.18388" lon="2.02099">
        <ele>199.9</ele>
        <time>2017-04-02T12:00:04Z</time>
      </trkpt>
      <trkpt lat="49.18384" lon="2.02092">
        <ele>199.5</ele>
        <time>2017-04-02T12:00:11Z</time>
      </trkpt>
      <trkpt lat="49.18379" lon="2.02083">
        <ele>199</ele>
        <time>2017-04-02T12:00:18Z</time>
      </trkpt>
      <trkpt lat="49.18376" lon="2.02078">
        <ele>199</ele>
        <time>2017-04-02T12:00:25Z</time>
      </trkpt>
      <trkpt lat="49.18371" lon="2.0207">
        <ele>199.3</ele>
        <time>2017-04-02T12:00:30Z</time>
      </trkpt>
      <trkpt lat="49.18365" lon="2.02062">
        <ele>200</ele>
        <time>2017-04-02T12:00:34Z</time>
      </trkpt>
      <trkpt lat="49.1836" lon="2.02054">
        <ele>201.6</ele>
        <time>2017-04-02T12:00:40Z</time>
      </trkpt>
      <trkpt lat="49.18355" lon="2.02045">
        <ele>202.4</ele>
        <time>2017-04-02T12:00:47Z</time>
      </trkpt>
      <trkpt lat="49.1835" lon="2.02037">
        <ele>201.7</ele>
        <time>2017-04-02T12:00:53Z</time>
      </trkpt>
      <trkpt lat="49.18345" lon="2.02028">
        <ele>201.1</ele>
        <time>2017-04-02T12:00:59Z</time>
      </trkpt>
      <trkpt lat="49.1834" lon="2.0202">
        <ele>200.4</ele>
        <time>2017-04-02T12:01:05Z</time>
      </trkpt>
      <trkpt lat="49.18334" lon="2.02012">
        <ele>198.8</ele>
        <time>2017-04-02T12:01:12Z</time>
      </trkpt>
      <trkpt lat="49.18329" lon="2.02003">
        <ele>198.6</ele>
        <time>2017-04-02T12:01:19Z</time>
      </trkpt>
      <trkpt lat="49.18323" lon="2.01994">
        <ele>198.1</ele>
        <time>2017-04-02T12:01:26Z</time>
      </trkpt>
      <trkpt lat="49.18318" lon="2.01986">
        <ele>197.8</ele>
        <time>2017-04-02T12:01:33Z</time>
      </trkpt>
      <trkpt lat="49.18312" lon="2.01976">
        <ele>198.1</ele>
        <time>2017-04-02T12:01:39Z</time>
      </trkpt>
      <trkpt lat="49.18307" lon="2.01967">
        <ele>200.3</ele>
        <time>2017-04-02T12:01:46Z</time>
      </trkpt>
      <trkpt lat="49.18302" lon="2.01959">
        <ele>199.6</ele>
        <time>2017-04-02T12:01:53Z</time>
      </trkpt>
      <trkpt lat="49.18298" lon="2.01949">
        <ele>199.5</ele>
        <time>2017-04-02T12:01:59Z</time>
      </trkpt>
      <trkpt lat="49.18292" lon="2.01941">
        <ele>197.7</ele>
        <time>2017-04-02T12:02:04Z</time>
      </trkpt>
      <trkpt lat="49.18286" lon="2.01935">
        <ele>194.4</ele>
        <time>2017-04-02T12:02:09Z</time>
      </trkpt>
      <trkpt lat="49.1828" lon="2.01926">
        <ele>190.7</ele>
        <time>2017-04-02T12:02:15Z</time>
      </trkpt>
      <trkpt lat="49.18276" lon="2.01917">
        <ele>190.1</ele>
        <time>2017-04-02T12:02:20Z</time>
      </trkpt>
      <trkpt lat="49.18271" lon="2.01907">
        <ele>190.7</ele>
        <time>2017-04-02T12:02:26Z</time>
      </trkpt>
      <trkpt lat="49.18267" lon="2.01896">
        <ele>191</ele>
        <time>2017-04-02T12:02:32Z</time>
      </trkpt>
      <trkpt lat="49.18264" lon="2.01888">
        <ele>190.3</ele>
        <time>2017-04-02T12:02:39Z</time>
      </trkpt>
      <trkpt lat="49.18259" lon="2.01879">
        <ele>190.6</ele>
        <time>2017-04-02T12:02:46Z</time>
      </trkpt>
      <trkpt lat="49.18253" lon="2.01872">
        <ele>192.9</ele>
        <time>2017-04-02T12:02:52Z</time>
      </trkpt>
      <trkpt lat="49.18247" lon="2.01865">
        <ele>194</ele>
        <time>2017-04-02T12:02:58Z</time>
      </trkpt>
      <trkpt lat="49.18241" lon="2.01858">
        <ele>192.8</ele>
        <time>2017-04-02T12:03:04Z</time>
      </trkpt>
      <trkpt lat="49.18236" lon="2.0185">
        <ele>193.9</ele>
        <time>2017-04-02T12:03:11Z</time>
      </trkpt>
      <trkpt lat="49.1823" lon="2.01841">
        <ele>196</ele>
        <time>2017-04-02T12:03:18Z</time>
      </trkpt>
      <trkpt lat="49.18225" lon="2.01832">
        <ele>195.9</ele>
        <time>2017-04-02T12:03:23Z</time>
      </trkpt>
      <trkpt lat="49.1822" lon="2.01823">
        <ele>196.3</ele>
        <time>2017-04-02T12:03:30Z</time>
      </trkpt>
      <trkpt lat="49.18214" lon="2.01816">
        <ele>197.9</ele>
        <time>2017-04-02T12:03:36Z</time>
      </trkpt>
      <trkpt lat="49.18208" lon="2.01806">
        <ele>199.3</ele>
        <time>2017-04-02T12:03:42Z</time>
      </trkpt>
      <trkpt lat="49.18203" lon="2.01796">
        <ele>200.3</ele>
        <time>2017-04-02T12:03:49Z</time>
      </trkpt>
      <trkpt lat="49.18197" lon="2.01789">
        <ele>199.9</ele>
        <time>2017-04-02T12:03:56Z</time>
      </trkpt>
      <trkpt lat="49.18191" lon="2.01782">
        <ele>199.1</ele>
        <time>2017-04-02T12:04:01Z</time>
      </trkpt>
      <trkpt lat="49.18184" lon="2.01776">
        <ele>198.2</ele>
        <time>2017-04-02T12:04:07Z</time>
      </trkpt>
      <trkpt lat="49.18179" lon="2.01769">
        <ele>197.2</ele>
        <time>2017-04-02T12:04:14Z</time>
      </trkpt>
      <trkpt lat="49.18174" lon="2.01762">
        <ele>195</ele>
        <time>2017-04-02T12:04:21Z</time>
      </trkpt>
      <trkpt lat="49.18168" lon="2.01753">
        <ele>195.7</ele>
        <time>2017-04-02T12:04:28Z</time>
      </trkpt>
      <trkpt lat="49.18164" lon="2.01743">
        <ele>195.2</ele>
        <time>2017-04-02T12:04:34Z</time>
      </trkpt>
      <trkpt lat="49.1816" lon="2.01734">
        <ele>194.5</ele>
        <time>2017-04-02T12:04:40Z</time>
      </trkpt>
      <trkpt lat="49.18155" lon="2.01727">
        <ele>194.5</ele>
        <time>2017-04-02T12:04:46Z</time>
      </trkpt>
      <trkpt lat="49.18149" lon="2.01717">
        <ele>193.8</ele>
        <time>2017-04-02T12:04:52Z</time>
      </trkpt>
      <trkpt lat="49.18144" lon="2.0171">
        <ele>193.7</ele>
        <time>2017-04-02T12:04:59Z</time>
      </trkpt>
      <trkpt lat="49.18139" lon="2.01701">
        <ele>195.1</ele>
        <time>2017-04-02T12:05:06Z</time>
      </trkpt>
      <trkpt lat="49.18135" lon="2.01693">
        <ele>197.6</ele>
        <time>2017-04-02T12:05:13Z</time>
      </trkpt>
      <trkpt lat="49.18132" lon="2.01687">
        <ele>195.6</ele>
        <time>2017-04-02T12:05:20Z</time>
      </trkpt>
      <trkpt lat="49.18128" lon="2.0168">
        <ele>195.6</ele>
        <time>2017-04-02T12:05:27Z</time>
      </trkpt>
      <trkpt lat="49.18122" lon="2.01678">
        <ele>198.7</ele>
        <time>2017-04-02T12:05:34Z</time>
      </trkpt>
      <trkpt lat="49.18118" lon="2.01668">
        <ele>198.3</ele>
        <time>2017-04-02T12:05:41Z</time>
      </trkpt>
      <trkpt lat="49.18114" lon="2.01663">
        <ele>197</ele>
        <time>2017-04-02T12:05:48Z</time>
      </trkpt>
      <trkpt lat="49.18108" lon="2.01658">
        <ele>196.3</ele>
        <time>2017-04-02T12:05:55Z</time>
      </trkpt>
      <trkpt lat="49.18101" lon="2.01651">
        <ele>194.5</ele>
        <time>2017-04-02T12:06:01Z</time>
      </trkpt>
      <trkpt lat="49.18097" lon="2.01643">
        <ele>195.7</ele>
        <time>2017-04-02T12:06:06Z</time>
      </trkpt>
      <trkpt lat="49.18091" lon="2.01636">
        <ele>196.1</ele>
        <time>2017-04-02T12:06:13Z</time>
      </trkpt>
      <trkpt lat="49.18085" lon="2.01634">
        <ele>195.5</ele>
        <time>2017-04-02T12:06:20Z</time>
      </trkpt>
      <trkpt lat="49.18077" lon="2.01631">
        <ele>193.8</ele>
        <time>2017-04-02T12:06:25Z</time>
      </trkpt>
      <trkpt lat="49.18071" lon="2.01626">
        <ele>193</ele>
        <time>2017-04-02T12:06:30Z</time>
      </trkpt>
      <trkpt lat="49.18063" lon="2.01622">
        <ele>192.6</ele>
        <time>2017-04-02T12:06:36Z</time>
      </trkpt>
      <trkpt lat="49.18056" lon="2.01616">
        <ele>191.5</ele>
        <time>2017-04-02T12:06:43Z</time>
      </trkpt>
      <trkpt lat="49.18051" lon="2.0161">
        <ele>190.9</ele>
        <time>2017-04-02T12:06:50Z</time>
      </trkpt>
      <trkpt lat="49.18044" lon="2.01604">
        <ele>191.4</ele>
        <time>2017-04-02T12:06:57Z</time>
      </trkpt>
      <trkpt lat="49.18038" lon="2.01596">
        <ele>191.8</ele>
        <time>2017-04-02T12:07:04Z</time>
      </trkpt>
      <trkpt lat="49.18031" lon="2.0159">
        <ele>192.6</ele>
        <time>2017-04-02T12:07:11Z</time>
      </trkpt>
      <trkpt lat="49.18025" lon="2.01586">
        <ele>190.9</ele>
        <time>2017-04-02T12:07:18Z</time>
      </trkpt>
      <trkpt lat="49.18018" lon="2.0158">
        <ele>191.1</ele>
        <time>2017-04-02T12:07:25Z</time>
      </trkpt>
      <trkpt lat="49.18012" lon="2.01573">
        <ele>192.2</ele>
        <time>2017-04-02T12:07:30Z</time>
      </trkpt>
      <trkpt lat="49.18004" lon="2.01568">
        <ele>193.1</ele>
        <time>2017-04-02T12:07:36Z</time>
      </trkpt>
      <trkpt lat="49.17996" lon="2.01564">
        <ele>194.2</ele>
        <time>2017-04-02T12:07:43Z</time>
      </trkpt>
      <trkpt lat="49.17989" lon="2.01562">
        <ele>193.7</ele>
        <time>2017-04-02T12:07:49Z</time>
      </trkpt>
      <trkpt lat="49.1798" lon="2.01561">
        <ele>193.4</ele>
        <time>2017-04-02T12:07:56Z</time>
      </trkpt>
      <trkpt lat="49.17974" lon="2.01555">
        <ele>194.6</ele>
        <time>2017-04-02T12:08:02Z</time>
      </trkpt>
      <trkpt lat="49.17967" lon="2.0155">
        <ele>195.4</ele>
        <time>2017-04-02T12:08:08Z</time>
      </trkpt>
      <trkpt lat="49.17959" lon="2.01545">
        <ele>196.4</ele>
        <time>2017-04-02T12:08:15Z</time>
      </trkpt>
      <trkpt lat="49.17952" lon="2.0154">
        <ele>196.2</ele>
        <time>2017-04-02T12:08:20Z</time>
      </trkpt>
      <trkpt lat="49.17945" lon="2.01535">
        <ele>196.8</ele>
        <time>2017-04-02T12:08:25Z</time>
      </trkpt>
      <trkpt lat="49.17939" lon="2.01528">
        <ele>198.4</ele>
        <time>2017-04-02T12:08:30Z</time>
      </trkpt>
      <trkpt lat="49.17934" lon="2.01518">
        <ele>198.1</ele>
        <time>2017-04-02T12:08:37Z</time>
      </trkpt>
      <trkpt lat="49.17929" lon="2.01509">
        <ele>196.1</ele>
        <time>2017-04-02T12:08:44Z</time>
      </trkpt>
      <trkpt lat="49.17927" lon="2.01497">
        <ele>195.9</ele>
        <time>2017-04-02T12:08:50Z</time>
      </trkpt>
      <trkpt lat="49.17923" lon="2.01487">
        <ele>194.7</ele>
        <time>2017-04-02T12:08:57Z</time>
      </trkpt>
      <trkpt lat="49.1792" lon="2.0148">
        <ele>193.6</ele>
        <time>2017-04-02T12:09:04Z</time>
      </trkpt>
      <trkpt lat="49.17916" lon="2.01473">
        <ele>191.7</ele>
        <time>2017-04-02T12:09:11Z</time>
      </trkpt>
      <trkpt lat="49.1791" lon="2.01466">
        <ele>191.6</ele>
        <time>2017-04-02T12:09:18Z</time>
      </trkpt>
      <trkpt lat="49.17904" lon="2.01464">
        <ele>194.1</ele>
        <time>2017-04-02T12:09:25Z</time>
      </trkpt>
      <trkpt lat="49.17898" lon="2.01467">
        <ele>197.1</ele>
        <time>2017-04-02T12:09:32Z</time>
      </trkpt>
      <trkpt lat="49.17891" lon="2.01473">
        <ele>197.6</ele>
        <time>2017-04-02T12:09:39Z</time>
      </trkpt>
      <trkpt lat="49.17886" lon="2.01481">
        <ele>196.5</ele>
        <time>2017-04-02T12:09:45Z</time>
      </trkpt>
      <trkpt lat="49.1788" lon="2.0149">
        <ele>195.9</ele>
        <time>2017-04-02T12:09:52Z</time>
      </trkpt>
      <trkpt lat="49.17875" lon="2.01499">
        <ele>194.9</ele>
        <time>2017-04-02T12:09:58Z</time>
      </trkpt>
      <trkpt lat="49.1787" lon="2.01507">
        <ele>194.9</ele>
        <time>2017-04-02T12:10:05Z</time>
      </trkpt>
      <trkpt lat="49.17864" lon="2.01517">
        <ele>193.6</ele>
        <time>2017-04-02T12:10:12Z</time>
      </trkpt>
      <trkpt lat="49.17863" lon="2.01523">
        <ele>197.3</ele>
        <time>2017-04-02T12:10:19Z</time>
      </trkpt>
      <trkpt lat="49.17862" lon="2.01531">
        <ele>197.3</ele>
        <time>2017-04-02T12:10:41Z</time>
      </trkpt>
      <trkpt lat="49.17858" lon="2.01536">
        <ele>190.4</ele>
        <time>2017-04-02T12:11:50Z</time>
      </trkpt>
      <trkpt lat="49.17851" lon="2.01541">
        <ele>191</ele>
        <time>2017-04-02T12:14:59Z</time>
      </trkpt>
      <trkpt lat="49.1785" lon="2.01537">
        <ele>191</ele>
        <time>2017-04-02T12:15:15Z</time>
      </trkpt>
      <trkpt lat="49.17859" lon="2.0153">
        <ele>193.8</ele>
        <time>2017-04-02T12:20:42Z</time>
      </trkpt>
      <trkpt lat="49.17858" lon="2.0152">
        <ele>193.2</ele>
        <time>2017-04-02T12:20:49Z</time>
      </trkpt>
      <trkpt lat="49.17856" lon="2.01512">
        <ele>191.7</ele>
        <time>2017-04-02T12:20:56Z</time>
      </trkpt>
      <trkpt lat="49.17854" lon="2.01503">
        <ele>191.4</ele>
        <time>2017-04-02T12:21:03Z</time>
      </trkpt>
      <trkpt lat="49.17851" lon="2.01494">
        <ele>191.4</ele>
        <time>2017-04-02T12:21:10Z</time>
      </trkpt>
      <trkpt lat="49.17849" lon="2.01484">
        <ele>189.6</ele>
        <time>2017-04-02T12:21:17Z</time>
      </trkpt>
      <trkpt lat="49.17847" lon="2.01473">
        <ele>188.9</ele>
        <time>2017-04-02T12:21:24Z</time>
      </trkpt>
      <trkpt lat="49.17844" lon="2.01462">
        <ele>187.9</ele>
        <time>2017-04-02T12:21:31Z</time>
      </trkpt>
      <trkpt lat="49.17841" lon="2.0145">
        <ele>188.3</ele>
        <time>2017-04-02T12:21:38Z</time>
      </trkpt>
      <trkpt lat="49.17838" lon="2.01439">
        <ele>190.4</ele>
        <time>2017-04-02T12:21:45Z</time>
      </trkpt>
      <trkpt lat="49.17836" lon="2.0143">
        <ele>190.9</ele>
        <time>2017-04-02T12:21:52Z</time>
      </trkpt>
      <trkpt lat="49.17833" lon="2.01418">
        <ele>191.8</ele>
        <time>2017-04-02T12:21:59Z</time>
      </trkpt>
      <trkpt lat="49.17831" lon="2.01407">
        <ele>192.9</ele>
        <time>2017-04-02T12:22:06Z</time>
      </trkpt>
      <trkpt lat="49.17829" lon="2.01397">
        <ele>193</ele>
        <time>2017-04-02T12:22:13Z</time>
      </trkpt>
      <trkpt lat="49.17825" lon="2.01386">
        <ele>194.1</ele>
        <time>2017-04-02T12:22:20Z</time>
      </trkpt>
      <trkpt lat="49.17821" lon="2.01375">
        <ele>194.6</ele>
        <time>2017-04-02T12:22:27Z</time>
      </trkpt>
      <trkpt lat="49.17817" lon="2.01369">
        <ele>193.9</ele>
        <time>2017-04-02T12:22:34Z</time>
      </trkpt>
      <trkpt lat="49.17811" lon="2.0136">
        <ele>194.8</ele>
        <time>2017-04-02T12:22:41Z</time>
      </trkpt>
      <trkpt lat="49.17808" lon="2.01348">
        <ele>194.7</ele>
        <time>2017-04-02T12:22:48Z</time>
      </trkpt>
      <trkpt lat="49.17804" lon="2.01337">
        <ele>196.4</ele>
        <time>2017-04-02T12:22:55Z</time>
      </trkpt>
      <trkpt lat="49.17801" lon="2.01327">
        <ele>197</ele>
        <time>2017-04-02T12:23:02Z</time>
      </trkpt>
      <trkpt lat="49.17798" lon="2.01317">
        <ele>197.6</ele>
        <time>2017-04-02T12:23:08Z</time>
      </trkpt>
      <trkpt lat="49.17796" lon="2.01306">
        <ele>197.4</ele>
        <time>2017-04-02T12:23:15Z</time>
      </trkpt>
      <trkpt lat="49.17794" lon="2.01295">
        <ele>198.2</ele>
        <time>2017-04-02T12:23:22Z</time>
      </trkpt>
      <trkpt lat="49.17792" lon="2.01285">
        <ele>198.7</ele>
        <time>2017-04-02T12:23:29Z</time>
      </trkpt>
      <trkpt lat="49.1779" lon="2.01276">
        <ele>197.6</ele>
        <time>2017-04-02T12:23:36Z</time>
      </trkpt>
      <trkpt lat="49.17788" lon="2.01266">
        <ele>195.1</ele>
        <time>2017-04-02T12:23:43Z</time>
      </trkpt>
      <trkpt lat="49.17784" lon="2.01254">
        <ele>191.5</ele>
        <time>2017-04-02T12:23:50Z</time>
      </trkpt>
      <trkpt lat="49.17781" lon="2.01244">
        <ele>186.8</ele>
        <time>2017-04-02T12:23:57Z</time>
      </trkpt>
      <trkpt lat="49.17778" lon="2.01236">
        <ele>183.5</ele>
        <time>2017-04-02T12:24:04Z</time>
      </trkpt>
      <trkpt lat="49.17775" lon="2.01225">
        <ele>181.3</ele>
        <time>2017-04-02T12:24:11Z</time>
      </trkpt>
      <trkpt lat="49.17772" lon="2.01212">
        <ele>184.2</ele>
        <time>2017-04-02T12:24:16Z</time>
      </trkpt>
      <trkpt lat="49.17769" lon="2.01202">
        <ele>183.5</ele>
        <time>2017-04-02T12:24:23Z</time>
      </trkpt>
      <trkpt lat="49.17765" lon="2.01192">
        <ele>181.3</ele>
        <time>2017-04-02T12:24:30Z</time>
      </trkpt>
      <trkpt lat="49.17762" lon="2.0118">
        <ele>181.9</ele>
        <time>2017-04-02T12:24:36Z</time>
      </trkpt>
      <trkpt lat="49.17758" lon="2.0117">
        <ele>181.1</ele>
        <time>2017-04-02T12:24:42Z</time>
      </trkpt>
      <trkpt lat="49.17754" lon="2.0116">
        <ele>182</ele>
        <time>2017-04-02T12:24:49Z</time>
      </trkpt>
      <trkpt lat="49.17751" lon="2.01149">
        <ele>181.7</ele>
        <time>2017-04-02T12:24:55Z</time>
      </trkpt>
      <trkpt lat="49.17748" lon="2.01137">
        <ele>182.5</ele>
        <time>2017-04-02T12:25:01Z</time>
      </trkpt>
      <trkpt lat="49.17745" lon="2.01126">
        <ele>184.9</ele>
        <time>2017-04-02T12:25:08Z</time>
      </trkpt>
      <trkpt lat="49.17743" lon="2.01116">
        <ele>186.1</ele>
        <time>2017-04-02T12:25:14Z</time>
      </trkpt>
      <trkpt lat="49.1774" lon="2.01105">
        <ele>186.6</ele>
        <time>2017-04-02T12:25:18Z</time>
      </trkpt>
      <trkpt lat="49.17739" lon="2.01094">
        <ele>186.1</ele>
        <time>2017-04-02T12:25:24Z</time>
      </trkpt>
      <trkpt lat="49.17739" lon="2.01081">
        <ele>186.9</ele>
        <time>2017-04-02T12:25:30Z</time>
      </trkpt>
      <trkpt lat="49.17738" lon="2.0107">
        <ele>188.4</ele>
        <time>2017-04-02T12:25:36Z</time>
      </trkpt>
      <trkpt lat="49.1774" lon="2.01056">
        <ele>187.8</ele>
        <time>2017-04-02T12:25:42Z</time>
      </trkpt>
      <trkpt lat="49.17742" lon="2.01044">
        <ele>185.3</ele>
        <time>2017-04-02T12:25:47Z</time>
      </trkpt>
      <trkpt lat="49.17743" lon="2.01034">
        <ele>183</ele>
        <time>2017-04-02T12:25:54Z</time>
      </trkpt>
      <trkpt lat="49.17747" lon="2.01023">
        <ele>182.8</ele>
        <time>2017-04-02T12:26:01Z</time>
      </trkpt>
      <trkpt lat="49.17751" lon="2.01013">
        <ele>182.5</ele>
        <time>2017-04-02T12:26:07Z</time>
      </trkpt>
      <trkpt lat="49.17754" lon="2.01002">
        <ele>184.1</ele>
        <time>2017-04-02T12:26:13Z</time>
      </trkpt>
      <trkpt lat="49.17757" lon="2.0099">
        <ele>185.6</ele>
        <time>2017-04-02T12:26:19Z</time>
      </trkpt>
      <trkpt lat="49.17759" lon="2.00979">
        <ele>186.1</ele>
        <time>2017-04-02T12:26:26Z</time>
      </trkpt>
      <trkpt lat="49.17759" lon="2.00967">
        <ele>186.6</ele>
        <time>2017-04-02T12:26:33Z</time>
      </trkpt>
      <trkpt lat="49.17759" lon="2.00956">
        <ele>186.3</ele>
        <time>2017-04-02T12:26:39Z</time>
      </trkpt>
      <trkpt lat="49.17759" lon="2.00945">
        <ele>188.7</ele>
        <time>2017-04-02T12:26:45Z</time>
      </trkpt>
      <trkpt lat="49.17759" lon="2.00933">
        <ele>189.5</ele>
        <time>2017-04-02T12:26:51Z</time>
      </trkpt>
      <trkpt lat="49.17758" lon="2.00921">
        <ele>189.3</ele>
        <time>2017-04-02T12:26:58Z</time>
      </trkpt>
      <trkpt lat="49.17757" lon="2.00909">
        <ele>189</ele>
        <time>2017-04-02T12:27:04Z</time>
      </trkpt>
      <trkpt lat="49.17755" lon="2.00899">
        <ele>186.5</ele>
        <time>2017-04-02T12:27:10Z</time>
      </trkpt>
      <trkpt lat="49.17751" lon="2.00886">
        <ele>187</ele>
        <time>2017-04-02T12:27:16Z</time>
      </trkpt>
      <trkpt lat="49.17748" lon="2.00875">
        <ele>188.2</ele>
        <time>2017-04-02T12:27:22Z</time>
      </trkpt>
      <trkpt lat="49.17743" lon="2.00864">
        <ele>187.6</ele>
        <time>2017-04-02T12:27:29Z</time>
      </trkpt>
      <trkpt lat="49.17742" lon="2.00854">
        <ele>186.8</ele>
        <time>2017-04-02T12:27:36Z</time>
      </trkpt>
      <trkpt lat="49.17739" lon="2.00844">
        <ele>186.6</ele>
        <time>2017-04-02T12:27:42Z</time>
      </trkpt>
      <trkpt lat="49.17734" lon="2.00832">
        <ele>187</ele>
        <time>2017-04-02T12:27:48Z</time>
      </trkpt>
      <trkpt lat="49.17731" lon="2.00821">
        <ele>188.5</ele>
        <time>2017-04-02T12:27:52Z</time>
      </trkpt>
      <trkpt lat="49.17726" lon="2.00812">
        <ele>188.1</ele>
        <time>2017-04-02T12:27:59Z</time>
      </trkpt>
      <trkpt lat="49.17721" lon="2.00804">
        <ele>187.1</ele>
        <time>2017-04-02T12:28:06Z</time>
      </trkpt>
      <trkpt lat="49.17716" lon="2.00793">
        <ele>188.2</ele>
        <time>2017-04-02T12:28:11Z</time>
      </trkpt>
      <trkpt lat="49.17711" lon="2.00783">
        <ele>186.9</ele>
        <time>2017-04-02T12:28:16Z</time>
      </trkpt>
      <trkpt lat="49.17705" lon="2.00774">
        <ele>186.4</ele>
        <time>2017-04-02T12:28:21Z</time>
      </trkpt>
      <trkpt lat="49.17699" lon="2.00766">
        <ele>185</ele>
        <time>2017-04-02T12:28:28Z</time>
      </trkpt>
      <trkpt lat="49.17694" lon="2.0076">
        <ele>184</ele>
        <time>2017-04-02T12:28:35Z</time>
      </trkpt>
      <trkpt lat="49.17687" lon="2.00752">
        <ele>184.6</ele>
        <time>2017-04-02T12:28:41Z</time>
      </trkpt>
      <trkpt lat="49.17679" lon="2.00746">
        <ele>182.4</ele>
        <time>2017-04-02T12:28:46Z</time>
      </trkpt>
      <trkpt lat="49.17673" lon="2.00739">
        <ele>181.4</ele>
        <time>2017-04-02T12:28:53Z</time>
      </trkpt>
      <trkpt lat="49.17665" lon="2.00733">
        <ele>182.4</ele>
        <time>2017-04-02T12:28:58Z</time>
      </trkpt>
      <trkpt lat="49.17657" lon="2.00728">
        <ele>184.4</ele>
        <time>2017-04-02T12:29:04Z</time>
      </trkpt>
      <trkpt lat="49.1765" lon="2.00723">
        <ele>185.7</ele>
        <time>2017-04-02T12:29:09Z</time>
      </trkpt>
      <trkpt lat="49.17643" lon="2.00717">
        <ele>186.2</ele>
        <time>2017-04-02T12:29:13Z</time>
      </trkpt>
      <trkpt lat="49.17636" lon="2.00712">
        <ele>187.8</ele>
        <time>2017-04-02T12:29:18Z</time>
      </trkpt>
      <trkpt lat="49.17629" lon="2.00709">
        <ele>189.2</ele>
        <time>2017-04-02T12:29:23Z</time>
      </trkpt>
      <trkpt lat="49.17622" lon="2.00704">
        <ele>188.7</ele>
        <time>2017-04-02T12:29:29Z</time>
      </trkpt>
      <trkpt lat="49.17614" lon="2.00699">
        <ele>188.2</ele>
        <time>2017-04-02T12:29:35Z</time>
      </trkpt>
      <trkpt lat="49.17607" lon="2.00694">
        <ele>190.4</ele>
        <time>2017-04-02T12:29:41Z</time>
      </trkpt>
      <trkpt lat="49.17601" lon="2.00688">
        <ele>192.8</ele>
        <time>2017-04-02T12:29:48Z</time>
      </trkpt>
      <trkpt lat="49.17593" lon="2.00684">
        <ele>190</ele>
        <time>2017-04-02T12:29:54Z</time>
      </trkpt>
      <trkpt lat="49.17586" lon="2.00678">
        <ele>190.6</ele>
        <time>2017-04-02T12:30:00Z</time>
      </trkpt>
      <trkpt lat="49.17579" lon="2.00673">
        <ele>189</ele>
        <time>2017-04-02T12:30:06Z</time>
      </trkpt>
      <trkpt lat="49.17573" lon="2.00666">
        <ele>187.7</ele>
        <time>2017-04-02T12:30:11Z</time>
      </trkpt>
      <trkpt lat="49.17567" lon="2.0066">
        <ele>185.7</ele>
        <time>2017-04-02T12:30:16Z</time>
      </trkpt>
      <trkpt lat="49.1756" lon="2.00656">
        <ele>184.9</ele>
        <time>2017-04-02T12:30:22Z</time>
      </trkpt>
      <trkpt lat="49.17552" lon="2.00651">
        <ele>185</ele>
        <time>2017-04-02T12:30:28Z</time>
      </trkpt>
      <trkpt lat="49.17546" lon="2.00646">
        <ele>183.5</ele>
        <time>2017-04-02T12:30:35Z</time>
      </trkpt>
      <trkpt lat="49.17538" lon="2.00641">
        <ele>182.4</ele>
        <time>2017-04-02T12:30:42Z</time>
      </trkpt>
      <trkpt lat="49.17531" lon="2.00636">
        <ele>182</ele>
        <time>2017-04-02T12:30:48Z</time>
      </trkpt>
      <trkpt lat="49.17524" lon="2.0063">
        <ele>180.7</ele>
        <time>2017-04-02T12:30:54Z</time>
      </trkpt>
      <trkpt lat="49.17517" lon="2.00624">
        <ele>181.2</ele>
        <time>2017-04-02T12:31:00Z</time>
      </trkpt>
      <trkpt lat="49.1751" lon="2.00621">
        <ele>180.2</ele>
        <time>2017-04-02T12:31:05Z</time>
      </trkpt>
      <trkpt lat="49.17503" lon="2.00615">
        <ele>180</ele>
        <time>2017-04-02T12:31:11Z</time>
      </trkpt>
      <trkpt lat="49.17496" lon="2.00611">
        <ele>177.9</ele>
        <time>2017-04-02T12:31:16Z</time>
      </trkpt>
      <trkpt lat="49.17489" lon="2.00608">
        <ele>174.9</ele>
        <time>2017-04-02T12:31:21Z</time>
      </trkpt>
      <trkpt lat="49.17481" lon="2.006">
        <ele>175</ele>
        <time>2017-04-02T12:31:27Z</time>
      </trkpt>
      <trkpt lat="49.17474" lon="2.00596">
        <ele>174.8</ele>
        <time>2017-04-02T12:31:33Z</time>
      </trkpt>
      <trkpt lat="49.17466" lon="2.00591">
        <ele>173.5</ele>
        <time>2017-04-02T12:31:40Z</time>
      </trkpt>
      <trkpt lat="49.17458" lon="2.00588">
        <ele>175.2</ele>
        <time>2017-04-02T12:31:47Z</time>
      </trkpt>
      <trkpt lat="49.17451" lon="2.00584">
        <ele>176.9</ele>
        <time>2017-04-02T12:31:53Z</time>
      </trkpt>
      <trkpt lat="49.17443" lon="2.00583">
        <ele>177.2</ele>
        <time>2017-04-02T12:31:58Z</time>
      </trkpt>
      <trkpt lat="49.17436" lon="2.00583">
        <ele>179.2</ele>
        <time>2017-04-02T12:32:04Z</time>
      </trkpt>
      <trkpt lat="49.17428" lon="2.00585">
        <ele>180.8</ele>
        <time>2017-04-02T12:32:11Z</time>
      </trkpt>
      <trkpt lat="49.17422" lon="2.00588">
        <ele>180.2</ele>
        <time>2017-04-02T12:32:18Z</time>
      </trkpt>
      <trkpt lat="49.17414" lon="2.00591">
        <ele>181.2</ele>
        <time>2017-04-02T12:32:24Z</time>
      </trkpt>
      <trkpt lat="49.17406" lon="2.00593">
        <ele>183.4</ele>
        <time>2017-04-02T12:32:30Z</time>
      </trkpt>
      <trkpt lat="49.174" lon="2.00592">
        <ele>182.5</ele>
        <time>2017-04-02T12:32:37Z</time>
      </trkpt>
      <trkpt lat="49.17394" lon="2.00589">
        <ele>181.6</ele>
        <time>2017-04-02T12:32:44Z</time>
      </trkpt>
      <trkpt lat="49.17387" lon="2.00586">
        <ele>182.8</ele>
        <time>2017-04-02T12:32:51Z</time>
      </trkpt>
      <trkpt lat="49.17382" lon="2.00578">
        <ele>183.9</ele>
        <time>2017-04-02T12:32:58Z</time>
      </trkpt>
      <trkpt lat="49.17378" lon="2.00571">
        <ele>183</ele>
        <time>2017-04-02T12:33:05Z</time>
      </trkpt>
      <trkpt lat="49.17374" lon="2.00563">
        <ele>182.3</ele>
        <time>2017-04-02T12:33:12Z</time>
      </trkpt>
      <trkpt lat="49.17371" lon="2.00554">
        <ele>181.9</ele>
        <time>2017-04-02T12:33:18Z</time>
      </trkpt>
      <trkpt lat="49.17366" lon="2.00543">
        <ele>182</ele>
        <time>2017-04-02T12:33:23Z</time>
      </trkpt>
      <trkpt lat="49.1736" lon="2.00535">
        <ele>182.2</ele>
        <time>2017-04-02T12:33:30Z</time>
      </trkpt>
      <trkpt lat="49.17354" lon="2.00531">
        <ele>183</ele>
        <time>2017-04-02T12:33:37Z</time>
      </trkpt>
      <trkpt lat="49.17348" lon="2.00522">
        <ele>182.6</ele>
        <time>2017-04-02T12:33:43Z</time>
      </trkpt>
      <trkpt lat="49.17343" lon="2.00514">
        <ele>180</ele>
        <time>2017-04-02T12:33:48Z</time>
      </trkpt>
      <trkpt lat="49.17336" lon="2.00508">
        <ele>179</ele>
        <time>2017-04-02T12:33:54Z</time>
      </trkpt>
      <trkpt lat="49.17329" lon="2.00503">
        <ele>177.8</ele>
        <time>2017-04-02T12:33:59Z</time>
      </trkpt>
      <trkpt lat="49.17322" lon="2.00497">
        <ele>175.6</ele>
        <time>2017-04-02T12:34:05Z</time>
      </trkpt>
      <trkpt lat="49.17315" lon="2.00491">
        <ele>174.1</ele>
        <time>2017-04-02T12:34:11Z</time>
      </trkpt>
      <trkpt lat="49.1731" lon="2.00481">
        <ele>172.2</ele>
        <time>2017-04-02T12:34:17Z</time>
      </trkpt>
      <trkpt lat="49.17307" lon="2.00472">
        <ele>168.5</ele>
        <time>2017-04-02T12:34:24Z</time>
      </trkpt>
      <trkpt lat="49.17303" lon="2.00461">
        <ele>167.4</ele>
        <time>2017-04-02T12:34:29Z</time>
      </trkpt>
      <trkpt lat="49.173" lon="2.00451">
        <ele>166.7</ele>
        <time>2017-04-02T12:34:35Z</time>
      </trkpt>
      <trkpt lat="49.17298" lon="2.0044">
        <ele>165.5</ele>
        <time>2017-04-02T12:34:42Z</time>
      </trkpt>
      <trkpt lat="49.17296" lon="2.0043">
        <ele>163.1</ele>
        <time>2017-04-02T12:34:49Z</time>
      </trkpt>
      <trkpt lat="49.17296" lon="2.00419">
        <ele>162.9</ele>
        <time>2017-04-02T12:34:56Z</time>
      </trkpt>
      <trkpt lat="49.17295" lon="2.0041">
        <ele>160.6</ele>
        <time>2017-04-02T12:35:03Z</time>
      </trkpt>
      <trkpt lat="49.17292" lon="2.00398">
        <ele>161.2</ele>
        <time>2017-04-02T12:35:07Z</time>
      </trkpt>
      <trkpt lat="49.17289" lon="2.00387">
        <ele>163.3</ele>
        <time>2017-04-02T12:35:11Z</time>
      </trkpt>
      <trkpt lat="49.17288" lon="2.00376">
        <ele>161.5</ele>
        <time>2017-04-02T12:35:18Z</time>
      </trkpt>
      <trkpt lat="49.17287" lon="2.00362">
        <ele>161.6</ele>
        <time>2017-04-02T12:35:24Z</time>
      </trkpt>
      <trkpt lat="49.17285" lon="2.0035">
        <ele>164.2</ele>
        <time>2017-04-02T12:35:28Z</time>
      </trkpt>
      <trkpt lat="49.17282" lon="2.00338">
        <ele>165.1</ele>
        <time>2017-04-02T12:35:34Z</time>
      </trkpt>
      <trkpt lat="49.17282" lon="2.00327">
        <ele>165.9</ele>
        <time>2017-04-02T12:35:41Z</time>
      </trkpt>
      <trkpt lat="49.1728" lon="2.00316">
        <ele>164.9</ele>
        <time>2017-04-02T12:35:48Z</time>
      </trkpt>
      <trkpt lat="49.17277" lon="2.00305">
        <ele>163.8</ele>
        <time>2017-04-02T12:35:54Z</time>
      </trkpt>
      <trkpt lat="49.17274" lon="2.00296">
        <ele>160.6</ele>
        <time>2017-04-02T12:36:01Z</time>
      </trkpt>
      <trkpt lat="49.17272" lon="2.00286">
        <ele>157.6</ele>
        <time>2017-04-02T12:36:08Z</time>
      </trkpt>
      <trkpt lat="49.17268" lon="2.00275">
        <ele>157.8</ele>
        <time>2017-04-02T12:36:13Z</time>
      </trkpt>
      <trkpt lat="49.17264" lon="2.00264">
        <ele>157</ele>
        <time>2017-04-02T12:36:18Z</time>
      </trkpt>
      <trkpt lat="49.1726" lon="2.00253">
        <ele>157.7</ele>
        <time>2017-04-02T12:36:24Z</time>
      </trkpt>
      <trkpt lat="49.17255" lon="2.00245">
        <ele>155.7</ele>
        <time>2017-04-02T12:36:31Z</time>
      </trkpt>
      <trkpt lat="49.1725" lon="2.00236">
        <ele>155.8</ele>
        <time>2017-04-02T12:36:37Z</time>
      </trkpt>
      <trkpt lat="49.17246" lon="2.00226">
        <ele>157.9</ele>
        <time>2017-04-02T12:36:43Z</time>
      </trkpt>
      <trkpt lat="49.17241" lon="2.00218">
        <ele>156.9</ele>
        <time>2017-04-02T12:36:49Z</time>
      </trkpt>
      <trkpt lat="49.17234" lon="2.00213">
        <ele>156.7</ele>
        <time>2017-04-02T12:36:56Z</time>
      </trkpt>
      <trkpt lat="49.17228" lon="2.00206">
        <ele>158.7</ele>
        <time>2017-04-02T12:37:02Z</time>
      </trkpt>
      <trkpt lat="49.1722" lon="2.002">
        <ele>157.8</ele>
        <time>2017-04-02T12:37:09Z</time>
      </trkpt>
      <trkpt lat="49.17213" lon="2.00195">
        <ele>157.2</ele>
        <time>2017-04-02T12:37:14Z</time>
      </trkpt>
      <trkpt lat="49.17208" lon="2.0019">
        <ele>157.3</ele>
        <time>2017-04-02T12:37:21Z</time>
      </trkpt>
      <trkpt lat="49.17207" lon="2.00189">
        <ele>156.7</ele>
        <time>2017-04-02T12:37:28Z</time>
      </trkpt>
      <trkpt lat="49.17194" lon="2.00188">
        <ele>158.4</ele>
        <time>2017-04-02T12:40:42Z</time>
      </trkpt>
      <trkpt lat="49.17188" lon="2.00194">
        <ele>159.7</ele>
        <time>2017-04-02T12:40:49Z</time>
      </trkpt>
      <trkpt lat="49.17182" lon="2.00198">
        <ele>163</ele>
        <time>2017-04-02T12:40:56Z</time>
      </trkpt>
      <trkpt lat="49.17175" lon="2.00204">
        <ele>162.7</ele>
        <time>2017-04-02T12:41:02Z</time>
      </trkpt>
      <trkpt lat="49.17169" lon="2.00211">
        <ele>162.5</ele>
        <time>2017-04-02T12:41:09Z</time>
      </trkpt>
      <trkpt lat="49.17165" lon="2.00219">
        <ele>161.1</ele>
        <time>2017-04-02T12:41:16Z</time>
      </trkpt>
      <trkpt lat="49.17163" lon="2.00227">
        <ele>160.1</ele>
        <time>2017-04-02T12:41:23Z</time>
      </trkpt>
      <trkpt lat="49.17159" lon="2.00235">
        <ele>160</ele>
        <time>2017-04-02T12:41:30Z</time>
      </trkpt>
      <trkpt lat="49.17156" lon="2.00242">
        <ele>159.2</ele>
        <time>2017-04-02T12:41:37Z</time>
      </trkpt>
      <trkpt lat="49.17152" lon="2.00249">
        <ele>158.9</ele>
        <time>2017-04-02T12:41:44Z</time>
      </trkpt>
      <trkpt lat="49.17147" lon="2.00256">
        <ele>158.3</ele>
        <time>2017-04-02T12:41:51Z</time>
      </trkpt>
      <trkpt lat="49.17142" lon="2.00263">
        <ele>158.2</ele>
        <time>2017-04-02T12:41:58Z</time>
      </trkpt>
      <trkpt lat="49.17137" lon="2.0027">
        <ele>157.8</ele>
        <time>2017-04-02T12:42:05Z</time>
      </trkpt>
      <trkpt lat="49.17132" lon="2.00277">
        <ele>158</ele>
        <time>2017-04-02T12:42:12Z</time>
      </trkpt>
      <trkpt lat="49.17127" lon="2.00285">
        <ele>161</ele>
        <time>2017-04-02T12:42:19Z</time>
      </trkpt>
      <trkpt lat="49.1712" lon="2.00291">
        <ele>156.4</ele>
        <time>2017-04-02T12:42:24Z</time>
      </trkpt>
      <trkpt lat="49.17113" lon="2.00296">
        <ele>155</ele>
        <time>2017-04-02T12:42:29Z</time>
      </trkpt>
      <trkpt lat="49.17107" lon="2.00302">
        <ele>151.3</ele>
        <time>2017-04-02T12:42:36Z</time>
      </trkpt>
      <trkpt lat="49.17099" lon="2.00307">
        <ele>149.2</ele>
        <time>2017-04-02T12:42:42Z</time>
      </trkpt>
      <trkpt lat="49.17093" lon="2.00311">
        <ele>145.9</ele>
        <time>2017-04-02T12:42:49Z</time>
      </trkpt>
      <trkpt lat="49.1709" lon="2.00316">
        <ele>146.1</ele>
        <time>2017-04-02T12:42:56Z</time>
      </trkpt>
      <trkpt lat="49.17085" lon="2.00323">
        <ele>149.1</ele>
        <time>2017-04-02T12:43:03Z</time>
      </trkpt>
      <trkpt lat="49.17078" lon="2.0033">
        <ele>152.5</ele>
        <time>2017-04-02T12:43:10Z</time>
      </trkpt>
      <trkpt lat="49.17072" lon="2.00335">
        <ele>154.6</ele>
        <time>2017-04-02T12:43:17Z</time>
      </trkpt>
      <trkpt lat="49.17067" lon="2.00337">
        <ele>155.2</ele>
        <time>2017-04-02T12:43:24Z</time>
      </trkpt>
      <trkpt lat="49.1706" lon="2.00342">
        <ele>157</ele>
        <time>2017-04-02T12:43:29Z</time>
      </trkpt>
      <trkpt lat="49.17054" lon="2.00346">
        <ele>156.8</ele>
        <time>2017-04-02T12:43:36Z</time>
      </trkpt>
      <trkpt lat="49.17047" lon="2.0035">
        <ele>157.3</ele>
        <time>2017-04-02T12:43:42Z</time>
      </trkpt>
      <trkpt lat="49.17039" lon="2.00354">
        <ele>155.4</ele>
        <time>2017-04-02T12:43:49Z</time>
      </trkpt>
      <trkpt lat="49.17034" lon="2.00358">
        <ele>155.6</ele>
        <time>2017-04-02T12:43:56Z</time>
      </trkpt>
      <trkpt lat="49.17027" lon="2.00363">
        <ele>154.4</ele>
        <time>2017-04-02T12:44:03Z</time>
      </trkpt>
      <trkpt lat="49.17021" lon="2.00367">
        <ele>153</ele>
        <time>2017-04-02T12:44:10Z</time>
      </trkpt>
      <trkpt lat="49.17018" lon="2.00372">
        <ele>152.5</ele>
        <time>2017-04-02T12:44:17Z</time>
      </trkpt>
      <trkpt lat="49.17012" lon="2.00379">
        <ele>147.3</ele>
        <time>2017-04-02T12:44:22Z</time>
      </trkpt>
      <trkpt lat="49.17005" lon="2.00385">
        <ele>139.8</ele>
        <time>2017-04-02T12:44:27Z</time>
      </trkpt>
      <trkpt lat="49.16998" lon="2.00391">
        <ele>134.5</ele>
        <time>2017-04-02T12:44:32Z</time>
      </trkpt>
      <trkpt lat="49.16992" lon="2.00397">
        <ele>133.9</ele>
        <time>2017-04-02T12:44:37Z</time>
      </trkpt>
      <trkpt lat="49.16984" lon="2.00404">
        <ele>132.7</ele>
        <time>2017-04-02T12:44:42Z</time>
      </trkpt>
      <trkpt lat="49.16977" lon="2.0041">
        <ele>132</ele>
        <time>2017-04-02T12:44:47Z</time>
      </trkpt>
      <trkpt lat="49.16971" lon="2.00417">
        <ele>133.3</ele>
        <time>2017-04-02T12:44:52Z</time>
      </trkpt>
      <trkpt lat="49.16965" lon="2.00424">
        <ele>135.9</ele>
        <time>2017-04-02T12:44:58Z</time>
      </trkpt>
      <trkpt lat="49.16959" lon="2.0043">
        <ele>136.9</ele>
        <time>2017-04-02T12:45:04Z</time>
      </trkpt>
      <trkpt lat="49.16952" lon="2.00435">
        <ele>135.5</ele>
        <time>2017-04-02T12:45:08Z</time>
      </trkpt>
      <trkpt lat="49.16946" lon="2.00441">
        <ele>135.3</ele>
        <time>2017-04-02T12:45:14Z</time>
      </trkpt>
      <trkpt lat="49.1694" lon="2.00446">
        <ele>134.6</ele>
        <time>2017-04-02T12:45:21Z</time>
      </trkpt>
      <trkpt lat="49.16933" lon="2.00451">
        <ele>132.2</ele>
        <time>2017-04-02T12:45:28Z</time>
      </trkpt>
      <trkpt lat="49.16926" lon="2.00455">
        <ele>129.2</ele>
        <time>2017-04-02T12:45:35Z</time>
      </trkpt>
      <trkpt lat="49.1692" lon="2.00457">
        <ele>129.5</ele>
        <time>2017-04-02T12:45:42Z</time>
      </trkpt>
      <trkpt lat="49.16913" lon="2.00461">
        <ele>128.4</ele>
        <time>2017-04-02T12:45:49Z</time>
      </trkpt>
      <trkpt lat="49.16906" lon="2.00467">
        <ele>126.6</ele>
        <time>2017-04-02T12:45:56Z</time>
      </trkpt>
      <trkpt lat="49.16899" lon="2.00472">
        <ele>123.8</ele>
        <time>2017-04-02T12:46:03Z</time>
      </trkpt>
      <trkpt lat="49.16891" lon="2.00474">
        <ele>120.3</ele>
        <time>2017-04-02T12:46:08Z</time>
      </trkpt>
      <trkpt lat="49.16884" lon="2.00478">
        <ele>114.3</ele>
        <time>2017-04-02T12:46:13Z</time>
      </trkpt>
      <trkpt lat="49.16877" lon="2.00482">
        <ele>113.6</ele>
        <time>2017-04-02T12:46:20Z</time>
      </trkpt>
      <trkpt lat="49.1687" lon="2.00487">
        <ele>110.8</ele>
        <time>2017-04-02T12:46:27Z</time>
      </trkpt>
      <trkpt lat="49.16863" lon="2.00492">
        <ele>108.5</ele>
        <time>2017-04-02T12:46:33Z</time>
      </trkpt>
      <trkpt lat="49.16857" lon="2.00496">
        <ele>107.4</ele>
        <time>2017-04-02T12:46:40Z</time>
      </trkpt>
      <trkpt lat="49.16849" lon="2.00502">
        <ele>105.6</ele>
        <time>2017-04-02T12:46:46Z</time>
      </trkpt>
      <trkpt lat="49.16843" lon="2.00507">
        <ele>106.1</ele>
        <time>2017-04-02T12:46:53Z</time>
      </trkpt>
      <trkpt lat="49.16839" lon="2.00511">
        <ele>106.4</ele>
        <time>2017-04-02T12:47:00Z</time>
      </trkpt>
      <trkpt lat="49.16832" lon="2.00515">
        <ele>108.1</ele>
        <time>2017-04-02T12:47:05Z</time>
      </trkpt>
      <trkpt lat="49.16826" lon="2.00522">
        <ele>110.9</ele>
        <time>2017-04-02T12:47:11Z</time>
      </trkpt>
      <trkpt lat="49.16819" lon="2.00529">
        <ele>112</ele>
        <time>2017-04-02T12:47:15Z</time>
      </trkpt>
      <trkpt lat="49.16812" lon="2.00538">
        <ele>112.4</ele>
        <time>2017-04-02T12:47:19Z</time>
      </trkpt>
      <trkpt lat="49.16806" lon="2.00543">
        <ele>114.6</ele>
        <time>2017-04-02T12:47:25Z</time>
      </trkpt>
      <trkpt lat="49.16799" lon="2.00549">
        <ele>112.5</ele>
        <time>2017-04-02T12:47:32Z</time>
      </trkpt>
      <trkpt lat="49.16793" lon="2.00551">
        <ele>112</ele>
        <time>2017-04-02T12:47:39Z</time>
      </trkpt>
      <trkpt lat="49.16787" lon="2.00554">
        <ele>111.8</ele>
        <time>2017-04-02T12:47:46Z</time>
      </trkpt>
      <trkpt lat="49.16779" lon="2.00557">
        <ele>110.5</ele>
        <time>2017-04-02T12:47:53Z</time>
      </trkpt>
      <trkpt lat="49.16772" lon="2.00562">
        <ele>107.5</ele>
        <time>2017-04-02T12:48:00Z</time>
      </trkpt>
      <trkpt lat="49.16763" lon="2.00566">
        <ele>103.9</ele>
        <time>2017-04-02T12:48:07Z</time>
      </trkpt>
      <trkpt lat="49.16756" lon="2.0057">
        <ele>101.6</ele>
        <time>2017-04-02T12:48:13Z</time>
      </trkpt>
      <trkpt lat="49.16748" lon="2.00574">
        <ele>98.7</ele>
        <time>2017-04-02T12:48:20Z</time>
      </trkpt>
      <trkpt lat="49.1674" lon="2.00574">
        <ele>98.6</ele>
        <time>2017-04-02T12:48:26Z</time>
      </trkpt>
      <trkpt lat="49.16733" lon="2.00575">
        <ele>97.8</ele>
        <time>2017-04-02T12:48:32Z</time>
      </trkpt>
      <trkpt lat="49.16725" lon="2.0058">
        <ele>104.8</ele>
        <time>2017-04-02T12:48:38Z</time>
      </trkpt>
      <trkpt lat="49.16717" lon="2.00586">
        <ele>113.1</ele>
        <time>2017-04-02T12:48:43Z</time>
      </trkpt>
      <trkpt lat="49.16708" lon="2.00588">
        <ele>113.1</ele>
        <time>2017-04-02T12:48:48Z</time>
      </trkpt>
      <trkpt lat="49.167" lon="2.00586">
        <ele>111.6</ele>
        <time>2017-04-02T12:48:54Z</time>
      </trkpt>
      <trkpt lat="49.16693" lon="2.00585">
        <ele>109.1</ele>
        <time>2017-04-02T12:48:59Z</time>
      </trkpt>
      <trkpt lat="49.16685" lon="2.00583">
        <ele>108.5</ele>
        <time>2017-04-02T12:49:06Z</time>
      </trkpt>
      <trkpt lat="49.16677" lon="2.00579">
        <ele>108.8</ele>
        <time>2017-04-02T12:49:12Z</time>
      </trkpt>
      <trkpt lat="49.16669" lon="2.00576">
        <ele>108.9</ele>
        <time>2017-04-02T12:49:19Z</time>
      </trkpt>
      <trkpt lat="49.16661" lon="2.00576">
        <ele>111.3</ele>
        <time>2017-04-02T12:49:26Z</time>
      </trkpt>
      <trkpt lat="49.16653" lon="2.00576">
        <ele>114.1</ele>
        <time>2017-04-02T12:49:33Z</time>
      </trkpt>
      <trkpt lat="49.16646" lon="2.00575">
        <ele>115.3</ele>
        <time>2017-04-02T12:49:39Z</time>
      </trkpt>
      <trkpt lat="49.16638" lon="2.00575">
        <ele>116.4</ele>
        <time>2017-04-02T12:49:46Z</time>
      </trkpt>
      <trkpt lat="49.1663" lon="2.0057">
        <ele>115.3</ele>
        <time>2017-04-02T12:49:52Z</time>
      </trkpt>
      <trkpt lat="49.16622" lon="2.00565">
        <ele>114.7</ele>
        <time>2017-04-02T12:49:58Z</time>
      </trkpt>
      <trkpt lat="49.16615" lon="2.00561">
        <ele>115.2</ele>
        <time>2017-04-02T12:50:04Z</time>
      </trkpt>
      <trkpt lat="49.16607" lon="2.00558">
        <ele>115.1</ele>
        <time>2017-04-02T12:50:11Z</time>
      </trkpt>
      <trkpt lat="49.166" lon="2.00554">
        <ele>115.3</ele>
        <time>2017-04-02T12:50:16Z</time>
      </trkpt>
      <trkpt lat="49.16592" lon="2.0055">
        <ele>117</ele>
        <time>2017-04-02T12:50:22Z</time>
      </trkpt>
      <trkpt lat="49.16585" lon="2.00547">
        <ele>117.3</ele>
        <time>2017-04-02T12:50:29Z</time>
      </trkpt>
      <trkpt lat="49.16577" lon="2.00543">
        <ele>117.7</ele>
        <time>2017-04-02T12:50:36Z</time>
      </trkpt>
      <trkpt lat="49.1657" lon="2.00541">
        <ele>117.1</ele>
        <time>2017-04-02T12:50:43Z</time>
      </trkpt>
      <trkpt lat="49.16562" lon="2.00541">
        <ele>116.4</ele>
        <time>2017-04-02T12:50:50Z</time>
      </trkpt>
      <trkpt lat="49.16555" lon="2.00541">
        <ele>116</ele>
        <time>2017-04-02T12:50:55Z</time>
      </trkpt>
      <trkpt lat="49.16548" lon="2.00544">
        <ele>116.6</ele>
        <time>2017-04-02T12:51:01Z</time>
      </trkpt>
      <trkpt lat="49.16539" lon="2.00547">
        <ele>118.4</ele>
        <time>2017-04-02T12:51:07Z</time>
      </trkpt>
      <trkpt lat="49.16531" lon="2.00549">
        <ele>119</ele>
        <time>2017-04-02T12:51:13Z</time>
      </trkpt>
      <trkpt lat="49.16524" lon="2.00551">
        <ele>118.2</ele>
        <time>2017-04-02T12:51:19Z</time>
      </trkpt>
      <trkpt lat="49.16516" lon="2.00552">
        <ele>117.8</ele>
        <time>2017-04-02T12:51:26Z</time>
      </trkpt>
      <trkpt lat="49.16509" lon="2.00553">
        <ele>118.7</ele>
        <time>2017-04-02T12:51:32Z</time>
      </trkpt>
      <trkpt lat="49.16501" lon="2.00556">
        <ele>118.9</ele>
        <time>2017-04-02T12:51:39Z</time>
      </trkpt>
      <trkpt lat="49.16494" lon="2.00559">
        <ele>118.7</ele>
        <time>2017-04-02T12:51:45Z</time>
      </trkpt>
      <trkpt lat="49.16487" lon="2.00559">
        <ele>116.3</ele>
        <time>2017-04-02T12:51:51Z</time>
      </trkpt>
      <trkpt lat="49.1648" lon="2.00565">
        <ele>117.6</ele>
        <time>2017-04-02T12:51:57Z</time>
      </trkpt>
      <trkpt lat="49.16475" lon="2.00574">
        <ele>118.7</ele>
        <time>2017-04-02T12:52:03Z</time>
      </trkpt>
      <trkpt lat="49.16472" lon="2.00585">
        <ele>119.3</ele>
        <time>2017-04-02T12:52:10Z</time>
      </trkpt>
      <trkpt lat="49.16467" lon="2.00596">
        <ele>121.1</ele>
        <time>2017-04-02T12:52:17Z</time>
      </trkpt>
      <trkpt lat="49.16463" lon="2.00605">
        <ele>120.6</ele>
        <time>2017-04-02T12:52:23Z</time>
      </trkpt>
      <trkpt lat="49.16459" lon="2.00616">
        <ele>122.2</ele>
        <time>2017-04-02T12:52:30Z</time>
      </trkpt>
      <trkpt lat="49.16456" lon="2.00626">
        <ele>124.5</ele>
        <time>2017-04-02T12:52:36Z</time>
      </trkpt>
      <trkpt lat="49.16454" lon="2.00637">
        <ele>126.4</ele>
        <time>2017-04-02T12:52:43Z</time>
      </trkpt>
      <trkpt lat="49.1645" lon="2.00647">
        <ele>127.3</ele>
        <time>2017-04-02T12:52:50Z</time>
      </trkpt>
      <trkpt lat="49.16446" lon="2.00656">
        <ele>128</ele>
        <time>2017-04-02T12:52:55Z</time>
      </trkpt>
      <trkpt lat="49.16442" lon="2.00665">
        <ele>128.6</ele>
        <time>2017-04-02T12:53:01Z</time>
      </trkpt>
      <trkpt lat="49.16438" lon="2.00675">
        <ele>128.6</ele>
        <time>2017-04-02T12:53:07Z</time>
      </trkpt>
      <trkpt lat="49.16433" lon="2.00684">
        <ele>127.4</ele>
        <time>2017-04-02T12:53:13Z</time>
      </trkpt>
      <trkpt lat="49.16429" lon="2.00694">
        <ele>128.1</ele>
        <time>2017-04-02T12:53:20Z</time>
      </trkpt>
      <trkpt lat="49.16424" lon="2.00704">
        <ele>128.2</ele>
        <time>2017-04-02T12:53:26Z</time>
      </trkpt>
      <trkpt lat="49.16418" lon="2.00713">
        <ele>129.2</ele>
        <time>2017-04-02T12:53:32Z</time>
      </trkpt>
      <trkpt lat="49.16414" lon="2.00724">
        <ele>131.3</ele>
        <time>2017-04-02T12:53:39Z</time>
      </trkpt>
      <trkpt lat="49.16408" lon="2.00733">
        <ele>130.8</ele>
        <time>2017-04-02T12:53:45Z</time>
      </trkpt>
      <trkpt lat="49.16404" lon="2.00742">
        <ele>130.7</ele>
        <time>2017-04-02T12:53:51Z</time>
      </trkpt>
      <trkpt lat="49.16399" lon="2.00751">
        <ele>130.7</ele>
        <time>2017-04-02T12:53:57Z</time>
      </trkpt>
      <trkpt lat="49.16394" lon="2.00759">
        <ele>130.4</ele>
        <time>2017-04-02T12:54:03Z</time>
      </trkpt>
      <trkpt lat="49.16389" lon="2.00768">
        <ele>130.9</ele>
        <time>2017-04-02T12:54:09Z</time>
      </trkpt>
      <trkpt lat="49.16384" lon="2.00777">
        <ele>131.3</ele>
        <time>2017-04-02T12:54:15Z</time>
      </trkpt>
      <trkpt lat="49.16379" lon="2.00786">
        <ele>132.8</ele>
        <time>2017-04-02T12:54:22Z</time>
      </trkpt>
      <trkpt lat="49.16373" lon="2.00796">
        <ele>133.4</ele>
        <time>2017-04-02T12:54:29Z</time>
      </trkpt>
      <trkpt lat="49.16368" lon="2.00804">
        <ele>132.7</ele>
        <time>2017-04-02T12:54:35Z</time>
      </trkpt>
      <trkpt lat="49.16364" lon="2.00813">
        <ele>132.6</ele>
        <time>2017-04-02T12:54:42Z</time>
      </trkpt>
      <trkpt lat="49.16358" lon="2.0082">
        <ele>129.9</ele>
        <time>2017-04-02T12:54:58Z</time>
      </trkpt>
      <trkpt lat="49.16353" lon="2.00829">
        <ele>130.7</ele>
        <time>2017-04-02T12:55:04Z</time>
      </trkpt>
      <trkpt lat="49.16352" lon="2.00831">
        <ele>131.1</ele>
        <time>2017-04-02T12:55:11Z</time>
      </trkpt>
      <trkpt lat="49.16347" lon="2.0084">
        <ele>130.5</ele>
        <time>2017-04-02T12:55:16Z</time>
      </trkpt>
      <trkpt lat="49.16341" lon="2.00848">
        <ele>127.9</ele>
        <time>2017-04-02T12:55:21Z</time>
      </trkpt>
      <trkpt lat="49.16335" lon="2.00856">
        <ele>127.1</ele>
        <time>2017-04-02T12:55:27Z</time>
      </trkpt>
      <trkpt lat="49.16331" lon="2.00866">
        <ele>126.9</ele>
        <time>2017-04-02T12:55:33Z</time>
      </trkpt>
      <trkpt lat="49.16325" lon="2.00875">
        <ele>125.5</ele>
        <time>2017-04-02T12:55:39Z</time>
      </trkpt>
      <trkpt lat="49.16321" lon="2.00884">
        <ele>125.1</ele>
        <time>2017-04-02T12:55:45Z</time>
      </trkpt>
      <trkpt lat="49.16315" lon="2.00893">
        <ele>125.4</ele>
        <time>2017-04-02T12:55:51Z</time>
      </trkpt>
      <trkpt lat="49.16309" lon="2.00902">
        <ele>125.6</ele>
        <time>2017-04-02T12:55:58Z</time>
      </trkpt>
      <trkpt lat="49.16304" lon="2.00911">
        <ele>126.2</ele>
        <time>2017-04-02T12:56:05Z</time>
      </trkpt>
      <trkpt lat="49.163" lon="2.0092">
        <ele>126.5</ele>
        <time>2017-04-02T12:56:11Z</time>
      </trkpt>
      <trkpt lat="49.16295" lon="2.00928">
        <ele>126.9</ele>
        <time>2017-04-02T12:56:17Z</time>
      </trkpt>
      <trkpt lat="49.1629" lon="2.00937">
        <ele>126.6</ele>
        <time>2017-04-02T12:56:23Z</time>
      </trkpt>
      <trkpt lat="49.16285" lon="2.00945">
        <ele>126.6</ele>
        <time>2017-04-02T12:56:28Z</time>
      </trkpt>
      <trkpt lat="49.1628" lon="2.00952">
        <ele>125.8</ele>
        <time>2017-04-02T12:56:35Z</time>
      </trkpt>
      <trkpt lat="49.16273" lon="2.00959">
        <ele>126.8</ele>
        <time>2017-04-02T12:56:41Z</time>
      </trkpt>
      <trkpt lat="49.16267" lon="2.00967">
        <ele>126.8</ele>
        <time>2017-04-02T12:56:47Z</time>
      </trkpt>
      <trkpt lat="49.16261" lon="2.00975">
        <ele>126.5</ele>
        <time>2017-04-02T12:56:54Z</time>
      </trkpt>
      <trkpt lat="49.16255" lon="2.00981">
        <ele>126.7</ele>
        <time>2017-04-02T12:57:00Z</time>
      </trkpt>
      <trkpt lat="49.16249" lon="2.00988">
        <ele>125.8</ele>
        <time>2017-04-02T12:57:06Z</time>
      </trkpt>
      <trkpt lat="49.16242" lon="2.00994">
        <ele>125.7</ele>
        <time>2017-04-02T12:57:12Z</time>
      </trkpt>
      <trkpt lat="49.16235" lon="2.00998">
        <ele>125.2</ele>
        <time>2017-04-02T12:57:18Z</time>
      </trkpt>
      <trkpt lat="49.16228" lon="2.01004">
        <ele>124.1</ele>
        <time>2017-04-02T12:57:23Z</time>
      </trkpt>
      <trkpt lat="49.16221" lon="2.0101">
        <ele>123.1</ele>
        <time>2017-04-02T12:57:29Z</time>
      </trkpt>
      <trkpt lat="49.16214" lon="2.01017">
        <ele>121.9</ele>
        <time>2017-04-02T12:57:35Z</time>
      </trkpt>
      <trkpt lat="49.16207" lon="2.01022">
        <ele>121.2</ele>
        <time>2017-04-02T12:57:41Z</time>
      </trkpt>
      <trkpt lat="49.16201" lon="2.01026">
        <ele>120.4</ele>
        <time>2017-04-02T12:57:47Z</time>
      </trkpt>
      <trkpt lat="49.16194" lon="2.01033">
        <ele>120.2</ele>
        <time>2017-04-02T12:57:53Z</time>
      </trkpt>
      <trkpt lat="49.16188" lon="2.01039">
        <ele>118.7</ele>
        <time>2017-04-02T12:57:59Z</time>
      </trkpt>
      <trkpt lat="49.16182" lon="2.01046">
        <ele>117.6</ele>
        <time>2017-04-02T12:58:05Z</time>
      </trkpt>
      <trkpt lat="49.16175" lon="2.01052">
        <ele>116.6</ele>
        <time>2017-04-02T12:58:11Z</time>
      </trkpt>
      <trkpt lat="49.16169" lon="2.01058">
        <ele>114.8</ele>
        <time>2017-04-02T12:58:17Z</time>
      </trkpt>
      <trkpt lat="49.16163" lon="2.01066">
        <ele>113.2</ele>
        <time>2017-04-02T12:58:24Z</time>
      </trkpt>
      <trkpt lat="49.16156" lon="2.01071">
        <ele>111.9</ele>
        <time>2017-04-02T12:58:30Z</time>
      </trkpt>
      <trkpt lat="49.1615" lon="2.01079">
        <ele>109.3</ele>
        <time>2017-04-02T12:58:36Z</time>
      </trkpt>
      <trkpt lat="49.16143" lon="2.01087">
        <ele>109.8</ele>
        <time>2017-04-02T12:58:42Z</time>
      </trkpt>
      <trkpt lat="49.16137" lon="2.01094">
        <ele>111.4</ele>
        <time>2017-04-02T12:58:49Z</time>
      </trkpt>
      <trkpt lat="49.1613" lon="2.01101">
        <ele>113.7</ele>
        <time>2017-04-02T12:58:55Z</time>
      </trkpt>
      <trkpt lat="49.16124" lon="2.01106">
        <ele>114.8</ele>
        <time>2017-04-02T12:59:00Z</time>
      </trkpt>
      <trkpt lat="49.16118" lon="2.01112">
        <ele>114.5</ele>
        <time>2017-04-02T12:59:05Z</time>
      </trkpt>
      <trkpt lat="49.16111" lon="2.0112">
        <ele>113.5</ele>
        <time>2017-04-02T12:59:12Z</time>
      </trkpt>
      <trkpt lat="49.16105" lon="2.01127">
        <ele>112</ele>
        <time>2017-04-02T12:59:18Z</time>
      </trkpt>
      <trkpt lat="49.161" lon="2.01136">
        <ele>112.1</ele>
        <time>2017-04-02T12:59:25Z</time>
      </trkpt>
      <trkpt lat="49.16096" lon="2.01145">
        <ele>110.6</ele>
        <time>2017-04-02T12:59:32Z</time>
      </trkpt>
      <trkpt lat="49.16091" lon="2.01152">
        <ele>110.9</ele>
        <time>2017-04-02T12:59:39Z</time>
      </trkpt>
      <trkpt lat="49.16089" lon="2.0116">
        <ele>107.7</ele>
        <time>2017-04-02T12:59:46Z</time>
      </trkpt>
      <trkpt lat="49.16085" lon="2.01169">
        <ele>106.9</ele>
        <time>2017-04-02T12:59:53Z</time>
      </trkpt>
      <trkpt lat="49.16081" lon="2.01177">
        <ele>108</ele>
        <time>2017-04-02T13:00:00Z</time>
      </trkpt>
      <trkpt lat="49.16076" lon="2.01186">
        <ele>109.2</ele>
        <time>2017-04-02T13:00:07Z</time>
      </trkpt>
      <trkpt lat="49.16071" lon="2.01194">
        <ele>110.9</ele>
        <time>2017-04-02T13:00:14Z</time>
      </trkpt>
      <trkpt lat="49.16067" lon="2.01204">
        <ele>111</ele>
        <time>2017-04-02T13:00:21Z</time>
      </trkpt>
      <trkpt lat="49.16065" lon="2.01215">
        <ele>110.4</ele>
        <time>2017-04-02T13:00:28Z</time>
      </trkpt>
      <trkpt lat="49.16061" lon="2.01226">
        <ele>108.5</ele>
        <time>2017-04-02T13:00:35Z</time>
      </trkpt>
      <trkpt lat="49.16057" lon="2.01234">
        <ele>107.5</ele>
        <time>2017-04-02T13:00:42Z</time>
      </trkpt>
      <trkpt lat="49.16053" lon="2.01246">
        <ele>108.1</ele>
        <time>2017-04-02T13:00:49Z</time>
      </trkpt>
      <trkpt lat="49.16049" lon="2.01256">
        <ele>110.2</ele>
        <time>2017-04-02T13:00:55Z</time>
      </trkpt>
      <trkpt lat="49.16046" lon="2.01268">
        <ele>113.9</ele>
        <time>2017-04-02T13:01:01Z</time>
      </trkpt>
      <trkpt lat="49.16045" lon="2.0128">
        <ele>112.9</ele>
        <time>2017-04-02T13:01:06Z</time>
      </trkpt>
      <trkpt lat="49.16042" lon="2.01292">
        <ele>113.8</ele>
        <time>2017-04-02T13:01:12Z</time>
      </trkpt>
      <trkpt lat="49.16038" lon="2.01303">
        <ele>115.2</ele>
        <time>2017-04-02T13:01:19Z</time>
      </trkpt>
      <trkpt lat="49.16032" lon="2.01312">
        <ele>116.7</ele>
        <time>2017-04-02T13:01:26Z</time>
      </trkpt>
      <trkpt lat="49.16027" lon="2.01321">
        <ele>115.8</ele>
        <time>2017-04-02T13:01:33Z</time>
      </trkpt>
      <trkpt lat="49.16021" lon="2.01329">
        <ele>117.3</ele>
        <time>2017-04-02T13:01:40Z</time>
      </trkpt>
      <trkpt lat="49.16015" lon="2.01335">
        <ele>117.4</ele>
        <time>2017-04-02T13:01:46Z</time>
      </trkpt>
      <trkpt lat="49.16008" lon="2.01341">
        <ele>118.4</ele>
        <time>2017-04-02T13:01:52Z</time>
      </trkpt>
      <trkpt lat="49.16002" lon="2.01348">
        <ele>118.3</ele>
        <time>2017-04-02T13:01:58Z</time>
      </trkpt>
      <trkpt lat="49.15996" lon="2.01353">
        <ele>118</ele>
        <time>2017-04-02T13:02:04Z</time>
      </trkpt>
      <trkpt lat="49.15989" lon="2.0136">
        <ele>118.8</ele>
        <time>2017-04-02T13:02:10Z</time>
      </trkpt>
      <trkpt lat="49.15982" lon="2.01365">
        <ele>118.8</ele>
        <time>2017-04-02T13:02:16Z</time>
      </trkpt>
      <trkpt lat="49.15976" lon="2.01372">
        <ele>117.6</ele>
        <time>2017-04-02T13:02:22Z</time>
      </trkpt>
      <trkpt lat="49.15969" lon="2.01378">
        <ele>117.1</ele>
        <time>2017-04-02T13:02:28Z</time>
      </trkpt>
      <trkpt lat="49.15962" lon="2.01383">
        <ele>118.2</ele>
        <time>2017-04-02T13:02:34Z</time>
      </trkpt>
      <trkpt lat="49.15956" lon="2.0139">
        <ele>117</ele>
        <time>2017-04-02T13:02:40Z</time>
      </trkpt>
      <trkpt lat="49.1595" lon="2.01396">
        <ele>115.6</ele>
        <time>2017-04-02T13:02:46Z</time>
      </trkpt>
      <trkpt lat="49.15943" lon="2.01402">
        <ele>115.4</ele>
        <time>2017-04-02T13:02:52Z</time>
      </trkpt>
      <trkpt lat="49.15936" lon="2.01409">
        <ele>114.6</ele>
        <time>2017-04-02T13:02:58Z</time>
      </trkpt>
      <trkpt lat="49.1593" lon="2.01415">
        <ele>114.3</ele>
        <time>2017-04-02T13:03:04Z</time>
      </trkpt>
      <trkpt lat="49.15923" lon="2.0142">
        <ele>114.6</ele>
        <time>2017-04-02T13:03:10Z</time>
      </trkpt>
      <trkpt lat="49.15916" lon="2.01427">
        <ele>114.5</ele>
        <time>2017-04-02T13:03:16Z</time>
      </trkpt>
      <trkpt lat="49.1591" lon="2.01433">
        <ele>114.6</ele>
        <time>2017-04-02T13:03:22Z</time>
      </trkpt>
      <trkpt lat="49.15903" lon="2.01439">
        <ele>114.5</ele>
        <time>2017-04-02T13:03:28Z</time>
      </trkpt>
      <trkpt lat="49.15897" lon="2.01445">
        <ele>114.4</ele>
        <time>2017-04-02T13:03:34Z</time>
      </trkpt>
      <trkpt lat="49.15891" lon="2.01453">
        <ele>113.1</ele>
        <time>2017-04-02T13:03:40Z</time>
      </trkpt>
      <trkpt lat="49.15884" lon="2.0146">
        <ele>112.3</ele>
        <time>2017-04-02T13:03:46Z</time>
      </trkpt>
      <trkpt lat="49.15878" lon="2.01466">
        <ele>111.8</ele>
        <time>2017-04-02T13:03:52Z</time>
      </trkpt>
      <trkpt lat="49.15871" lon="2.01472">
        <ele>111.3</ele>
        <time>2017-04-02T13:03:58Z</time>
      </trkpt>
      <trkpt lat="49.15865" lon="2.0148">
        <ele>112</ele>
        <time>2017-04-02T13:04:04Z</time>
      </trkpt>
      <trkpt lat="49.15858" lon="2.01486">
        <ele>111.9</ele>
        <time>2017-04-02T13:04:10Z</time>
      </trkpt>
      <trkpt lat="49.15853" lon="2.01492">
        <ele>112.2</ele>
        <time>2017-04-02T13:04:16Z</time>
      </trkpt>
      <trkpt lat="49.15846" lon="2.01499">
        <ele>112.8</ele>
        <time>2017-04-02T13:04:23Z</time>
      </trkpt>
      <trkpt lat="49.1584" lon="2.01505">
        <ele>111.8</ele>
        <time>2017-04-02T13:04:29Z</time>
      </trkpt>
      <trkpt lat="49.15834" lon="2.01512">
        <ele>112.1</ele>
        <time>2017-04-02T13:04:35Z</time>
      </trkpt>
      <trkpt lat="49.15828" lon="2.01519">
        <ele>112.1</ele>
        <time>2017-04-02T13:04:41Z</time>
      </trkpt>
      <trkpt lat="49.15822" lon="2.01526">
        <ele>113.8</ele>
        <time>2017-04-02T13:04:48Z</time>
      </trkpt>
      <trkpt lat="49.15816" lon="2.01533">
        <ele>114.8</ele>
        <time>2017-04-02T13:04:54Z</time>
      </trkpt>
      <trkpt lat="49.15811" lon="2.01542">
        <ele>115.4</ele>
        <time>2017-04-02T13:05:01Z</time>
      </trkpt>
      <trkpt lat="49.15807" lon="2.01552">
        <ele>114.7</ele>
        <time>2017-04-02T13:05:08Z</time>
      </trkpt>
      <trkpt lat="49.15802" lon="2.0156">
        <ele>116.3</ele>
        <time>2017-04-02T13:05:15Z</time>
      </trkpt>
      <trkpt lat="49.15796" lon="2.01567">
        <ele>117.5</ele>
        <time>2017-04-02T13:05:22Z</time>
      </trkpt>
      <trkpt lat="49.15789" lon="2.01574">
        <ele>118.4</ele>
        <time>2017-04-02T13:05:29Z</time>
      </trkpt>
      <trkpt lat="49.15783" lon="2.01581">
        <ele>119.6</ele>
        <time>2017-04-02T13:05:36Z</time>
      </trkpt>
      <trkpt lat="49.15776" lon="2.01587">
        <ele>118.7</ele>
        <time>2017-04-02T13:05:42Z</time>
      </trkpt>
      <trkpt lat="49.15769" lon="2.01594">
        <ele>118.8</ele>
        <time>2017-04-02T13:05:49Z</time>
      </trkpt>
      <trkpt lat="49.15762" lon="2.01601">
        <ele>118.5</ele>
        <time>2017-04-02T13:05:56Z</time>
      </trkpt>
      <trkpt lat="49.15756" lon="2.01608">
        <ele>118.9</ele>
        <time>2017-04-02T13:06:02Z</time>
      </trkpt>
      <trkpt lat="49.15749" lon="2.01616">
        <ele>118.1</ele>
        <time>2017-04-02T13:06:08Z</time>
      </trkpt>
      <trkpt lat="49.15742" lon="2.01622">
        <ele>117.1</ele>
        <time>2017-04-02T13:06:15Z</time>
      </trkpt>
      <trkpt lat="49.15735" lon="2.01627">
        <ele>115.9</ele>
        <time>2017-04-02T13:06:21Z</time>
      </trkpt>
      <trkpt lat="49.15727" lon="2.01632">
        <ele>116.9</ele>
        <time>2017-04-02T13:06:27Z</time>
      </trkpt>
      <trkpt lat="49.15719" lon="2.01635">
        <ele>118.4</ele>
        <time>2017-04-02T13:06:33Z</time>
      </trkpt>
      <trkpt lat="49.15712" lon="2.01641">
        <ele>117.9</ele>
        <time>2017-04-02T13:06:39Z</time>
      </trkpt>
      <trkpt lat="49.15705" lon="2.01646">
        <ele>118.4</ele>
        <time>2017-04-02T13:06:45Z</time>
      </trkpt>
      <trkpt lat="49.15697" lon="2.01652">
        <ele>118</ele>
        <time>2017-04-02T13:06:51Z</time>
      </trkpt>
      <trkpt lat="49.15691" lon="2.01657">
        <ele>117.7</ele>
        <time>2017-04-02T13:06:56Z</time>
      </trkpt>
      <trkpt lat="49.15685" lon="2.01664">
        <ele>116.4</ele>
        <time>2017-04-02T13:07:02Z</time>
      </trkpt>
      <trkpt lat="49.15678" lon="2.01671">
        <ele>117.4</ele>
        <time>2017-04-02T13:07:08Z</time>
      </trkpt>
      <trkpt lat="49.15672" lon="2.0168">
        <ele>117.7</ele>
        <time>2017-04-02T13:07:14Z</time>
      </trkpt>
      <trkpt lat="49.15666" lon="2.01687">
        <ele>118.5</ele>
        <time>2017-04-02T13:07:20Z</time>
      </trkpt>
      <trkpt lat="49.15661" lon="2.01696">
        <ele>118.3</ele>
        <time>2017-04-02T13:07:26Z</time>
      </trkpt>
      <trkpt lat="49.15656" lon="2.01705">
        <ele>117.3</ele>
        <time>2017-04-02T13:07:32Z</time>
      </trkpt>
      <trkpt lat="49.15651" lon="2.01714">
        <ele>116.8</ele>
        <time>2017-04-02T13:07:37Z</time>
      </trkpt>
      <trkpt lat="49.15644" lon="2.01722">
        <ele>116.7</ele>
        <time>2017-04-02T13:07:42Z</time>
      </trkpt>
      <trkpt lat="49.15638" lon="2.01731">
        <ele>116.9</ele>
        <time>2017-04-02T13:07:47Z</time>
      </trkpt>
      <trkpt lat="49.15633" lon="2.0174">
        <ele>117.3</ele>
        <time>2017-04-02T13:07:52Z</time>
      </trkpt>
      <trkpt lat="49.15628" lon="2.01749">
        <ele>117.8</ele>
        <time>2017-04-02T13:07:57Z</time>
      </trkpt>
      <trkpt lat="49.15623" lon="2.01759">
        <ele>118.7</ele>
        <time>2017-04-02T13:08:02Z</time>
      </trkpt>
      <trkpt lat="49.15621" lon="2.01762">
        <ele>117.5</ele>
        <time>2017-04-02T13:08:09Z</time>
      </trkpt>
      <trkpt lat="49.15619" lon="2.01767">
        <ele>117.9</ele>
        <time>2017-04-02T13:08:16Z</time>
      </trkpt>
      <trkpt lat="49.15613" lon="2.01776">
        <ele>118.2</ele>
        <time>2017-04-02T13:08:22Z</time>
      </trkpt>
      <trkpt lat="49.15608" lon="2.01784">
        <ele>118.7</ele>
        <time>2017-04-02T13:08:28Z</time>
      </trkpt>
      <trkpt lat="49.15603" lon="2.01793">
        <ele>119.3</ele>
        <time>2017-04-02T13:08:34Z</time>
      </trkpt>
      <trkpt lat="49.15597" lon="2.018">
        <ele>119</ele>
        <time>2017-04-02T13:08:40Z</time>
      </trkpt>
      <trkpt lat="49.15591" lon="2.01806">
        <ele>118.6</ele>
        <time>2017-04-02T13:08:46Z</time>
      </trkpt>
      <trkpt lat="49.15585" lon="2.01814">
        <ele>117.3</ele>
        <time>2017-04-02T13:08:52Z</time>
      </trkpt>
      <trkpt lat="49.1558" lon="2.01822">
        <ele>117.2</ele>
        <time>2017-04-02T13:08:58Z</time>
      </trkpt>
      <trkpt lat="49.15574" lon="2.0183">
        <ele>118.8</ele>
        <time>2017-04-02T13:09:05Z</time>
      </trkpt>
      <trkpt lat="49.15569" lon="2.01839">
        <ele>117.4</ele>
        <time>2017-04-02T13:09:11Z</time>
      </trkpt>
      <trkpt lat="49.15563" lon="2.01847">
        <ele>118.1</ele>
        <time>2017-04-02T13:09:17Z</time>
      </trkpt>
      <trkpt lat="49.15557" lon="2.01854">
        <ele>117.6</ele>
        <time>2017-04-02T13:09:23Z</time>
      </trkpt>
      <trkpt lat="49.15552" lon="2.01861">
        <ele>117.3</ele>
        <time>2017-04-02T13:09:29Z</time>
      </trkpt>
      <trkpt lat="49.15546" lon="2.0187">
        <ele>116.1</ele>
        <time>2017-04-02T13:09:35Z</time>
      </trkpt>
      <trkpt lat="49.15539" lon="2.01878">
        <ele>116.2</ele>
        <time>2017-04-02T13:09:41Z</time>
      </trkpt>
      <trkpt lat="49.15534" lon="2.01886">
        <ele>116.3</ele>
        <time>2017-04-02T13:09:47Z</time>
      </trkpt>
      <trkpt lat="49.15528" lon="2.01894">
        <ele>116.7</ele>
        <time>2017-04-02T13:09:53Z</time>
      </trkpt>
      <trkpt lat="49.15523" lon="2.01902">
        <ele>117.3</ele>
        <time>2017-04-02T13:09:59Z</time>
      </trkpt>
      <trkpt lat="49.15517" lon="2.0191">
        <ele>117.8</ele>
        <time>2017-04-02T13:10:05Z</time>
      </trkpt>
      <trkpt lat="49.15512" lon="2.01917">
        <ele>115.8</ele>
        <time>2017-04-02T13:10:12Z</time>
      </trkpt>
      <trkpt lat="49.15506" lon="2.01926">
        <ele>115.4</ele>
        <time>2017-04-02T13:10:18Z</time>
      </trkpt>
      <trkpt lat="49.155" lon="2.01935">
        <ele>114.3</ele>
        <time>2017-04-02T13:10:24Z</time>
      </trkpt>
      <trkpt lat="49.15495" lon="2.01943">
        <ele>113.8</ele>
        <time>2017-04-02T13:10:30Z</time>
      </trkpt>
      <trkpt lat="49.15489" lon="2.01951">
        <ele>114.1</ele>
        <time>2017-04-02T13:10:36Z</time>
      </trkpt>
      <trkpt lat="49.15483" lon="2.01959">
        <ele>113.9</ele>
        <time>2017-04-02T13:10:42Z</time>
      </trkpt>
      <trkpt lat="49.15477" lon="2.01967">
        <ele>112.3</ele>
        <time>2017-04-02T13:10:48Z</time>
      </trkpt>
      <trkpt lat="49.15472" lon="2.01976">
        <ele>110.7</ele>
        <time>2017-04-02T13:10:54Z</time>
      </trkpt>
      <trkpt lat="49.15467" lon="2.01984">
        <ele>111</ele>
        <time>2017-04-02T13:11:00Z</time>
      </trkpt>
      <trkpt lat="49.15461" lon="2.01993">
        <ele>111.5</ele>
        <time>2017-04-02T13:11:07Z</time>
      </trkpt>
      <trkpt lat="49.1546" lon="2.01994">
        <ele>112.1</ele>
        <time>2017-04-02T13:11:14Z</time>
      </trkpt>
      <trkpt lat="49.15454" lon="2.02005">
        <ele>111.6</ele>
        <time>2017-04-02T13:11:26Z</time>
      </trkpt>
      <trkpt lat="49.15449" lon="2.02012">
        <ele>112.5</ele>
        <time>2017-04-02T13:11:32Z</time>
      </trkpt>
      <trkpt lat="49.15443" lon="2.0202">
        <ele>111.8</ele>
        <time>2017-04-02T13:11:38Z</time>
      </trkpt>
      <trkpt lat="49.15437" lon="2.02029">
        <ele>112</ele>
        <time>2017-04-02T13:11:44Z</time>
      </trkpt>
      <trkpt lat="49.15431" lon="2.02038">
        <ele>113.3</ele>
        <time>2017-04-02T13:11:51Z</time>
      </trkpt>
      <trkpt lat="49.15426" lon="2.02046">
        <ele>113.8</ele>
        <time>2017-04-02T13:11:57Z</time>
      </trkpt>
      <trkpt lat="49.1542" lon="2.02055">
        <ele>113.5</ele>
        <time>2017-04-02T13:12:03Z</time>
      </trkpt>
      <trkpt lat="49.15415" lon="2.02064">
        <ele>115.4</ele>
        <time>2017-04-02T13:12:09Z</time>
      </trkpt>
      <trkpt lat="49.15409" lon="2.02073">
        <ele>116.1</ele>
        <time>2017-04-02T13:12:15Z</time>
      </trkpt>
      <trkpt lat="49.15405" lon="2.02079">
        <ele>115.7</ele>
        <time>2017-04-02T13:12:22Z</time>
      </trkpt>
      <trkpt lat="49.154" lon="2.02087">
        <ele>115.7</ele>
        <time>2017-04-02T13:12:28Z</time>
      </trkpt>
      <trkpt lat="49.15393" lon="2.02096">
        <ele>116.7</ele>
        <time>2017-04-02T13:12:34Z</time>
      </trkpt>
      <trkpt lat="49.15387" lon="2.02105">
        <ele>116.7</ele>
        <time>2017-04-02T13:12:40Z</time>
      </trkpt>
      <trkpt lat="49.15382" lon="2.02111">
        <ele>114.9</ele>
        <time>2017-04-02T13:12:47Z</time>
      </trkpt>
      <trkpt lat="49.15376" lon="2.02119">
        <ele>113.4</ele>
        <time>2017-04-02T13:12:53Z</time>
      </trkpt>
      <trkpt lat="49.15371" lon="2.02128">
        <ele>114.3</ele>
        <time>2017-04-02T13:12:59Z</time>
      </trkpt>
      <trkpt lat="49.15366" lon="2.02136">
        <ele>113.1</ele>
        <time>2017-04-02T13:13:06Z</time>
      </trkpt>
      <trkpt lat="49.1536" lon="2.02145">
        <ele>112.7</ele>
        <time>2017-04-02T13:13:12Z</time>
      </trkpt>
      <trkpt lat="49.15354" lon="2.02153">
        <ele>113.1</ele>
        <time>2017-04-02T13:13:18Z</time>
      </trkpt>
      <trkpt lat="49.15348" lon="2.0216">
        <ele>113.3</ele>
        <time>2017-04-02T13:13:24Z</time>
      </trkpt>
      <trkpt lat="49.15342" lon="2.02168">
        <ele>114</ele>
        <time>2017-04-02T13:13:30Z</time>
      </trkpt>
      <trkpt lat="49.15335" lon="2.02175">
        <ele>114.1</ele>
        <time>2017-04-02T13:13:36Z</time>
      </trkpt>
      <trkpt lat="49.15331" lon="2.02182">
        <ele>112.9</ele>
        <time>2017-04-02T13:13:43Z</time>
      </trkpt>
      <trkpt lat="49.15331" lon="2.02185">
        <ele>113.2</ele>
        <time>2017-04-02T13:13:59Z</time>
      </trkpt>
      <trkpt lat="49.15326" lon="2.02187">
        <ele>112.7</ele>
        <time>2017-04-02T13:13:42Z</time>
      </trkpt>
      <trkpt lat="49.15323" lon="2.02186">
        <ele>114</ele>
        <time>2017-04-02T13:14:54Z</time>
      </trkpt>
      <trkpt lat="49.15326" lon="2.02183">
        <ele>111</ele>
        <time>2017-04-02T13:15:11Z</time>
      </trkpt>
      <trkpt lat="49.15331" lon="2.02193">
        <ele>109.9</ele>
        <time>2017-04-02T13:17:00Z</time>
      </trkpt>
      <trkpt lat="49.15332" lon="2.02205">
        <ele>108.1</ele>
        <time>2017-04-02T13:17:07Z</time>
      </trkpt>
      <trkpt lat="49.15333" lon="2.02217">
        <ele>108.9</ele>
        <time>2017-04-02T13:17:13Z</time>
      </trkpt>
      <trkpt lat="49.15336" lon="2.02227">
        <ele>107.1</ele>
        <time>2017-04-02T13:17:19Z</time>
      </trkpt>
      <trkpt lat="49.15338" lon="2.0224">
        <ele>105.7</ele>
        <time>2017-04-02T13:17:26Z</time>
      </trkpt>
      <trkpt lat="49.15339" lon="2.02251">
        <ele>105.4</ele>
        <time>2017-04-02T13:17:32Z</time>
      </trkpt>
      <trkpt lat="49.15341" lon="2.02263">
        <ele>105.1</ele>
        <time>2017-04-02T13:17:38Z</time>
      </trkpt>
      <trkpt lat="49.15341" lon="2.02275">
        <ele>104.8</ele>
        <time>2017-04-02T13:17:44Z</time>
      </trkpt>
      <trkpt lat="49.15342" lon="2.02287">
        <ele>106.4</ele>
        <time>2017-04-02T13:17:50Z</time>
      </trkpt>
      <trkpt lat="49.15343" lon="2.02298">
        <ele>106.8</ele>
        <time>2017-04-02T13:17:56Z</time>
      </trkpt>
      <trkpt lat="49.15346" lon="2.0231">
        <ele>106.6</ele>
        <time>2017-04-02T13:18:02Z</time>
      </trkpt>
      <trkpt lat="49.15348" lon="2.02322">
        <ele>106.4</ele>
        <time>2017-04-02T13:18:08Z</time>
      </trkpt>
      <trkpt lat="49.15353" lon="2.02333">
        <ele>107.8</ele>
        <time>2017-04-02T13:18:15Z</time>
      </trkpt>
      <trkpt lat="49.15356" lon="2.02343">
        <ele>108.2</ele>
        <time>2017-04-02T13:18:22Z</time>
      </trkpt>
      <trkpt lat="49.1536" lon="2.02355">
        <ele>107.4</ele>
        <time>2017-04-02T13:18:29Z</time>
      </trkpt>
      <trkpt lat="49.15364" lon="2.02365">
        <ele>105.8</ele>
        <time>2017-04-02T13:18:35Z</time>
      </trkpt>
      <trkpt lat="49.15368" lon="2.02374">
        <ele>104.9</ele>
        <time>2017-04-02T13:18:40Z</time>
      </trkpt>
      <trkpt lat="49.15371" lon="2.02384">
        <ele>103.3</ele>
        <time>2017-04-02T13:18:46Z</time>
      </trkpt>
      <trkpt lat="49.15375" lon="2.02394">
        <ele>104.1</ele>
        <time>2017-04-02T13:18:52Z</time>
      </trkpt>
      <trkpt lat="49.15377" lon="2.02406">
        <ele>104</ele>
        <time>2017-04-02T13:18:58Z</time>
      </trkpt>
      <trkpt lat="49.15379" lon="2.02419">
        <ele>105.9</ele>
        <time>2017-04-02T13:19:04Z</time>
      </trkpt>
      <trkpt lat="49.15379" lon="2.0243">
        <ele>106</ele>
        <time>2017-04-02T13:19:10Z</time>
      </trkpt>
      <trkpt lat="49.15382" lon="2.02441">
        <ele>104.9</ele>
        <time>2017-04-02T13:19:16Z</time>
      </trkpt>
      <trkpt lat="49.15385" lon="2.02453">
        <ele>104.1</ele>
        <time>2017-04-02T13:19:22Z</time>
      </trkpt>
      <trkpt lat="49.15386" lon="2.02465">
        <ele>103.9</ele>
        <time>2017-04-02T13:19:27Z</time>
      </trkpt>
      <trkpt lat="49.15387" lon="2.02476">
        <ele>103.8</ele>
        <time>2017-04-02T13:19:33Z</time>
      </trkpt>
      <trkpt lat="49.15387" lon="2.02488">
        <ele>105</ele>
        <time>2017-04-02T13:19:39Z</time>
      </trkpt>
      <trkpt lat="49.15388" lon="2.02501">
        <ele>103.5</ele>
        <time>2017-04-02T13:19:45Z</time>
      </trkpt>
      <trkpt lat="49.1539" lon="2.02514">
        <ele>101.4</ele>
        <time>2017-04-02T13:19:51Z</time>
      </trkpt>
      <trkpt lat="49.1539" lon="2.02526">
        <ele>101.3</ele>
        <time>2017-04-02T13:19:57Z</time>
      </trkpt>
      <trkpt lat="49.1539" lon="2.02538">
        <ele>102.6</ele>
        <time>2017-04-02T13:20:03Z</time>
      </trkpt>
      <trkpt lat="49.15391" lon="2.0255">
        <ele>101.8</ele>
        <time>2017-04-02T13:20:09Z</time>
      </trkpt>
      <trkpt lat="49.15391" lon="2.02562">
        <ele>101.1</ele>
        <time>2017-04-02T13:20:15Z</time>
      </trkpt>
      <trkpt lat="49.15391" lon="2.02575">
        <ele>100.2</ele>
        <time>2017-04-02T13:20:21Z</time>
      </trkpt>
      <trkpt lat="49.15391" lon="2.02586">
        <ele>100.6</ele>
        <time>2017-04-02T13:20:26Z</time>
      </trkpt>
      <trkpt lat="49.15391" lon="2.02597">
        <ele>100.6</ele>
        <time>2017-04-02T13:20:32Z</time>
      </trkpt>
      <trkpt lat="49.15391" lon="2.02608">
        <ele>101.4</ele>
        <time>2017-04-02T13:20:38Z</time>
      </trkpt>
      <trkpt lat="49.15391" lon="2.02621">
        <ele>102.6</ele>
        <time>2017-04-02T13:20:44Z</time>
      </trkpt>
      <trkpt lat="49.15392" lon="2.02633">
        <ele>103.6</ele>
        <time>2017-04-02T13:20:50Z</time>
      </trkpt>
      <trkpt lat="49.15393" lon="2.02646">
        <ele>103.5</ele>
        <time>2017-04-02T13:20:56Z</time>
      </trkpt>
      <trkpt lat="49.15394" lon="2.02657">
        <ele>103.3</ele>
        <time>2017-04-02T13:21:01Z</time>
      </trkpt>
      <trkpt lat="49.15395" lon="2.02669">
        <ele>103.4</ele>
        <time>2017-04-02T13:21:08Z</time>
      </trkpt>
      <trkpt lat="49.15395" lon="2.02683">
        <ele>102.7</ele>
        <time>2017-04-02T13:21:14Z</time>
      </trkpt>
      <trkpt lat="49.15388" lon="2.02686">
        <ele>102.6</ele>
        <time>2017-04-02T13:21:21Z</time>
      </trkpt>
      <trkpt lat="49.15382" lon="2.02678">
        <ele>103</ele>
        <time>2017-04-02T13:21:28Z</time>
      </trkpt>
      <trkpt lat="49.15377" lon="2.02671">
        <ele>103.6</ele>
        <time>2017-04-02T13:21:34Z</time>
      </trkpt>
      <trkpt lat="49.1537" lon="2.02663">
        <ele>103.3</ele>
        <time>2017-04-02T13:21:40Z</time>
      </trkpt>
      <trkpt lat="49.15364" lon="2.02656">
        <ele>104.4</ele>
        <time>2017-04-02T13:21:46Z</time>
      </trkpt>
      <trkpt lat="49.15357" lon="2.02648">
        <ele>104.1</ele>
        <time>2017-04-02T13:21:53Z</time>
      </trkpt>
      <trkpt lat="49.15351" lon="2.0264">
        <ele>103.3</ele>
        <time>2017-04-02T13:21:59Z</time>
      </trkpt>
      <trkpt lat="49.15345" lon="2.02632">
        <ele>102.7</ele>
        <time>2017-04-02T13:22:05Z</time>
      </trkpt>
      <trkpt lat="49.15339" lon="2.02625">
        <ele>102.6</ele>
        <time>2017-04-02T13:22:11Z</time>
      </trkpt>
      <trkpt lat="49.15333" lon="2.02619">
        <ele>102.2</ele>
        <time>2017-04-02T13:22:17Z</time>
      </trkpt>
      <trkpt lat="49.15327" lon="2.02612">
        <ele>102.4</ele>
        <time>2017-04-02T13:22:22Z</time>
      </trkpt>
      <trkpt lat="49.15321" lon="2.02605">
        <ele>102</ele>
        <time>2017-04-02T13:22:28Z</time>
      </trkpt>
      <trkpt lat="49.15314" lon="2.02599">
        <ele>102</ele>
        <time>2017-04-02T13:22:34Z</time>
      </trkpt>
      <trkpt lat="49.15308" lon="2.02593">
        <ele>102.4</ele>
        <time>2017-04-02T13:22:40Z</time>
      </trkpt>
      <trkpt lat="49.15302" lon="2.02586">
        <ele>102.8</ele>
        <time>2017-04-02T13:22:46Z</time>
      </trkpt>
      <trkpt lat="49.15295" lon="2.0258">
        <ele>103.2</ele>
        <time>2017-04-02T13:22:52Z</time>
      </trkpt>
      <trkpt lat="49.15288" lon="2.02572">
        <ele>104.2</ele>
        <time>2017-04-02T13:22:59Z</time>
      </trkpt>
      <trkpt lat="49.15281" lon="2.02565">
        <ele>105.6</ele>
        <time>2017-04-02T13:23:05Z</time>
      </trkpt>
      <trkpt lat="49.15275" lon="2.02559">
        <ele>106.9</ele>
        <time>2017-04-02T13:23:11Z</time>
      </trkpt>
      <trkpt lat="49.15268" lon="2.02553">
        <ele>107</ele>
        <time>2017-04-02T13:23:17Z</time>
      </trkpt>
      <trkpt lat="49.15262" lon="2.02547">
        <ele>105.9</ele>
        <time>2017-04-02T13:23:23Z</time>
      </trkpt>
      <trkpt lat="49.15255" lon="2.02541">
        <ele>105.3</ele>
        <time>2017-04-02T13:23:29Z</time>
      </trkpt>
      <trkpt lat="49.15249" lon="2.02535">
        <ele>105</ele>
        <time>2017-04-02T13:23:35Z</time>
      </trkpt>
      <trkpt lat="49.15242" lon="2.02529">
        <ele>103.8</ele>
        <time>2017-04-02T13:23:41Z</time>
      </trkpt>
      <trkpt lat="49.15235" lon="2.02524">
        <ele>103.1</ele>
        <time>2017-04-02T13:23:47Z</time>
      </trkpt>
      <trkpt lat="49.15229" lon="2.02518">
        <ele>103.5</ele>
        <time>2017-04-02T13:23:53Z</time>
      </trkpt>
      <trkpt lat="49.15222" lon="2.02512">
        <ele>103.3</ele>
        <time>2017-04-02T13:24:00Z</time>
      </trkpt>
      <trkpt lat="49.15215" lon="2.02506">
        <ele>104.2</ele>
        <time>2017-04-02T13:24:06Z</time>
      </trkpt>
      <trkpt lat="49.15209" lon="2.02499">
        <ele>105.6</ele>
        <time>2017-04-02T13:24:12Z</time>
      </trkpt>
      <trkpt lat="49.15203" lon="2.02493">
        <ele>104.1</ele>
        <time>2017-04-02T13:24:18Z</time>
      </trkpt>
      <trkpt lat="49.15197" lon="2.02487">
        <ele>102.8</ele>
        <time>2017-04-02T13:24:24Z</time>
      </trkpt>
      <trkpt lat="49.1519" lon="2.02481">
        <ele>102.5</ele>
        <time>2017-04-02T13:24:30Z</time>
      </trkpt>
      <trkpt lat="49.15184" lon="2.02477">
        <ele>101.7</ele>
        <time>2017-04-02T13:24:36Z</time>
      </trkpt>
      <trkpt lat="49.15175" lon="2.02475">
        <ele>100.9</ele>
        <time>2017-04-02T13:24:43Z</time>
      </trkpt>
      <trkpt lat="49.15167" lon="2.02473">
        <ele>101.3</ele>
        <time>2017-04-02T13:24:50Z</time>
      </trkpt>
      <trkpt lat="49.15159" lon="2.0247">
        <ele>101.4</ele>
        <time>2017-04-02T13:24:57Z</time>
      </trkpt>
      <trkpt lat="49.15151" lon="2.02469">
        <ele>101.7</ele>
        <time>2017-04-02T13:25:04Z</time>
      </trkpt>
      <trkpt lat="49.15143" lon="2.02466">
        <ele>102.8</ele>
        <time>2017-04-02T13:25:10Z</time>
      </trkpt>
      <trkpt lat="49.15135" lon="2.02464">
        <ele>102.7</ele>
        <time>2017-04-02T13:25:17Z</time>
      </trkpt>
      <trkpt lat="49.15127" lon="2.02461">
        <ele>102.9</ele>
        <time>2017-04-02T13:25:24Z</time>
      </trkpt>
      <trkpt lat="49.1512" lon="2.0246">
        <ele>103.4</ele>
        <time>2017-04-02T13:25:30Z</time>
      </trkpt>
      <trkpt lat="49.15112" lon="2.02459">
        <ele>103.7</ele>
        <time>2017-04-02T13:25:36Z</time>
      </trkpt>
      <trkpt lat="49.15103" lon="2.02457">
        <ele>103.7</ele>
        <time>2017-04-02T13:25:43Z</time>
      </trkpt>
      <trkpt lat="49.15096" lon="2.02455">
        <ele>103.5</ele>
        <time>2017-04-02T13:25:49Z</time>
      </trkpt>
      <trkpt lat="49.15088" lon="2.02453">
        <ele>103.1</ele>
        <time>2017-04-02T13:25:55Z</time>
      </trkpt>
      <trkpt lat="49.1508" lon="2.02451">
        <ele>103</ele>
        <time>2017-04-02T13:26:01Z</time>
      </trkpt>
      <trkpt lat="49.15072" lon="2.0245">
        <ele>103</ele>
        <time>2017-04-02T13:26:07Z</time>
      </trkpt>
      <trkpt lat="49.15064" lon="2.02449">
        <ele>102.8</ele>
        <time>2017-04-02T13:26:13Z</time>
      </trkpt>
      <trkpt lat="49.1506" lon="2.02454">
        <ele>102.4</ele>
        <time>2017-04-02T13:26:20Z</time>
      </trkpt>
      <trkpt lat="49.15052" lon="2.02453">
        <ele>101.2</ele>
        <time>2017-04-02T13:26:31Z</time>
      </trkpt>
      <trkpt lat="49.15044" lon="2.02454">
        <ele>101.3</ele>
        <time>2017-04-02T13:26:36Z</time>
      </trkpt>
      <trkpt lat="49.15036" lon="2.02456">
        <ele>100.3</ele>
        <time>2017-04-02T13:26:41Z</time>
      </trkpt>
      <trkpt lat="49.15028" lon="2.02456">
        <ele>101.8</ele>
        <time>2017-04-02T13:26:46Z</time>
      </trkpt>
      <trkpt lat="49.1502" lon="2.02457">
        <ele>101.8</ele>
        <time>2017-04-02T13:26:52Z</time>
      </trkpt>
      <trkpt lat="49.15013" lon="2.02456">
        <ele>101.8</ele>
        <time>2017-04-02T13:26:58Z</time>
      </trkpt>
      <trkpt lat="49.15005" lon="2.02458">
        <ele>101.2</ele>
        <time>2017-04-02T13:27:04Z</time>
      </trkpt>
      <trkpt lat="49.14998" lon="2.02462">
        <ele>100.6</ele>
        <time>2017-04-02T13:27:11Z</time>
      </trkpt>
      <trkpt lat="49.1499" lon="2.02464">
        <ele>99.9</ele>
        <time>2017-04-02T13:27:18Z</time>
      </trkpt>
      <trkpt lat="49.14982" lon="2.02465">
        <ele>100.3</ele>
        <time>2017-04-02T13:27:24Z</time>
      </trkpt>
      <trkpt lat="49.14974" lon="2.02467">
        <ele>100.6</ele>
        <time>2017-04-02T13:27:30Z</time>
      </trkpt>
      <trkpt lat="49.14966" lon="2.02469">
        <ele>101.3</ele>
        <time>2017-04-02T13:27:36Z</time>
      </trkpt>
      <trkpt lat="49.14963" lon="2.02468">
        <ele>101.5</ele>
        <time>2017-04-02T13:27:43Z</time>
      </trkpt>
      <trkpt lat="49.14956" lon="2.02469">
        <ele>101.2</ele>
        <time>2017-04-02T13:27:50Z</time>
      </trkpt>
      <trkpt lat="49.14949" lon="2.0247">
        <ele>99.6</ele>
        <time>2017-04-02T13:27:57Z</time>
      </trkpt>
      <trkpt lat="49.14941" lon="2.02473">
        <ele>99.5</ele>
        <time>2017-04-02T13:28:03Z</time>
      </trkpt>
      <trkpt lat="49.14934" lon="2.02475">
        <ele>99.3</ele>
        <time>2017-04-02T13:28:08Z</time>
      </trkpt>
      <trkpt lat="49.14927" lon="2.02481">
        <ele>99.5</ele>
        <time>2017-04-02T13:28:14Z</time>
      </trkpt>
      <trkpt lat="49.1492" lon="2.02486">
        <ele>99</ele>
        <time>2017-04-02T13:28:19Z</time>
      </trkpt>
      <trkpt lat="49.14912" lon="2.02487">
        <ele>100.1</ele>
        <time>2017-04-02T13:28:26Z</time>
      </trkpt>
      <trkpt lat="49.14904" lon="2.02487">
        <ele>101.3</ele>
        <time>2017-04-02T13:28:33Z</time>
      </trkpt>
      <trkpt lat="49.14896" lon="2.02486">
        <ele>102</ele>
        <time>2017-04-02T13:28:39Z</time>
      </trkpt>
      <trkpt lat="49.14888" lon="2.02485">
        <ele>103.4</ele>
        <time>2017-04-02T13:28:46Z</time>
      </trkpt>
      <trkpt lat="49.1488" lon="2.02482">
        <ele>104.5</ele>
        <time>2017-04-02T13:28:53Z</time>
      </trkpt>
      <trkpt lat="49.14872" lon="2.02478">
        <ele>105.5</ele>
        <time>2017-04-02T13:29:00Z</time>
      </trkpt>
      <trkpt lat="49.14865" lon="2.02474">
        <ele>106.1</ele>
        <time>2017-04-02T13:29:07Z</time>
      </trkpt>
      <trkpt lat="49.14858" lon="2.02469">
        <ele>106.8</ele>
        <time>2017-04-02T13:29:13Z</time>
      </trkpt>
      <trkpt lat="49.14851" lon="2.02464">
        <ele>107.7</ele>
        <time>2017-04-02T13:29:20Z</time>
      </trkpt>
      <trkpt lat="49.14844" lon="2.02457">
        <ele>108.3</ele>
        <time>2017-04-02T13:29:27Z</time>
      </trkpt>
      <trkpt lat="49.14839" lon="2.0245">
        <ele>108.9</ele>
        <time>2017-04-02T13:29:34Z</time>
      </trkpt>
      <trkpt lat="49.14833" lon="2.02442">
        <ele>111.2</ele>
        <time>2017-04-02T13:29:41Z</time>
      </trkpt>
      <trkpt lat="49.14828" lon="2.02435">
        <ele>112.2</ele>
        <time>2017-04-02T13:29:48Z</time>
      </trkpt>
      <trkpt lat="49.14823" lon="2.02427">
        <ele>112.9</ele>
        <time>2017-04-02T13:29:54Z</time>
      </trkpt>
      <trkpt lat="49.14817" lon="2.0242">
        <ele>113.3</ele>
        <time>2017-04-02T13:30:00Z</time>
      </trkpt>
      <trkpt lat="49.14811" lon="2.02413">
        <ele>114.5</ele>
        <time>2017-04-02T13:30:06Z</time>
      </trkpt>
      <trkpt lat="49.14805" lon="2.02404">
        <ele>116.3</ele>
        <time>2017-04-02T13:30:13Z</time>
      </trkpt>
      <trkpt lat="49.14799" lon="2.02397">
        <ele>117.2</ele>
        <time>2017-04-02T13:30:20Z</time>
      </trkpt>
      <trkpt lat="49.14793" lon="2.02391">
        <ele>116.5</ele>
        <time>2017-04-02T13:30:27Z</time>
      </trkpt>
      <trkpt lat="49.14787" lon="2.02384">
        <ele>115.9</ele>
        <time>2017-04-02T13:30:33Z</time>
      </trkpt>
      <trkpt lat="49.1478" lon="2.02377">
        <ele>113.7</ele>
        <time>2017-04-02T13:30:40Z</time>
      </trkpt>
      <trkpt lat="49.14776" lon="2.0237">
        <ele>113.3</ele>
        <time>2017-04-02T13:30:47Z</time>
      </trkpt>
      <trkpt lat="49.1477" lon="2.02363">
        <ele>114</ele>
        <time>2017-04-02T13:30:54Z</time>
      </trkpt>
      <trkpt lat="49.14763" lon="2.02356">
        <ele>114.1</ele>
        <time>2017-04-02T13:31:01Z</time>
      </trkpt>
      <trkpt lat="49.14757" lon="2.02349">
        <ele>113.6</ele>
        <time>2017-04-02T13:31:07Z</time>
      </trkpt>
      <trkpt lat="49.1475" lon="2.02343">
        <ele>113.8</ele>
        <time>2017-04-02T13:31:13Z</time>
      </trkpt>
      <trkpt lat="49.14744" lon="2.02337">
        <ele>113.7</ele>
        <time>2017-04-02T13:31:19Z</time>
      </trkpt>
      <trkpt lat="49.14737" lon="2.02332">
        <ele>113.4</ele>
        <time>2017-04-02T13:31:25Z</time>
      </trkpt>
      <trkpt lat="49.1473" lon="2.02327">
        <ele>113.2</ele>
        <time>2017-04-02T13:31:31Z</time>
      </trkpt>
      <trkpt lat="49.14724" lon="2.02322">
        <ele>114.3</ele>
        <time>2017-04-02T13:31:37Z</time>
      </trkpt>
      <trkpt lat="49.14717" lon="2.02317">
        <ele>116.4</ele>
        <time>2017-04-02T13:31:43Z</time>
      </trkpt>
      <trkpt lat="49.1471" lon="2.02313">
        <ele>116.7</ele>
        <time>2017-04-02T13:31:49Z</time>
      </trkpt>
      <trkpt lat="49.14703" lon="2.02308">
        <ele>115.9</ele>
        <time>2017-04-02T13:31:56Z</time>
      </trkpt>
      <trkpt lat="49.14696" lon="2.02303">
        <ele>117.1</ele>
        <time>2017-04-02T13:32:02Z</time>
      </trkpt>
      <trkpt lat="49.14688" lon="2.02298">
        <ele>117.2</ele>
        <time>2017-04-02T13:32:08Z</time>
      </trkpt>
      <trkpt lat="49.14682" lon="2.02292">
        <ele>118.1</ele>
        <time>2017-04-02T13:32:13Z</time>
      </trkpt>
      <trkpt lat="49.14676" lon="2.02288">
        <ele>119.6</ele>
        <time>2017-04-02T13:32:19Z</time>
      </trkpt>
      <trkpt lat="49.1467" lon="2.02284">
        <ele>118.7</ele>
        <time>2017-04-02T13:32:26Z</time>
      </trkpt>
      <trkpt lat="49.14663" lon="2.02281">
        <ele>117.6</ele>
        <time>2017-04-02T13:32:33Z</time>
      </trkpt>
      <trkpt lat="49.14656" lon="2.02275">
        <ele>116.9</ele>
        <time>2017-04-02T13:32:40Z</time>
      </trkpt>
      <trkpt lat="49.1465" lon="2.02271">
        <ele>117.5</ele>
        <time>2017-04-02T13:32:47Z</time>
      </trkpt>
      <trkpt lat="49.14642" lon="2.02265">
        <ele>119</ele>
        <time>2017-04-02T13:32:54Z</time>
      </trkpt>
      <trkpt lat="49.14635" lon="2.02259">
        <ele>119.6</ele>
        <time>2017-04-02T13:33:01Z</time>
      </trkpt>
      <trkpt lat="49.14628" lon="2.02254">
        <ele>120.4</ele>
        <time>2017-04-02T13:33:08Z</time>
      </trkpt>
      <trkpt lat="49.14621" lon="2.02249">
        <ele>121.5</ele>
        <time>2017-04-02T13:33:14Z</time>
      </trkpt>
      <trkpt lat="49.14615" lon="2.02241">
        <ele>121.9</ele>
        <time>2017-04-02T13:33:20Z</time>
      </trkpt>
      <trkpt lat="49.1461" lon="2.02232">
        <ele>123.3</ele>
        <time>2017-04-02T13:33:26Z</time>
      </trkpt>
      <trkpt lat="49.14606" lon="2.02223">
        <ele>123.4</ele>
        <time>2017-04-02T13:33:32Z</time>
      </trkpt>
      <trkpt lat="49.146" lon="2.02213">
        <ele>124.5</ele>
        <time>2017-04-02T13:33:39Z</time>
      </trkpt>
      <trkpt lat="49.14597" lon="2.02202">
        <ele>125.7</ele>
        <time>2017-04-02T13:33:46Z</time>
      </trkpt>
      <trkpt lat="49.14593" lon="2.02191">
        <ele>125.4</ele>
        <time>2017-04-02T13:33:52Z</time>
      </trkpt>
      <trkpt lat="49.14589" lon="2.0218">
        <ele>126.1</ele>
        <time>2017-04-02T13:33:58Z</time>
      </trkpt>
      <trkpt lat="49.14587" lon="2.02172">
        <ele>127.2</ele>
        <time>2017-04-02T13:34:05Z</time>
      </trkpt>
      <trkpt lat="49.14587" lon="2.0217">
        <ele>125.6</ele>
        <time>2017-04-02T13:34:43Z</time>
      </trkpt>
      <trkpt lat="49.14582" lon="2.02161">
        <ele>123.6</ele>
        <time>2017-04-02T13:34:50Z</time>
      </trkpt>
      <trkpt lat="49.14579" lon="2.0215">
        <ele>122.8</ele>
        <time>2017-04-02T13:34:57Z</time>
      </trkpt>
      <trkpt lat="49.14574" lon="2.02139">
        <ele>121.3</ele>
        <time>2017-04-02T13:35:04Z</time>
      </trkpt>
      <trkpt lat="49.14571" lon="2.02129">
        <ele>121.3</ele>
        <time>2017-04-02T13:35:10Z</time>
      </trkpt>
      <trkpt lat="49.14568" lon="2.0212">
        <ele>120</ele>
        <time>2017-04-02T13:35:17Z</time>
      </trkpt>
      <trkpt lat="49.14565" lon="2.0211">
        <ele>120.7</ele>
        <time>2017-04-02T13:35:24Z</time>
      </trkpt>
      <trkpt lat="49.14559" lon="2.02103">
        <ele>121.8</ele>
        <time>2017-04-02T13:35:30Z</time>
      </trkpt>
      <trkpt lat="49.14553" lon="2.02095">
        <ele>126.4</ele>
        <time>2017-04-02T13:35:34Z</time>
      </trkpt>
      <trkpt lat="49.14547" lon="2.02091">
        <ele>128.2</ele>
        <time>2017-04-02T13:35:39Z</time>
      </trkpt>
      <trkpt lat="49.1454" lon="2.02086">
        <ele>128.8</ele>
        <time>2017-04-02T13:35:45Z</time>
      </trkpt>
      <trkpt lat="49.14533" lon="2.02084">
        <ele>128.9</ele>
        <time>2017-04-02T13:35:52Z</time>
      </trkpt>
      <trkpt lat="49.14526" lon="2.0208">
        <ele>128.9</ele>
        <time>2017-04-02T13:35:58Z</time>
      </trkpt>
      <trkpt lat="49.14518" lon="2.02076">
        <ele>128.7</ele>
        <time>2017-04-02T13:36:05Z</time>
      </trkpt>
      <trkpt lat="49.14511" lon="2.02073">
        <ele>127.5</ele>
        <time>2017-04-02T13:36:11Z</time>
      </trkpt>
      <trkpt lat="49.14503" lon="2.02068">
        <ele>128.7</ele>
        <time>2017-04-02T13:36:17Z</time>
      </trkpt>
      <trkpt lat="49.14495" lon="2.02067">
        <ele>129.4</ele>
        <time>2017-04-02T13:36:24Z</time>
      </trkpt>
      <trkpt lat="49.14488" lon="2.02061">
        <ele>129.6</ele>
        <time>2017-04-02T13:36:30Z</time>
      </trkpt>
      <trkpt lat="49.14481" lon="2.02055">
        <ele>129.1</ele>
        <time>2017-04-02T13:36:36Z</time>
      </trkpt>
      <trkpt lat="49.14475" lon="2.02048">
        <ele>129.6</ele>
        <time>2017-04-02T13:36:43Z</time>
      </trkpt>
      <trkpt lat="49.14468" lon="2.02043">
        <ele>128.7</ele>
        <time>2017-04-02T13:36:49Z</time>
      </trkpt>
      <trkpt lat="49.14462" lon="2.02036">
        <ele>128.8</ele>
        <time>2017-04-02T13:36:55Z</time>
      </trkpt>
      <trkpt lat="49.14457" lon="2.02028">
        <ele>130.4</ele>
        <time>2017-04-02T13:37:00Z</time>
      </trkpt>
      <trkpt lat="49.14451" lon="2.02021">
        <ele>130.8</ele>
        <time>2017-04-02T13:37:06Z</time>
      </trkpt>
      <trkpt lat="49.14445" lon="2.02013">
        <ele>130.9</ele>
        <time>2017-04-02T13:37:13Z</time>
      </trkpt>
      <trkpt lat="49.14439" lon="2.02006">
        <ele>132</ele>
        <time>2017-04-02T13:37:18Z</time>
      </trkpt>
      <trkpt lat="49.14434" lon="2.02001">
        <ele>131.4</ele>
        <time>2017-04-02T13:37:25Z</time>
      </trkpt>
      <trkpt lat="49.14428" lon="2.01994">
        <ele>131.2</ele>
        <time>2017-04-02T13:37:39Z</time>
      </trkpt>
      <trkpt lat="49.14422" lon="2.01988">
        <ele>130.8</ele>
        <time>2017-04-02T13:37:44Z</time>
      </trkpt>
      <trkpt lat="49.14415" lon="2.01983">
        <ele>130.4</ele>
        <time>2017-04-02T13:37:50Z</time>
      </trkpt>
      <trkpt lat="49.1441" lon="2.01984">
        <ele>131.8</ele>
        <time>2017-04-02T13:37:57Z</time>
      </trkpt>
      <trkpt lat="49.14405" lon="2.0199">
        <ele>130.5</ele>
        <time>2017-04-02T13:38:04Z</time>
      </trkpt>
      <trkpt lat="49.14401" lon="2.01996">
        <ele>130</ele>
        <time>2017-04-02T13:38:11Z</time>
      </trkpt>
      <trkpt lat="49.14396" lon="2.02004">
        <ele>129</ele>
        <time>2017-04-02T13:38:18Z</time>
      </trkpt>
      <trkpt lat="49.14392" lon="2.02013">
        <ele>128.4</ele>
        <time>2017-04-02T13:38:25Z</time>
      </trkpt>
      <trkpt lat="49.14388" lon="2.02022">
        <ele>126.6</ele>
        <time>2017-04-02T13:38:30Z</time>
      </trkpt>
      <trkpt lat="49.14386" lon="2.02032">
        <ele>125.1</ele>
        <time>2017-04-02T13:38:37Z</time>
      </trkpt>
      <trkpt lat="49.14381" lon="2.02041">
        <ele>125.1</ele>
        <time>2017-04-02T13:38:44Z</time>
      </trkpt>
      <trkpt lat="49.14375" lon="2.02049">
        <ele>125.2</ele>
        <time>2017-04-02T13:38:51Z</time>
      </trkpt>
      <trkpt lat="49.14374" lon="2.02053">
        <ele>126.3</ele>
        <time>2017-04-02T13:38:58Z</time>
      </trkpt>
      <trkpt lat="49.14369" lon="2.02061">
        <ele>122.5</ele>
        <time>2017-04-02T13:39:12Z</time>
      </trkpt>
      <trkpt lat="49.14363" lon="2.02065">
        <ele>124.8</ele>
        <time>2017-04-02T13:39:19Z</time>
      </trkpt>
      <trkpt lat="49.14357" lon="2.0207">
        <ele>127.3</ele>
        <time>2017-04-02T13:39:26Z</time>
      </trkpt>
      <trkpt lat="49.14351" lon="2.02072">
        <ele>130</ele>
        <time>2017-04-02T13:39:33Z</time>
      </trkpt>
      <trkpt lat="49.14344" lon="2.02078">
        <ele>131.9</ele>
        <time>2017-04-02T13:39:40Z</time>
      </trkpt>
      <trkpt lat="49.14337" lon="2.02084">
        <ele>135</ele>
        <time>2017-04-02T13:39:45Z</time>
      </trkpt>
      <trkpt lat="49.1433" lon="2.02092">
        <ele>135</ele>
        <time>2017-04-02T13:39:52Z</time>
      </trkpt>
      <trkpt lat="49.14324" lon="2.02099">
        <ele>132.8</ele>
        <time>2017-04-02T13:39:59Z</time>
      </trkpt>
      <trkpt lat="49.14318" lon="2.02105">
        <ele>130.2</ele>
        <time>2017-04-02T13:40:06Z</time>
      </trkpt>
      <trkpt lat="49.14312" lon="2.02114">
        <ele>131.3</ele>
        <time>2017-04-02T13:40:13Z</time>
      </trkpt>
      <trkpt lat="49.14307" lon="2.02122">
        <ele>133</ele>
        <time>2017-04-02T13:40:18Z</time>
      </trkpt>
      <trkpt lat="49.14303" lon="2.02131">
        <ele>134.7</ele>
        <time>2017-04-02T13:40:22Z</time>
      </trkpt>
      <trkpt lat="49.14298" lon="2.02141">
        <ele>135</ele>
        <time>2017-04-02T13:40:27Z</time>
      </trkpt>
      <trkpt lat="49.14293" lon="2.02146">
        <ele>135.8</ele>
        <time>2017-04-02T13:40:35Z</time>
      </trkpt>
    </trkseg>
  </trk>
</gpx>